Date StartTime U_cm/s V_cm/s W_cm/s Ustd_cm/s Vstd_cm/s Wstd_cm/s Uvar_(cm/s)^2 Vvar_(cm/s)^2 Wvar_(cm/s)^2 KE_(m/s)^2 TurbulentKE_(m/s)^2 HorizWindSpeed_cm/s FrictionSpeec_cm/s DragCoef SpeedOfSound_m/s SonicTemperature_C Pressure_mb 
03/17/2014  00:00:00     -186.692      -80.787        5.134      193.969      141.547       90.365    37623.949    20035.570     8165.872        5.360        3.291      203.422       82.450        0.164      339.873       13.501      861.042
03/17/2014  00:01:00     -416.109     -158.257      -12.677      220.891      137.012       93.968    48792.800    18772.224     8829.933       13.736        3.820      445.188      112.376        0.064      339.845       13.454      861.014
03/17/2014  00:02:00     -349.005     -112.922        0.660      222.454      157.262       92.642    49485.688    24731.294     8582.527       10.866        4.140      366.818      104.141        0.081      339.835       13.437      860.978
03/17/2014  00:03:00     -557.302     -284.532      -17.420      314.430      257.443      127.474    98866.346    66276.726    16249.557       28.658        9.070      625.735      131.875        0.044      339.889       13.526      860.925
03/17/2014  00:04:00     -563.483     -297.414      -20.950      348.667      302.446      142.858   121568.829    91473.354    20408.415       31.988       11.673      637.157      157.833        0.061      339.884       13.520      860.930
03/17/2014  00:05:00     -430.984     -330.776       -7.153      335.110      241.437      159.031   112298.378    58291.601    25290.716       24.551        9.794      543.286      191.009        0.124      339.883       13.518      860.965
03/17/2014  00:06:00     -346.797     -129.774       16.949      278.023      193.430      123.941    77296.904    37415.069    15361.415       13.371        6.504      370.283      144.670        0.153      339.831       13.429      861.009
03/17/2014  00:07:00     -493.510     -125.277        4.644      223.718      197.628      105.495    50049.736    39056.673    11129.230       17.973        5.012      509.163      117.770        0.053      339.820       13.413      861.009
03/17/2014  00:08:00     -392.980     -170.248       24.166      228.213      184.884      126.971    52081.187    34181.935    16121.549       14.317        5.119      428.273      126.983        0.088      339.781       13.346      861.018
03/17/2014  00:09:00     -558.128     -253.925       -1.620      326.338      265.102      128.024   106496.586    70279.233    16390.163       28.454        9.658      613.176      149.355        0.059      339.792       13.366      860.983
03/17/2014  00:10:00     -515.628     -234.424        2.230      297.847      280.224      137.222    88713.082    78525.487    18829.752       25.341        9.303      566.416      171.324        0.091      339.779       13.342      860.996
03/17/2014  00:11:00     -551.160     -297.021      -14.875      302.963      202.583      127.227    91786.335    41039.955    16186.783       27.059        7.451      626.098      147.145        0.055      339.780       13.344      860.964
03/17/2014  00:12:00     -494.846     -250.754        9.611      342.538      256.610      109.487   117332.499    65848.790    11987.378       25.147        9.758      554.752      142.155        0.066      339.790       13.362      860.967
03/17/2014  00:13:00     -611.595     -346.412       -5.344      366.195      315.510      160.532   134098.693    99546.404    25770.499       37.669       12.971      702.886      163.416        0.054      339.793       13.365      860.850
03/17/2014  00:14:00     -461.038     -230.956      -10.391      299.031      211.907      136.555    89419.435    44904.741    18647.321       20.946        7.649      515.652      158.889        0.095      339.784       13.350      860.837
03/17/2014  00:15:00     -334.365      -86.124       16.626      289.857      192.507      121.714    84017.095    37059.031    14814.243       12.766        6.795      345.278      118.543        0.118      339.729       13.260      860.908
03/17/2014  00:16:00     -649.704     -270.825      -14.318      368.712      263.089      122.279   135948.243    69215.670    14952.107       35.785       11.006      703.890      145.846        0.043      339.706       13.221      860.895
03/17/2014  00:17:00     -399.517     -246.203       10.529      296.133      181.350      119.238    87694.718    32887.844    14217.662       17.754        6.740      469.286      152.632        0.106      339.677       13.172      860.899
03/17/2014  00:18:00     -445.726     -252.757       -0.420      333.984      220.381      125.969   111545.026    48567.827    15868.188       21.923        8.799      512.404      166.670        0.106      339.685       13.185      860.866
03/17/2014  00:19:00     -674.564     -217.577      -45.279      308.769      243.000      137.518    95338.573    59049.097    18911.200       33.883        8.665      708.785      153.253        0.047      339.695       13.202      860.913
03/17/2014  00:20:00     -386.118     -160.804       21.749      349.366      236.104      156.634   122056.311    55745.297    24534.216       18.884       10.117      418.265      187.770        0.202      339.672       13.164      860.899
03/17/2014  00:21:00     -532.064     -169.264      -11.737      297.664      215.812      136.261    88603.598    46574.833    18567.009       23.278        7.687      558.340      146.448        0.069      339.672       13.164      860.893
03/17/2014  00:22:00     -593.539     -238.758      -11.210      292.562      242.005      120.079    85592.810    58566.584    14419.014       28.397        7.929      639.761      130.455        0.042      339.660       13.143      860.967
03/17/2014  00:23:00     -627.890     -193.779      -13.084      267.273      279.202      126.980    71435.085    77954.033    16124.024       29.871        8.276      657.112      109.062        0.028      339.657       13.136      861.014
03/17/2014  00:24:00     -553.974     -451.916      -20.129      339.907      249.992      144.967   115536.521    62495.791    21015.386       35.524        9.952      714.924      159.317        0.050      339.637       13.104      861.063
03/17/2014  00:25:00     -477.324     -298.045      -40.571      414.013      295.318      133.617   171406.884    87212.748    17853.431       29.734       13.824      562.733      162.344        0.083      339.631       13.091      861.024
03/17/2014  00:26:00     -512.636      -78.536       13.438      302.330      226.592      135.163    91403.417    51343.825    18269.150       21.505        8.051      518.617      146.715        0.080      339.602       13.046      861.142
03/17/2014  00:27:00     -416.226     -110.144        2.252      210.621      181.355       96.264    44361.016    32889.547     9266.720       13.593        4.326      430.553      103.376        0.058      339.568       12.987      861.135
03/17/2014  00:28:00     -421.508     -164.767       -4.247      317.979      185.801      131.290   101110.518    34521.889    17237.067       17.882        7.643      452.567      162.877        0.130      339.530       12.923      861.150
03/17/2014  00:29:00     -380.789     -108.349       14.092      290.939      240.561      132.732    84645.437    57869.519    17617.813       15.850        8.007      395.904      152.251        0.148      339.520       12.906      861.129
03/17/2014  00:30:00     -470.359      -73.405       10.265      314.924      204.574      121.444    99176.922    41850.395    14748.563       19.122        7.789      476.052      143.819        0.091      339.531       12.925      861.153
03/17/2014  00:31:00     -361.325     -208.601       25.033      347.618      231.911      137.874   120838.026    53782.737    19009.371       18.412        9.682      417.217      180.296        0.187      339.499       12.872      861.177
03/17/2014  00:32:00     -506.985     -264.816      -18.886      367.625      256.769      137.158   135148.383    65930.564    18812.312       27.366       10.995      571.980      155.708        0.074      339.511       12.891      861.128
03/17/2014  00:33:00     -722.119     -410.302      -33.917      405.745      319.252      154.739   164628.713   101921.542    23944.089       49.067       14.525      830.544      176.952        0.045      339.551       12.959      861.106
03/17/2014  00:34:00     -588.368     -472.116       -8.291      369.311      279.635      164.955   136390.965    78195.876    27209.993       40.542       12.090      754.367      202.711        0.072      339.557       12.968      861.097
03/17/2014  00:35:00     -381.665     -264.152       -9.986      279.745      230.563      141.250    78257.456    53159.475    19951.465       18.343        7.568      464.160      147.114        0.100      339.520       12.905      861.123
03/17/2014  00:36:00     -698.040     -364.306       -2.445      369.145      234.230      141.990   136267.790    54863.806    20161.142       41.560       10.565      787.387      182.267        0.054      339.526       12.916      861.089
03/17/2014  00:37:00     -826.810     -469.357      -36.794      349.171      313.220      149.201   121920.060    98106.569    22261.077       57.373       12.114      950.742      148.641        0.024      339.546       12.949      861.017
03/17/2014  00:38:00     -798.760     -219.665      -34.504      462.671      336.722      154.712   214064.242   113381.882    23935.820       51.935       17.569      828.414      182.662        0.049      339.536       12.934      860.983
03/17/2014  00:39:00     -552.464     -311.237        6.587      383.963      284.342      150.241   147427.690    80850.216    22572.429       32.644       12.543      634.101      196.449        0.096      339.528       12.921      861.005
03/17/2014  00:40:00     -649.707     -348.644       -8.058      284.179      312.101      133.188    80757.762    97407.027    17739.054       36.978        9.795      737.341      125.082        0.029      339.518       12.904      861.016
03/17/2014  00:41:00     -466.129     -111.364       22.426      361.983      276.565      155.048   131031.496    76487.983    24040.010       23.082       11.578      479.247      179.185        0.140      339.495       12.864      861.017
03/17/2014  00:42:00     -764.896     -357.911      -13.777      469.997      354.770      198.194   220897.441   125861.545    39280.690       54.962       19.302      844.492      251.773        0.089      339.531       12.926      860.954
03/17/2014  00:43:00     -712.980     -429.354       35.412      580.300      424.799      210.015   336747.572   180453.789    44106.253       62.751       28.065      832.277      291.252        0.122      339.524       12.913      860.911
03/17/2014  00:44:00     -893.031     -395.682      -31.931      447.523      415.012      161.471   200276.643   172235.071    26072.842       67.676       19.929      976.765      189.985        0.038      339.507       12.883      860.952
03/17/2014  00:45:00     -629.350     -313.839       -6.149      338.216      243.976      123.444   114390.245    59524.518    15238.486       34.185        9.458      703.261      143.703        0.042      339.464       12.812      861.037
03/17/2014  00:46:00     -591.280     -256.225      -12.972      459.203      291.077      143.718   210867.286    84725.750    20654.829       36.578       15.812      644.409      188.093        0.085      339.434       12.760      861.033
03/17/2014  00:47:00    -1028.502     -331.321      -54.347      438.029      376.051      170.732   191869.828   141414.228    29149.436       76.642       18.122     1080.551      208.754        0.037      339.446       12.783      861.022
03/17/2014  00:48:00     -713.778     -403.351      -40.970      391.546      340.526      168.763   153308.108   115957.731    28480.957       48.574       14.887      819.860      198.169        0.058      339.425       12.746      861.074
03/17/2014  00:49:00     -783.023     -455.722      -54.384      414.587      315.016      155.118   171882.624    99235.097    24061.722       55.941       14.759      905.984      179.003        0.039      339.394       12.692      861.049
03/17/2014  00:50:00     -637.422     -362.618       -9.539      482.439      359.425      182.608   232747.208   129186.462    33345.698       46.650       19.764      733.348      257.321        0.123      339.379       12.668      861.100
03/17/2014  00:51:00     -595.690     -264.931      -17.077      325.404      260.175      152.472   105887.972    67691.248    23247.791       31.104        9.841      651.946      177.010        0.074      339.363       12.641      861.192
03/17/2014  00:52:00     -882.861     -481.243      -30.251      380.417      316.777      146.218   144717.171   100347.881    21379.691       63.915       13.322     1005.504      177.482        0.031      339.368       12.651      861.215
03/17/2014  00:53:00     -716.601     -372.983      -17.161      440.592      343.828      190.054   194121.391   118217.585    36120.487       50.062       17.423      807.857      225.959        0.078      339.386       12.679      861.197
03/17/2014  00:54:00     -605.333     -167.658       -6.755      300.660      294.994      135.686    90396.455    87021.281    18410.636       29.517        9.791      628.122      149.054        0.056      339.375       12.660      861.270
03/17/2014  00:55:00     -677.348     -307.987      -36.682      397.987      326.837      159.595   158393.366   106822.423    25470.650       42.279       14.534      744.081      150.991        0.041      339.335       12.595      861.320
03/17/2014  00:56:00     -623.327     -263.725      -15.505      381.186      349.051      156.268   145302.743   121836.942    24419.684       37.489       14.578      676.822      187.702        0.077      339.320       12.568      861.367
03/17/2014  00:57:00     -735.818     -412.449      -29.083      426.342      325.335      161.073   181767.842   105843.165    25944.599       51.291       15.678      843.529      201.792        0.057      339.314       12.558      861.400
03/17/2014  00:58:00     -348.813     -212.646       17.648      324.236      264.477      133.475   105128.988    69948.232    17815.443       18.001        9.645      408.521      144.222        0.125      339.276       12.496      861.411
03/17/2014  00:59:00     -641.262     -229.160      -39.982      297.683      279.137      128.337    88615.440    77917.279    16470.403       32.413        9.150      680.978      146.161        0.046      339.259       12.465      861.462
03/17/2014  01:00:00     -694.905     -130.306      -18.636      411.111      256.714      156.243   169012.512    65901.835    24411.878       37.972       12.966      707.017      188.202        0.071      339.245       12.444      861.532
03/17/2014  01:01:00     -639.018     -214.958      -19.063      396.407      316.528      144.520   157138.428   100190.283    20885.970       36.651       13.911      674.204      168.512        0.062      339.225       12.409      861.468
03/17/2014  01:02:00     -620.285      -87.142      -19.615      320.618      242.059      126.293   102795.995    58592.626    15949.922       28.500        8.867      626.377      148.348        0.056      339.218       12.398      861.530
03/17/2014  01:03:00     -451.296      -69.403      -11.914      267.913      201.351       92.124    71777.570    40542.187     8486.853       16.469        6.040      456.602      103.960        0.052      339.158       12.296      861.575
03/17/2014  01:04:00     -354.117     -218.533       14.166      368.952      239.074      142.620   136125.279    57156.412    20340.410       19.345       10.681      416.119      184.101        0.196      339.106       12.210      861.611
03/17/2014  01:05:00     -591.344     -224.177      -12.443      331.083      236.440      123.604   109616.010    55904.088    15278.013       29.041        9.040      632.411      138.095        0.048      339.113       12.220      861.571
03/17/2014  01:06:00     -550.846      -54.373      -22.248      326.914      238.925      133.195   106872.750    57085.117    17740.886       24.425        9.085      553.524      141.338        0.065      339.083       12.170      861.607
03/17/2014  01:07:00     -426.493     -297.578      -13.089      280.471      240.740      133.462    78664.007    57955.665    17812.138       21.250        7.722      520.047      143.907        0.077      339.086       12.176      861.569
03/17/2014  01:08:00     -435.064     -171.705      -29.234      238.432      169.138      111.353    56849.764    28607.525    12399.522       15.872        4.893      467.721      112.227        0.058      339.088       12.179      861.600
03/17/2014  01:09:00     -457.534     -385.987      -27.165      346.324      275.517      169.725   119940.494    75909.676    28806.684       29.181       11.233      598.601      165.275        0.076      339.084       12.173      861.575
03/17/2014  01:10:00     -417.392     -148.987       -2.930      250.587      198.154       92.214    62793.686    39264.952     8503.361       15.347        5.528      443.185      101.398        0.052      339.059       12.130      861.585
03/17/2014  01:11:00     -366.024     -153.754       -4.983      244.236      149.686      103.359    59651.415    22405.940    10683.057       12.517        4.637      397.006      110.311        0.077      339.013       12.055      861.594
03/17/2014  01:12:00     -372.817     -255.691       -2.588      298.009      253.458      127.549    88809.461    64241.047    16268.738       18.681        8.466      452.074      148.177        0.107      339.020       12.066      861.599
03/17/2014  01:13:00     -547.635     -292.486      -20.710      305.072      257.583      141.134    93068.970    66348.929    19918.911       28.257        8.967      620.848      168.167        0.073      339.052       12.118      861.602
03/17/2014  01:14:00     -479.412     -146.571      -16.323      297.567      210.573      124.596    88545.839    44340.976    15524.156       19.997        7.421      501.318      143.819        0.082      339.052       12.119      861.665
03/17/2014  01:15:00     -606.959     -244.271       -7.396      320.432      275.626      124.059   102676.351    75969.639    15390.640       31.104        9.702      654.269      139.256        0.045      339.051       12.116      861.645
03/17/2014  01:16:00     -652.481     -321.845      -33.947      246.814      203.756      101.594    60916.940    41516.623    10321.241       32.159        5.638      727.541       96.119        0.017      339.070       12.148      861.625
03/17/2014  01:17:00     -447.430     -333.285       23.597      389.621      277.189      159.095   151804.435    76833.794    25311.267       28.284       12.697      557.918      203.299        0.133      339.082       12.167      861.589
03/17/2014  01:18:00     -497.046     -265.982      -18.069      304.969      251.842      150.770    93005.842    63424.383    22731.661       24.861        8.958      563.739      173.870        0.095      339.086       12.175      861.626
03/17/2014  01:19:00     -690.980     -349.349      -18.653      415.403      319.542      138.908   172560.053   102106.970    19295.487       44.685       14.698      774.273      179.347        0.054      339.074       12.156      861.642
03/17/2014  01:20:00     -455.438     -298.738       -0.197      297.330      241.773      131.562    88405.236    58454.136    17308.610       23.039        8.208      544.673      144.657        0.071      339.075       12.158      861.631
03/17/2014  01:21:00     -786.244     -355.558      -44.663      399.093      306.841      142.637   159275.484    94151.219    20345.194       51.013       13.689      862.903      180.971        0.044      339.069       12.147      861.652
03/17/2014  01:22:00     -487.162     -169.218       13.288      307.175      261.095      144.662    94356.676    68170.400    20927.084       22.476        9.173      515.714      156.738        0.092      339.056       12.124      861.704
03/17/2014  01:23:00     -777.500     -413.018      -11.245      342.946      342.956      149.136   117611.639   117618.867    22241.440       51.629       12.874      880.391      190.305        0.047      339.053       12.119      861.619
03/17/2014  01:24:00     -457.758     -281.711        9.479      280.913      251.086      122.221    78912.028    63044.009    14937.969       22.291        7.845      537.497      148.973        0.077      339.039       12.095      861.680
03/17/2014  01:25:00     -557.155     -245.412        2.193      390.336      254.091      148.062   152362.292    64562.197    21922.336       30.470       11.942      608.809      193.346        0.101      339.007       12.043      861.679
03/17/2014  01:26:00     -512.604     -342.114      -10.455      330.232      306.510      147.564   109053.478    93948.086    21775.099       30.230       11.239      616.283      154.458        0.063      339.008       12.044      861.652
03/17/2014  01:27:00     -604.189     -430.913      -22.684      309.875      230.762      129.422    96022.232    53250.971    16750.065       35.860        8.301      742.112      152.694        0.042      339.009       12.047      861.720
03/17/2014  01:28:00     -984.164     -480.899      -30.653      468.266      398.783      173.270   219272.989   159027.910    30022.489       80.447       20.416     1095.373      219.674        0.040      339.034       12.088      861.606
03/17/2014  01:29:00     -806.264     -239.540      -16.748      397.541      297.950      141.650   158038.953    88774.439    20064.592       48.725       13.344      841.095      181.696        0.047      339.000       12.032      861.691
03/17/2014  01:30:00     -415.555     -162.452       10.158      266.346      231.065      113.234    70940.328    53390.839    12821.942       16.814        6.858      446.180      125.049        0.079      338.970       11.981      861.779
03/17/2014  01:31:00     -712.867     -429.052       -6.633      465.065      316.075      131.877   216285.869    99903.131    17391.579       51.288       16.679      832.025      167.767        0.041      338.934       11.921      861.758
03/17/2014  01:32:00     -754.771     -448.376      -14.767      448.424      356.371      153.701   201083.908   127000.594    23623.921       56.125       17.585      877.907      200.019        0.052      338.936       11.924      861.748
03/17/2014  01:33:00     -576.715     -353.128      -11.985      349.606      308.830      145.225   122224.107    95375.749    21090.421       34.802       11.935      676.239      157.002        0.054      338.922       11.900      861.763
03/17/2014  01:34:00     -770.939     -336.038      -24.471      342.659      255.390      135.273   117415.079    65224.263    18298.849       45.436       10.047      840.992      158.449        0.035      338.932       11.917      861.808
03/17/2014  01:35:00     -752.123     -357.260      -18.421      403.735      276.658      135.378   163001.813    76539.573    18327.197       47.571       12.893      832.660      180.939        0.047      338.944       11.938      861.798
03/17/2014  01:36:00     -785.226     -206.847      -37.803      412.176      330.646      137.742   169888.672   109327.000    18972.970       47.943       14.909      812.014      167.813        0.043      338.925       11.905      861.806
03/17/2014  01:37:00     -584.912     -339.195       -4.418      393.383      306.667      149.656   154750.486    94044.357    22397.032       36.414       13.560      676.147      167.394        0.061      338.918       11.891      861.768
03/17/2014  01:38:00     -734.568     -449.768      -39.745      344.706      258.121      132.518   118822.189    66626.345    17561.077       47.319       10.150      861.325      151.584        0.031      338.899       11.860      861.809
03/17/2014  01:39:00     -714.348     -357.594      -10.366      334.083      287.186      129.790   111611.183    82475.806    16845.353       42.456       10.547      798.853      164.086        0.042      338.885       11.837      861.885
03/17/2014  01:40:00     -549.605     -393.458      -29.650      298.730      284.451      137.693    89239.819    80912.233    18959.437       32.340        9.456      675.925      158.377        0.055      338.880       11.829      861.874
03/17/2014  01:41:00     -560.088     -316.268      -18.217      398.874      244.995      138.181   159100.139    60022.448    19094.055       32.609       11.911      643.214      184.170        0.082      338.881       11.829      861.879
03/17/2014  01:42:00     -603.557     -249.986        0.998      307.899      193.135      109.382    94801.498    37301.166    11964.396       28.539        7.203      653.279      114.322        0.031      338.873       11.816      861.830
03/17/2014  01:43:00     -412.206     -285.679      -18.978      213.921      192.018      116.054    45762.266    36870.982    13468.622       17.397        4.805      501.524      125.127        0.062      338.852       11.781      861.776
03/17/2014  01:44:00     -469.719     -263.741       -9.067      241.371      170.046      100.258    58260.008    28915.531    10051.753       19.373        4.861      538.698      118.245        0.048      338.815       11.720      861.754
03/17/2014  01:45:00     -509.875     -192.586        3.100      332.002      227.087      128.408   110225.076    51568.283    16488.528       23.764        8.914      545.034      156.860        0.083      338.845       11.769      861.739
03/17/2014  01:46:00     -572.681     -278.422       11.626      307.503      231.651      123.356    94558.078    53662.295    15216.777       28.449        8.172      636.775      152.395        0.057      338.845       11.771      861.652
03/17/2014  01:47:00     -684.324     -405.645      -29.830      275.591      242.284      140.973    75950.312    58701.653    19873.466       39.410        7.726      795.516      139.967        0.031      338.847       11.774      861.551
03/17/2014  01:48:00     -354.987     -269.695       -2.462      256.788      174.534      105.021    65940.293    30461.958    11029.334       15.307        5.372      445.815      126.885        0.081      338.822       11.730      861.556
03/17/2014  01:49:00     -394.672     -294.485       -3.264      283.449      252.045      107.891    80343.578    63526.714    11640.453       19.897        7.776      492.430      123.373        0.063      338.847       11.772      861.516
03/17/2014  01:50:00     -463.744     -280.654       -9.718      242.834      221.676      112.166    58968.429    49140.327    12581.198       20.728        6.034      542.056      103.801        0.037      338.848       11.775      861.482
03/17/2014  01:51:00     -556.812     -377.887      -18.018      308.557      224.808      126.501    95207.119    50538.417    16002.612       30.742        8.087      672.933      152.436        0.051      338.850       11.779      861.461
03/17/2014  01:52:00     -647.273     -348.361        6.742      407.691      314.488      142.481   166212.208    98902.612    20300.974       41.283       14.271      735.063      163.363        0.049      338.865       11.803      861.440
03/17/2014  01:53:00     -834.008     -420.641      -30.139      406.391      289.925      138.213   165153.631    84056.514    19102.837       57.081       13.416      934.081      178.055        0.036      338.878       11.825      861.340
03/17/2014  01:54:00     -564.583     -319.644      -10.024      279.985      263.781      112.325    78391.782    69580.362    12616.926       29.078        8.029      648.789      108.738        0.028      338.895       11.854      861.390
03/17/2014  01:55:00     -503.554     -298.241        6.514      268.037      231.939      127.927    71844.057    53795.827    16365.402       24.225        7.100      585.247      150.761        0.066      338.891       11.848      861.371
03/17/2014  01:56:00     -368.134     -209.028        4.342      270.876      250.075      120.294    73373.614    62537.598    14470.670       16.478        7.519      423.338      149.905        0.125      338.858       11.792      861.338
03/17/2014  01:57:00     -519.968     -274.473       -3.686      270.597      203.765      121.916    73222.747    41520.310    14863.459       23.764        6.480      587.964      114.146        0.038      338.821       11.731      861.250
03/17/2014  01:58:00     -525.950     -215.177      -23.803      292.498      214.183      114.809    85555.259    45874.571    13181.044       23.402        7.231      568.264      135.550        0.057      338.823       11.732      861.208
03/17/2014  01:59:00     -556.081     -317.574      -20.638      276.304      255.291      127.470    76343.733    65173.661    16248.525       28.410        7.888      640.374      128.441        0.040      338.822       11.732      861.140
03/17/2014  02:00:00     -680.213     -455.787      -25.326      295.315      220.196      129.521    87210.920    48486.279    16775.800       41.174        7.624      818.799      149.578        0.033      338.849       11.776      861.072
03/17/2014  02:01:00     -556.431     -438.505      -13.775      344.154      293.109      159.282   118442.310    85912.824    25370.781       36.586       11.486      708.451      190.912        0.073      338.842       11.764      861.072
03/17/2014  02:02:00     -505.175     -210.307      -32.843      229.784      158.399       94.828    52800.536    25090.191     8992.397       19.368        4.344      547.203      104.638        0.037      338.812       11.713      861.093
03/17/2014  02:03:00     -355.257     -147.713        5.922      210.441      189.125      104.368    44285.590    35768.319    10892.592       11.949        4.547      384.742      112.992        0.086      338.780       11.662      861.124
03/17/2014  02:04:00     -385.789     -334.987        1.185      241.560      203.132      106.765    58351.411    41262.448    11398.690       18.601        5.551      510.930      116.512        0.052      338.841       11.764      861.095
03/17/2014  02:05:00     -433.419     -216.570        4.000      208.219      227.101      109.876    43355.350    51574.953    12072.776       17.087        5.350      484.514      110.775        0.052      338.826       11.737      861.087
03/17/2014  02:06:00     -458.060     -333.386      -24.468      258.288      182.294       97.455    66712.604    33230.993     9497.454       21.548        5.472      566.538      120.417        0.045      338.821       11.730      861.052
03/17/2014  02:07:00     -374.698     -284.027      -11.992      174.564      142.366       92.654    30472.663    20268.112     8584.738       14.026        2.966      470.181       95.438        0.041      338.801       11.697      860.983
03/17/2014  02:08:00     -313.225     -276.129        8.048      223.893      160.951      109.714    50127.928    25905.265    12037.151       13.123        4.404      417.561      128.746        0.095      338.796       11.688      860.901
03/17/2014  02:09:00     -286.386     -207.275       20.731      185.637      149.317       93.845    34461.023    22295.628     8806.908        9.547        3.278      353.525      108.824        0.095      338.767       11.639      860.814
03/17/2014  02:10:00     -255.642     -215.835        7.244      178.973      148.042       84.514    32031.178    21916.538     7142.675        8.653        3.055      334.571       86.092        0.066      338.774       11.652      860.818
03/17/2014  02:11:00     -365.139     -276.123      -17.768      166.739      118.451       81.324    27801.901    14030.738     6613.668       12.916        2.422      457.789       82.131        0.032      338.789       11.676      860.791
03/17/2014  02:12:00     -391.796     -283.879      -26.433      156.362      115.133       81.566    24448.976    13255.659     6653.062       13.957        2.218      483.830       86.523        0.032      338.793       11.684      860.750
03/17/2014  02:13:00     -337.371     -196.253        3.655      140.076      112.022       71.258    19621.359    12548.905     5077.753        9.479        1.862      390.300       70.238        0.032      338.835       11.753      860.779
03/17/2014  02:14:00     -266.611     -114.033      -13.270      160.735       95.442       51.821    25835.879     9109.207     2685.365        6.094        1.882      289.975       58.483        0.041      338.777       11.656      860.775
03/17/2014  02:15:00     -184.877     -122.372       -2.804       92.347       89.165       51.423     8527.995     7950.369     2644.351        3.414        0.956      221.708       49.896        0.051      338.756       11.620      860.707
03/17/2014  02:16:00     -253.341     -157.258       -7.899      141.882      108.323       67.958    20130.430    11733.785     4618.336        6.272        1.824      298.181       77.468        0.067      338.779       11.661      860.660
03/17/2014  02:17:00     -241.624     -238.612       -0.612      111.276      140.972       62.313    12382.313    19873.114     3882.965        7.572        1.807      339.584       65.669        0.037      338.765       11.635      860.568
03/17/2014  02:18:00     -196.196     -113.114        3.566      136.042       84.717       61.702    18507.392     7176.995     3807.108        4.039        1.475      226.468       72.596        0.103      338.767       11.638      860.444
03/17/2014  02:19:00     -240.169     -249.309      -20.377      108.762      117.833       64.441    11829.189    13884.585     4152.680        7.505        1.493      346.173       57.634        0.028      338.847       11.774      860.486
03/17/2014  02:20:00     -301.578     -168.379       -9.622      139.903      103.398       66.204    19572.831    10691.089     4382.909        7.701        1.732      345.399       67.488        0.038      338.804       11.700      860.469
03/17/2014  02:21:00     -368.418     -272.582      -15.647      184.689      160.068       81.226    34110.132    25621.777     6597.684       13.829        3.316      458.293       90.280        0.039      338.881       11.830      860.429
03/17/2014  02:22:00     -354.275     -162.732       -6.098      151.943      130.663       72.399    23086.734    17072.898     5241.634        9.871        2.270      389.862       74.890        0.037      338.883       11.835      860.375
03/17/2014  02:23:00     -336.454      -69.582        5.263      186.701      123.138       78.984    34857.081    15163.072     6238.408        8.715        2.813      343.574       89.345        0.068      338.956       11.957      860.410
03/17/2014  02:24:00     -250.198     -151.914        1.484      179.083      123.602       73.264    32070.695    15277.426     5367.569        6.919        2.636      292.706       84.859        0.084      338.916       11.890      860.423
03/17/2014  02:25:00     -365.689     -232.672      -22.179      147.316      119.986       65.194    21702.009    14396.753     4250.239       11.434        2.017      433.433       66.132        0.023      338.906       11.874      860.382
03/17/2014  02:26:00     -166.012     -145.409       24.657      156.372      107.027       64.284    24452.130    11454.859     4132.489        4.467        2.002      220.689       85.407        0.150      338.893       11.851      860.306
03/17/2014  02:27:00     -181.949     -157.956        6.149      122.316      134.475       60.042    14961.127    18083.528     3604.996        4.736        1.832      240.947       62.523        0.067      338.884       11.836      860.285
03/17/2014  02:28:00     -204.664     -167.504       -2.160      128.818      156.884       71.628    16594.096    24612.606     5130.596        5.813        2.317      264.471       74.970        0.080      338.919       11.895      860.232
03/17/2014  02:29:00     -204.082     -106.467       -0.614      135.765      111.463       57.936    18432.148    12424.096     3356.619        4.359        1.711      230.184       64.469        0.078      338.912       11.883      860.186
03/17/2014  02:30:00     -202.945     -169.738       -0.532       95.475      112.757       52.912     9115.510    12714.030     2799.696        4.731        1.231      264.571       58.358        0.049      338.905       11.871      860.186
03/17/2014  02:31:00     -233.649     -123.118      -14.688       97.272       81.979       64.586     9461.763     6720.578     4171.313        4.516        1.018      264.102       55.366        0.044      338.906       11.873      860.183
03/17/2014  02:32:00     -240.961     -211.617       -8.750      110.832       64.926       52.613    12283.716     4215.337     2768.168        6.109        0.963      320.693       46.319        0.021      338.903       11.869      860.189
03/17/2014  02:33:00     -170.878     -151.878       -4.895      106.684      133.266       57.649    11381.399    17759.731     3323.379        4.237        1.623      228.618       70.414        0.095      338.893       11.851      860.113
03/17/2014  02:34:00     -214.689     -241.643       -8.790      119.595      106.602       65.931    14302.913    11363.885     4346.879        6.728        1.501      323.238       69.383        0.046      338.986       12.007      860.056
03/17/2014  02:35:00     -278.937     -148.950        3.403      133.147       90.324       55.597    17728.031     8158.454     3090.993        6.448        1.449      316.215       49.691        0.025      338.911       11.883      860.007
03/17/2014  02:36:00     -353.360     -198.127       -7.480      126.371      115.865       64.309    15969.599    13424.703     4135.625        9.884        1.676      405.114       68.559        0.029      338.958       11.961      859.964
03/17/2014  02:37:00     -322.819     -234.465        0.804      171.653      175.344       76.285    29464.912    30745.495     5819.360       11.259        3.301      398.981       84.763        0.045      339.032       12.084      859.934
03/17/2014  02:38:00     -334.909     -246.394       -5.503      220.707      125.160       75.492    48711.554    15665.114     5699.017       12.148        3.504      415.782       92.960        0.050      339.087       12.178      859.862
03/17/2014  02:39:00     -105.161     -122.709       -2.705      118.320       75.508       58.161    13999.639     5701.452     3382.680        2.460        1.154      161.606       51.339        0.101      339.060       12.134      859.826
03/17/2014  02:40:00     -106.695      -87.583       13.864      135.921       80.088       47.729    18474.489     6414.033     2278.097        2.320        1.358      138.038       59.818        0.188      338.947       11.943      859.836
03/17/2014  02:41:00     -156.860      -96.974        2.685      137.153       78.875       52.147    18810.831     6221.241     2719.360        3.088        1.388      184.416       55.251        0.090      338.953       11.954      859.882
03/17/2014  02:42:00     -151.395     -117.960        7.732      110.855      110.688       58.450    12288.722    12251.727     3416.414        3.242        1.398      191.925       60.292        0.099      338.950       11.947      859.915
03/17/2014  02:43:00     -128.614     -160.768       -3.993       96.732      155.201       45.668     9357.105    24087.459     2085.576        3.896        1.777      205.884       52.823        0.066      338.990       12.016      859.946
03/17/2014  02:44:00     -182.469     -153.195        5.094      120.631      108.186       66.540    14551.786    11704.221     4427.530        4.373        1.534      238.251       67.514        0.080      338.967       11.974      860.008
03/17/2014  02:45:00     -226.754     -113.190       -1.713      112.328       99.805       52.806    12617.637     9961.101     2788.434        4.479        1.268      253.435       58.889        0.054      338.892       11.850      860.041
03/17/2014  02:46:00     -171.890     -109.479       -6.777      109.321      105.799       53.732    11951.135    11193.352     2887.104        3.380        1.302      203.793       60.276        0.087      338.945       11.940      860.017
03/17/2014  02:47:00     -302.236     -156.713       -5.067      155.608      147.864       80.149    24213.945    21863.880     6423.851        8.421        2.625      340.449       83.458        0.060      338.999       12.029      859.978
03/17/2014  02:48:00     -120.957     -141.948       17.909      146.392      150.657       75.098    21430.660    22697.509     5639.743        4.242        2.488      186.494       77.718        0.174      339.039       12.097      859.947
03/17/2014  02:49:00     -239.472     -139.012        3.174      131.774      106.603       62.550    17364.470    11364.220     3912.534        5.465        1.632      276.895       61.285        0.049      339.039       12.096      859.877
03/17/2014  02:50:00     -230.696     -117.592       -3.688      146.181      113.747       55.566    21368.788    12938.417     3087.554        5.222        1.870      258.937       64.408        0.062      339.002       12.035      859.874
03/17/2014  02:51:00     -378.600     -265.143        4.134      290.054      212.056      107.009    84131.410    44967.605    11450.904       17.708        7.027      462.211      133.012        0.083      339.061       12.134      859.816
03/17/2014  02:52:00     -407.769     -142.017       -2.226      300.507      187.753       93.569    90304.700    35251.021     8755.064       16.035        6.716      431.792      120.862        0.078      339.124       12.240      859.803
03/17/2014  02:53:00     -351.754     -188.802       -2.527      184.037      181.824       81.487    33869.550    33059.870     6640.159       11.646        3.678      399.220       87.402        0.048      339.127       12.246      859.818
03/17/2014  02:54:00     -407.592     -251.714      -14.618      174.864      153.304       80.547    30577.482    23501.970     6487.873       14.512        3.028      479.053       99.633        0.043      339.202       12.370      859.815
03/17/2014  02:55:00     -495.498     -299.361       -6.990      278.056      226.223      124.807    77315.415    51177.044    15576.909       23.960        7.203      578.909      132.290        0.052      339.228       12.415      859.823
03/17/2014  02:56:00     -386.285     -230.405      -15.773      214.216      122.650       89.797    45888.595    15043.123     8063.448       13.576        3.450      449.780       87.848        0.038      339.219       12.399      859.838
03/17/2014  02:57:00     -334.848     -239.330       -3.054      164.235      158.464       89.751    26973.079    25110.686     8055.216       11.476        3.007      411.585       87.713        0.045      339.229       12.415      859.847
03/17/2014  02:58:00     -293.823     -165.710        5.711      162.694      120.283       79.535    26469.294    14468.118     6325.844        8.053        2.363      337.330       72.919        0.047      339.194       12.358      859.845
03/17/2014  02:59:00     -354.963     -183.869       -7.108      238.483      179.969       94.930    56874.021    32388.809     9011.725       12.905        4.914      399.758      108.097        0.073      339.253       12.456      859.814
03/17/2014  03:00:00     -322.323     -175.514       -5.175      174.494      217.534       94.720    30448.155    47320.833     8971.793       11.071        4.337      367.011      109.679        0.089      339.271       12.486      859.863
03/17/2014  03:01:00     -329.382     -251.812       -0.120      186.253      212.678       91.871    34690.091    45231.791     8440.234       13.011        4.418      414.610       90.530        0.048      339.294       12.524      859.826
03/17/2014  03:02:00     -468.143     -288.643      -15.136      227.389      160.020      106.492    51705.919    25606.539    11340.625       19.566        4.433      549.975      104.562        0.036      339.278       12.498      859.813
03/17/2014  03:03:00     -387.951     -177.391        5.656      274.110      183.212       96.183    75136.318    33566.575     9251.153       14.996        5.898      426.584      125.496        0.087      339.267       12.480      859.788
03/17/2014  03:04:00     -257.425     -130.323       -5.230      152.037      126.625       70.499    23115.318    16033.806     4970.049        6.369        2.206      288.534       65.815        0.052      339.261       12.469      859.762
03/17/2014  03:05:00     -532.113     -300.693      -10.613      220.744      158.496       75.054    48728.063    25121.112     5633.079       22.656        3.974      611.196       85.336        0.019      339.334       12.593      859.678
03/17/2014  03:06:00     -271.693      -85.090        6.098      198.138      140.974       87.605    39258.854    19873.710     7674.682        7.394        3.340      284.706      102.561        0.130      339.334       12.593      859.648
03/17/2014  03:07:00     -268.048     -148.917        1.466      179.531      158.214       66.547    32231.547    25031.789     4428.504        7.785        3.085      306.636       73.656        0.058      339.307       12.546      859.708
03/17/2014  03:08:00     -320.874     -130.722       -6.360      150.418      137.961       71.157    22625.719    19033.256     5063.344        8.340        2.336      346.480       80.948        0.055      339.305       12.544      859.752
03/17/2014  03:09:00     -206.273     -171.171        1.993      130.739      124.044       72.502    17092.704    15386.887     5256.612        5.479        1.887      268.045       74.263        0.077      339.268       12.482      859.750
03/17/2014  03:10:00     -156.157     -151.226       12.056      123.624      106.347       67.789    15282.925    11309.758     4595.384        3.929        1.559      217.381       68.616        0.100      339.240       12.434      859.732
03/17/2014  03:11:00     -373.184     -176.294        4.316      191.707      118.314       68.432    36751.407    13998.136     4682.928       11.289        2.772      412.730       77.141        0.035      339.278       12.498      859.675
03/17/2014  03:12:00     -134.081     -105.857       11.098      122.608      104.749       58.889    15032.779    10972.343     3467.935        2.938        1.474      170.832       68.907        0.163      339.169       12.317      859.657
03/17/2014  03:13:00     -313.751     -188.121       -3.611      221.734      128.886       74.003    49165.987    16611.663     5476.444       10.253        3.563      365.827       92.941        0.065      339.212       12.387      859.670
03/17/2014  03:14:00     -299.555     -216.362        9.076      146.671      155.684       78.106    21512.469    24237.555     6100.487        9.423        2.593      369.521       82.840        0.050      339.254       12.460      859.679
03/17/2014  03:15:00     -234.463     -173.129       15.277      158.381      108.269       79.132    25084.695    11722.258     6261.873        6.412        2.153      291.456       74.056        0.065      339.316       12.562      859.649
03/17/2014  03:16:00     -276.529     -228.494       -2.929      184.330      171.696       88.683    33977.673    29479.372     7864.704        9.999        3.566      358.717       95.768        0.071      339.323       12.574      859.608
03/17/2014  03:17:00     -268.611     -204.493        6.904      211.973      145.835       87.836    44932.509    21267.880     7715.170        9.395        3.696      337.593       92.683        0.075      339.281       12.505      859.562
03/17/2014  03:18:00     -301.288      -92.713      -21.545      176.732      124.451       63.652    31234.310    15488.037     4051.578        7.529        2.539      315.231       87.138        0.076      339.281       12.506      859.514
03/17/2014  03:19:00     -274.352     -149.327       12.912      188.853      183.666       86.127    35665.412    33733.295     7417.785        8.726        3.841      312.358      103.432        0.110      339.278       12.499      859.468
03/17/2014  03:20:00     -449.029     -271.346      -26.829      285.686      198.373      113.171    81616.416    39351.897    12807.703       20.485        6.689      524.648      131.219        0.063      339.331       12.586      859.358
03/17/2014  03:21:00     -297.560     -120.328        2.175      199.164      149.231       94.032    39666.322    22269.827     8841.951        8.689        3.539      320.969      106.191        0.109      339.299       12.534      859.316
03/17/2014  03:22:00     -367.115     -203.289      -13.507      216.094      160.212       93.384    46696.690    25667.741     8720.529       12.867        4.054      419.642      108.313        0.067      339.305       12.544      859.210
03/17/2014  03:23:00     -237.806     -152.681      -12.715      149.814      125.411       73.167    22444.092    15727.801     5353.416        6.177        2.176      282.601       76.664        0.074      339.261       12.471      859.142
03/17/2014  03:24:00     -246.110     -226.662      -12.040      204.569      152.556       73.761    41848.345    23273.224     5440.659        9.131        3.528      334.583       61.990        0.034      339.252       12.455      859.143
03/17/2014  03:25:00     -419.905     -303.767      -13.864      217.156      187.162      106.800    47156.836    35029.791    11406.212       18.117        4.680      518.261      128.940        0.062      339.338       12.598      859.089
03/17/2014  03:26:00     -510.228     -301.723      -11.700      243.884      186.668      112.063    59479.402    34844.928    12558.186       22.917        5.344      592.764      125.205        0.045      339.388       12.683      859.079
03/17/2014  03:27:00     -469.179     -300.554       -2.991      227.003      238.118      118.708    51530.240    56700.119    14091.605       21.637        6.116      557.191      117.849        0.045      339.400       12.705      859.062
03/17/2014  03:28:00     -617.535     -360.548       -1.762      355.803      269.159      134.348   126595.645    72446.424    18049.334       36.418       10.855      715.084      143.594        0.040      339.550       12.958      858.959
03/17/2014  03:29:00     -369.811     -147.324       18.883      362.023      221.833      121.870   131060.386    49209.758    14852.282       17.693        9.756      398.076      139.991        0.124      339.503       12.880      859.004
03/17/2014  03:30:00     -525.725     -317.992       -7.471      240.891      178.463       99.712    58028.601    31848.908     9942.437       23.867        4.991      614.415      107.241        0.030      339.514       12.896      858.965
03/17/2014  03:31:00     -483.449     -210.697       -9.246      297.976      207.988      112.562    88789.651    43258.971    12670.133       21.143        7.236      527.367      130.320        0.061      339.477       12.835      858.935
03/17/2014  03:32:00     -502.699     -156.310      -15.785      252.953      160.584       97.845    63985.279    25787.303     9573.656       18.835        4.967      526.441       97.605        0.034      339.457       12.801      858.936
03/17/2014  03:33:00     -298.971     -250.344       38.682      218.238      193.473      106.682    47627.769    37431.615    11380.947       12.498        4.822      389.944      111.635        0.082      339.401       12.707      858.894
03/17/2014  03:34:00     -358.287     -269.933        8.939      237.275      158.903      104.947    56299.297    25250.122    11013.790       14.692        4.628      448.590      120.014        0.072      339.393       12.692      858.837
03/17/2014  03:35:00     -456.857     -156.865        0.895      206.484      183.199      108.562    42635.776    33561.989    11785.770       16.064        4.399      483.037      105.640        0.048      339.326       12.578      858.830
03/17/2014  03:36:00     -477.652     -270.966        7.645      284.341      237.039      105.917    80849.804    56187.549    11218.325       22.491        7.413      549.158      141.238        0.066      339.291       12.520      858.863
03/17/2014  03:37:00     -455.947     -157.926      -11.446      242.491      186.579       98.411    58801.974    34811.647     9684.739       16.811        5.165      482.523      100.191        0.043      339.270       12.485      858.813
03/17/2014  03:38:00     -471.958     -127.232       -3.670      258.667      218.034      106.040    66908.449    47538.878    11244.517       18.229        6.285      488.807      118.611        0.059      339.273       12.490      858.865
03/17/2014  03:39:00     -486.413     -228.427        0.077      272.856      267.258      123.962    74450.650    71427.076    15366.578       22.498        8.062      537.379      129.079        0.058      339.299       12.533      858.893
03/17/2014  03:40:00     -505.429     -209.268       -5.459      301.293      258.630      120.629    90777.601    66889.698    14551.260       23.572        8.611      547.039      154.752        0.080      339.293       12.525      858.858
03/17/2014  03:41:00     -440.763     -259.563      -11.014      221.899      231.196      105.757    49239.337    53451.484    11184.563       18.780        5.694      511.512      111.920        0.048      339.249       12.450      858.885
03/17/2014  03:42:00     -546.492     -340.809        0.395      373.475      247.350      143.585   139483.901    61181.993    20616.783       31.800       11.064      644.053      171.870        0.071      339.236       12.426      858.818
03/17/2014  03:43:00     -515.798     -451.987       -4.280      291.745      224.953      133.144    85115.047    50604.069    17727.309       31.187        7.672      685.814      153.108        0.050      339.250       12.452      858.699
03/17/2014  03:44:00     -427.855     -168.344        4.800      249.486      203.638      108.465    62243.229    41468.575    11764.583       16.343        5.774      459.782      113.175        0.061      339.176       12.327      858.665
03/17/2014  03:45:00     -420.122     -286.492       -8.746      231.833      202.502       82.629    53746.598    41006.859     6827.622       18.010        5.079      508.508       95.804        0.035      339.171       12.319      858.669
03/17/2014  03:46:00     -640.426     -514.709      -38.364      274.630      253.631      133.699    75421.535    64328.933    17875.445       41.705        7.881      821.627      148.796        0.033      339.159       12.298      858.604
03/17/2014  03:47:00     -716.154     -386.480      -43.051      351.549      327.994      141.571   123586.687   107579.876    20042.256       45.760       12.560      813.784      165.612        0.041      339.130       12.250      858.646
03/17/2014  03:48:00     -684.123     -248.048      -18.319      380.730      277.393      132.232   144955.687    76947.142    17485.205       38.459       11.969      727.703      154.662        0.045      339.077       12.159      858.679
03/17/2014  03:49:00     -645.055     -312.993      -20.595      358.022      269.131      133.665   128179.654    72431.393    17866.333       36.644       10.924      716.980      165.967        0.054      339.078       12.162      858.650
03/17/2014  03:50:00     -542.174     -277.251      -15.232      264.586      257.225      130.441    70005.764    66164.484    17014.785       26.209        7.659      608.951      140.154        0.053      339.053       12.120      858.684
03/17/2014  03:51:00     -653.398     -340.762      -14.443      411.266      291.994      145.284   169139.791    85260.749    21107.330       40.933       13.775      736.918      200.152        0.074      339.030       12.082      858.736
03/17/2014  03:52:00     -621.414     -304.733      -20.133      351.597      258.081      123.634   123620.571    66605.786    15285.486       34.243       10.276      692.111      145.376        0.044      339.011       12.048      858.776
03/17/2014  03:53:00     -544.089     -251.402        2.253      313.549      229.536      119.223    98313.261    52686.557    14214.084       26.219        8.261      599.363      124.418        0.043      338.978       11.994      858.776
03/17/2014  03:54:00     -517.577     -357.932      -24.250      317.219      245.351      114.693   100627.707    60197.238    13154.408       28.525        8.699      629.287      140.190        0.050      338.993       12.020      858.795
03/17/2014  03:55:00     -704.821     -319.127      -19.716      350.170      282.059      133.344   122619.368    79557.239    17780.743       40.944       10.998      773.702      133.272        0.030      339.017       12.059      858.708
03/17/2014  03:56:00     -653.124     -402.099        7.012      340.731      290.205      148.197   116097.901    84219.118    21962.320       40.525       11.114      766.977      157.447        0.042      339.016       12.058      858.725
03/17/2014  03:57:00     -568.821     -303.235      -11.034      347.928      280.611      155.825   121054.108    78742.441    24281.365       31.981       11.204      644.600      190.392        0.087      339.015       12.056      858.735
03/17/2014  03:58:00     -413.761     -234.059      -19.300      255.362      228.571      118.428    65209.939    52244.726    14025.218       17.889        6.574      475.376      136.879        0.083      338.957       11.958      858.778
03/17/2014  03:59:00     -727.259     -381.059      -35.739      310.947      207.120      116.261    96688.328    42898.754    13516.600       41.422        7.655      821.043      139.016        0.029      338.908       11.876      858.790
03/17/2014  04:00:00     -631.526     -265.319       -8.645      384.731      257.245      137.466   148018.076    66175.155    18896.809       35.115       11.655      684.996      164.560        0.058      338.874       11.818      858.761
03/17/2014  04:01:00     -578.591     -266.919      -16.878      304.859      262.813      144.191    92939.215    69070.843    20791.166       29.451        9.140      637.192      153.022        0.058      338.864       11.802      858.825
03/17/2014  04:02:00     -466.585     -321.001       27.565      299.691      203.926      129.213    89814.445    41585.685    16695.963       23.477        7.405      566.342      156.419        0.076      338.867       11.808      858.864
03/17/2014  04:03:00     -521.964     -357.678       -8.382      289.831      212.773      118.240    84001.923    45272.387    13980.635       27.182        7.163      632.756      137.255        0.047      338.856       11.788      858.856
03/17/2014  04:04:00     -431.928     -114.326        2.197      223.260      208.531       86.653    49844.945    43485.056     7508.697       15.022        5.042      446.803       86.468        0.037      338.803       11.701      858.908
03/17/2014  04:05:00     -543.527     -351.135       -8.929      284.942      273.751      127.280    81191.716    74939.662    16200.269       29.553        8.617      647.083      138.202        0.046      338.834       11.752      858.890
03/17/2014  04:06:00     -357.905     -207.099      -14.956      270.884      199.277      108.872    73378.277    39711.414    11853.199       14.805        6.247      413.504      100.290        0.059      338.805       11.704      858.957
03/17/2014  04:07:00     -515.131     -224.624       -9.773      279.124      178.819      106.949    77910.297    31976.139    11438.163       21.859        6.066      561.975      119.407        0.045      338.767       11.639      858.944
03/17/2014  04:08:00     -683.144     -449.128      -37.521      420.529      351.856      151.679   176844.994   123802.466    23006.469       49.667       16.183      817.558      193.662        0.056      338.779       11.660      858.939
03/17/2014  04:09:00     -498.539     -391.290        3.295      341.809      255.323      156.196   116833.280    65189.919    24397.098       30.400       10.321      633.758      177.974        0.079      338.742       11.598      858.926
03/17/2014  04:10:00     -443.099     -342.474      -14.008      316.209      265.088      133.059    99988.386    70271.421    17704.793       25.086        9.398      560.023      149.834        0.072      338.731       11.579      858.947
03/17/2014  04:11:00     -515.183     -272.047       -7.333      290.147      215.563      120.387    84185.559    46467.577    14493.089       24.228        7.257      582.601      141.916        0.059      338.697       11.521      858.975
03/17/2014  04:12:00     -547.727     -280.219       11.815      346.108      230.233      135.288   119790.795    53007.075    18302.762       28.485        9.555      615.246      149.564        0.059      338.686       11.503      858.947
03/17/2014  04:13:00     -650.592     -390.365       -0.083      400.464      309.480      143.349   160371.805    95777.714    20549.013       42.612       13.835      758.719      148.905        0.039      338.669       11.473      858.926
03/17/2014  04:14:00     -490.611     -165.491       -7.762      351.898      229.813      130.019   123832.314    52813.919    16904.864       23.081        9.678      517.771      163.804        0.100      338.623       11.396      859.002
03/17/2014  04:15:00     -585.629     -253.079      -10.237      225.891      219.414      100.761    51026.750    48142.689    10152.679       25.820        5.466      637.974      108.089        0.029      338.599       11.356      859.007
03/17/2014  04:16:00     -541.283     -283.739      -19.610      305.573      258.968      127.131    93374.844    67064.658    16162.266       27.521        8.830      611.143      148.389        0.059      338.606       11.369      859.060
03/17/2014  04:17:00     -553.732     -296.418       -0.610      300.474      215.283      124.753    90284.412    46346.796    15563.414       27.331        7.610      628.078      154.626        0.061      338.584       11.331      859.074
03/17/2014  04:18:00     -475.711     -261.688        2.508      328.265      238.337      114.531   107757.741    56804.579    13117.419       23.620        8.884      542.938      130.965        0.058      338.565       11.298      859.084
03/17/2014  04:19:00     -296.185     -195.473       -8.601      255.037      234.431      115.400    65043.929    54957.898    13317.256       12.964        6.666      354.874      135.328        0.145      338.532       11.245      859.067
03/17/2014  04:20:00     -667.682     -235.788      -35.474      342.350      207.669      141.463   117203.466    43126.487    20011.900       34.146        9.017      708.092      160.753        0.052      338.540       11.257      859.126
03/17/2014  04:21:00     -339.517     -175.489        8.094      279.797      238.793      131.407    78286.593    57021.888    17267.817       14.932        7.629      382.189      155.464        0.165      338.528       11.238      859.131
03/17/2014  04:22:00     -746.831     -373.547      -45.386      347.586      207.653      126.578   120815.850    43119.932    16021.931       43.962        8.998      835.042      139.100        0.028      338.534       11.248      859.171
03/17/2014  04:23:00     -477.795     -211.204      -10.170      283.518      226.987      129.032    80382.350    51523.230    16649.384       21.075        7.428      522.394      125.909        0.058      338.501       11.192      859.242
03/17/2014  04:24:00     -512.225     -190.192      -10.458      264.455      220.806      106.299    69936.232    48755.132    11299.451       21.430        6.500      546.395      124.778        0.052      338.481       11.158      859.321
03/17/2014  04:25:00     -436.483     -240.471      -18.926      239.646      200.784      113.397    57429.989    40314.127    12858.790       17.963        5.530      498.341      127.334        0.065      338.459       11.121      859.333
03/17/2014  04:26:00     -411.555     -146.653      -14.266      265.203      203.986      121.866    70332.589    41610.304    14851.318       15.892        6.340      436.903      117.830        0.073      338.430       11.073      859.363
03/17/2014  04:27:00     -480.524     -203.158      -16.805      309.022      218.976      115.796    95494.333    47950.389    13408.784       21.462        7.843      521.705      149.627        0.082      338.437       11.084      859.334
03/17/2014  04:28:00     -381.470     -160.096       30.155      321.232      232.172      143.549   103189.898    53903.670    20606.401       17.484        8.885      413.703      175.832        0.181      338.413       11.043      859.294
03/17/2014  04:29:00     -252.945     -157.047       35.684      238.658      215.961      136.825    56957.874    46638.949    18721.215       10.609        6.116      297.733      148.232        0.248      338.388       11.003      859.211
03/17/2014  04:30:00     -325.604     -222.562       -3.848      202.972      160.979       89.383    41197.430    25914.117     7989.402       11.532        3.755      394.400       90.706        0.053      338.355       10.947      859.229
03/17/2014  04:31:00     -453.516     -305.864      -16.440      188.805      147.583       89.522    35647.215    21780.829     8014.201       18.246        3.272      547.018       83.522        0.023      338.349       10.936      859.163
03/17/2014  04:32:00     -524.739     -394.686      -13.565      255.488      230.184      105.089    65273.962    52984.576    11043.654       28.028        6.465      656.603      118.996        0.033      338.349       10.937      859.112
03/17/2014  04:33:00     -575.119     -399.402      -12.356      253.800      190.163      121.957    64414.221    36161.879    14873.481       30.292        5.772      700.203      129.917        0.034      338.351       10.941      859.046
03/17/2014  04:34:00     -581.387     -268.995       -2.668      289.726      225.583      114.549    83941.437    50887.751    13121.442       27.913        7.398      640.601      131.287        0.042      338.315       10.880      858.933
03/17/2014  04:35:00     -448.161     -190.752       13.170      281.707      195.123      121.083    79358.944    38073.146    14661.105       18.472        6.605      487.067      125.621        0.067      338.283       10.826      858.832
03/17/2014  04:36:00     -552.269     -378.564      -12.857      290.802      250.122      123.213    84565.752    62561.213    15181.546       30.536        8.115      669.561      145.341        0.047      338.264       10.794      858.781
03/17/2014  04:37:00     -697.498     -439.018      -42.370      287.537      222.219      118.844    82677.776    49381.461    14123.946       41.358        7.309      824.160      125.925        0.023      338.259       10.787      858.699
03/17/2014  04:38:00     -515.053     -249.543      -27.228      262.501      186.734      113.580    68906.596    34869.598    12900.304       22.246        5.834      572.321      134.211        0.055      338.217       10.716      858.742
03/17/2014  04:39:00     -367.330     -103.853       -9.044      132.330      109.668       71.790    17511.104    12027.047     5153.834        9.024        1.735      381.728       61.498        0.026      338.175       10.645      858.775
03/17/2014  04:40:00     -428.511     -276.422      -17.769      234.710      168.619       98.646    55088.646    28432.523     9731.089       17.678        4.663      509.932      122.258        0.057      338.162       10.621      858.799
03/17/2014  04:41:00     -337.658     -177.191       11.846      272.708      172.930       99.279    74369.900    29904.645     9856.281       12.982        5.707      381.326      121.199        0.101      338.108       10.533      858.808
03/17/2014  04:42:00     -310.393     -176.680        3.352      213.489      134.458       90.815    45577.760    18079.079     8247.340        9.972        3.595      357.155      109.549        0.094      338.106       10.529      858.761
03/17/2014  04:43:00     -470.577     -304.922      -12.983      190.090      185.397      105.554    36134.392    34371.952    11141.547       19.810        4.082      560.732      112.787        0.040      338.100       10.519      858.750
03/17/2014  04:44:00     -352.873     -106.818        3.917      148.958      183.426       85.794    22188.471    33645.172     7360.550        9.956        3.160      368.686       85.882        0.054      338.037       10.413      858.784
03/17/2014  04:45:00     -566.228     -201.798      -19.098      312.800      261.675      116.350    97843.565    68473.767    13537.275       27.074        8.993      601.113      145.229        0.058      338.019       10.383      858.791
03/17/2014  04:46:00     -461.818     -268.672      -31.787      203.936      198.846      114.336    41589.895    39539.915    13072.827       19.032        4.710      534.285      105.027        0.039      338.029       10.400      858.775
03/17/2014  04:47:00     -571.781     -263.465      -30.205      263.026      233.148      113.315    69182.557    54357.975    12840.183       26.679        6.819      629.561      111.759        0.032      338.027       10.396      858.781
03/17/2014  04:48:00     -443.468     -259.187        7.535      297.053      229.593      134.572    88240.399    52712.720    18109.522       21.145        7.953      513.656      157.685        0.094      338.033       10.407      858.761
03/17/2014  04:49:00     -582.875     -234.809      -20.206      326.078      218.642      132.421   106326.734    47804.443    17535.221       28.344        8.583      628.394      150.634        0.057      338.040       10.417      858.719
03/17/2014  04:50:00     -400.003     -201.805      -10.526      224.756      214.379      102.023    50515.302    45958.177    10408.726       15.384        5.344      448.026      112.659        0.063      338.001       10.352      858.697
03/17/2014  04:51:00     -504.201     -303.065      -18.843      275.978      271.714      115.996    76163.931    73828.697    13454.982       25.490        8.172      588.274      144.293        0.060      338.009       10.366      858.639
03/17/2014  04:52:00     -400.443     -182.680       15.371      264.680      193.320      114.227    70055.538    37372.653    13047.752       15.720        6.024      440.144      144.290        0.107      337.988       10.331      858.608
03/17/2014  04:53:00     -464.018     -359.493       -3.212      231.312      225.214      101.300    53505.308    50721.465    10261.641       22.950        5.724      586.982       92.876        0.025      337.997       10.347      858.600
03/17/2014  04:54:00     -482.066     -160.812      -10.080      208.884      154.700       94.783    43632.443    23931.977     8983.858       16.743        3.827      508.181      112.250        0.049      337.961       10.288      858.578
03/17/2014  04:55:00     -451.941     -269.918      -11.268      352.629      322.234      120.777   124347.440   103834.879    14586.990       25.995       12.138      526.409      160.437        0.093      337.950       10.267      858.573
03/17/2014  04:56:00     -507.570     -293.951      -19.489      281.366      221.403      109.320    79166.650    49019.240    11950.874       24.225        7.007      586.544      134.574        0.053      337.960       10.284      858.533
03/17/2014  04:57:00     -181.321      -75.371       20.083      191.404      155.671       92.239    36635.575    24233.611     8508.081        5.416        3.469      196.362       96.230        0.240      337.915       10.208      858.524
03/17/2014  04:58:00     -273.684      -51.932      -10.262      161.868      130.862       84.215    26201.388    17124.782     7092.228        6.405        2.521      278.567       71.698        0.066      337.895       10.174      858.478
03/17/2014  04:59:00     -388.972     -142.485       23.283      226.521      178.761       96.085    51311.891    31955.652     9232.250       13.230        4.625      414.247      108.615        0.069      337.879       10.146      858.480
03/17/2014  05:00:00     -392.408     -272.009       -3.189      206.212      156.696       85.718    42523.546    24553.483     7347.577       15.119        3.721      477.465       94.194        0.039      337.873       10.137      858.448
03/17/2014  05:01:00     -521.167     -199.156       -9.516      269.601      223.545      109.873    72684.778    49972.182    12072.120       22.302        6.736      557.923      130.301        0.055      337.843       10.087      858.421
03/17/2014  05:02:00     -592.183     -222.571      -31.442      282.603      250.359      123.177    79864.347    62679.695    15172.595       27.943        7.886      632.628      128.556        0.041      337.853       10.104      858.355
03/17/2014  05:03:00     -474.337     -288.641       -1.446      254.574      236.115      113.983    64807.823    55750.433    12992.165       22.090        6.678      555.256      127.315        0.053      337.858       10.113      858.306
03/17/2014  05:04:00     -639.948      -99.055      -53.738      242.178      223.638      117.183    58650.181    50014.105    13731.965       27.229        6.120      647.569      120.626        0.035      337.850       10.098      858.304
03/17/2014  05:05:00     -363.373      -67.301        1.617      248.144      163.373       89.720    61575.417    26690.678     8049.658       11.642        4.816      369.553      102.243        0.077      337.806       10.025      858.304
03/17/2014  05:06:00     -513.088     -330.977      -29.874      304.365      235.423      130.303    92637.958    55423.897    16978.865       26.934        8.252      610.578      137.445        0.051      337.786        9.993      858.275
03/17/2014  05:07:00     -291.302     -244.089       16.573      275.563      210.200      129.805    75935.156    44184.061    16849.309       14.081        6.848      380.048      157.604        0.172      337.806       10.026      858.204
03/17/2014  05:08:00     -405.812     -344.465        1.170      311.669      240.068      138.786    97137.848    57632.691    19261.462       22.865        8.702      532.297      158.383        0.089      337.786        9.991      858.240
03/17/2014  05:09:00     -548.669     -209.576      -24.066      249.049      229.860      118.074    62025.430    52835.691    13941.461       23.714        6.440      587.332      117.248        0.040      337.760        9.948      858.234
03/17/2014  05:10:00     -476.736     -107.994      -13.932      242.036      227.438       93.648    58581.276    51728.249     8769.857       17.908        5.954      488.815       95.513        0.038      337.743        9.920      858.276
03/17/2014  05:11:00     -405.188     -257.376       -7.998      295.978      229.294      112.046    87602.834    52575.604    12554.244       19.158        7.637      480.020      135.883        0.080      337.723        9.889      858.219
03/17/2014  05:12:00     -551.911     -218.489      -31.658      276.172      243.224      140.131    76271.208    59158.060    19636.697       25.417        7.753      593.585      150.057        0.064      337.719        9.880      858.148
03/17/2014  05:13:00     -385.493      -69.912       -1.820      308.670      189.998      108.961    95277.408    36099.140    11872.487       14.834        7.162      391.781      108.935        0.077      337.708        9.863      858.145
03/17/2014  05:14:00     -413.373     -242.655      -23.109      271.949      234.015      130.947    73956.313    54762.848    17147.090       18.805        7.293      479.331      142.520        0.088      337.721        9.882      858.099
03/17/2014  05:15:00     -433.646     -353.239       -9.264      290.905      220.162      117.129    84625.516    48471.140    13719.162       22.984        7.341      559.310      138.793        0.062      337.701        9.850      858.163
03/17/2014  05:16:00     -525.663     -235.456      -20.149      321.070      207.827      105.161   103085.753    43192.076    11058.780       24.472        7.867      575.987      127.274        0.049      337.691        9.833      858.180
03/17/2014  05:17:00     -422.650     -164.701      -17.188      253.520      195.091      113.351    64272.616    38060.515    12848.434       16.060        5.759      453.607      135.829        0.090      337.678        9.811      858.151
03/17/2014  05:18:00     -457.348     -122.355      -41.911      212.422      214.388      102.516    45123.290    45962.011    10509.562       16.372        5.080      473.432      102.591        0.047      337.661        9.782      858.139
03/17/2014  05:19:00     -736.802     -211.974       -8.908      336.871      231.692      135.213   113482.310    53681.237    18282.542       38.663        9.272      766.688      163.310        0.045      337.676        9.810      858.139
03/17/2014  05:20:00     -640.559     -147.323      -30.010      337.852      263.433      138.254   114143.666    69397.136    19114.244       31.775       10.133      657.282      160.757        0.060      337.684        9.821      858.196
03/17/2014  05:21:00     -750.054     -277.702      -39.230      345.145      247.310      128.326   119125.376    61162.205    16467.463       41.896        9.838      799.812      144.937        0.033      337.682        9.818      858.216
03/17/2014  05:22:00     -496.234     -131.688      -38.068      173.696      218.076       79.865    30170.195    47557.269     6378.340       17.456        4.205      513.410       84.263        0.027      337.664        9.788      858.302
03/17/2014  05:23:00     -613.532     -152.074      -55.019      249.244      254.069      101.403    62122.534    64551.289    10282.620       26.974        6.848      632.098      109.108        0.030      337.634        9.738      858.312
03/17/2014  05:24:00     -489.966     -144.844       -9.793      216.187      256.768      115.071    46736.965    65930.046    13241.294       19.350        6.295      510.927      119.087        0.054      337.644        9.756      858.311
03/17/2014  05:25:00     -308.072      -97.182        9.163      212.953      168.294      103.268    45349.101    28322.900    10664.282        9.437        4.217      323.037      102.143        0.100      337.625        9.723      858.376
03/17/2014  05:26:00     -412.337     -120.469      -13.308      188.229      229.626       93.234    35430.043    52727.894     8692.575       14.076        4.843      429.575      104.720        0.059      337.594        9.671      858.405
03/17/2014  05:27:00     -405.432     -121.952      -21.325      291.025      200.814      109.272    84695.461    40326.255    11940.400       15.830        6.848      423.376      140.166        0.110      337.580        9.647      858.408
03/17/2014  05:28:00     -308.733     -102.484       16.936      348.910      208.311      129.623   121737.895    43393.285    16802.155       14.398        9.097      325.299      140.409        0.186      337.606        9.690      858.410
03/17/2014  05:29:00     -353.872     -129.496       11.176      230.774      185.712      109.773    53256.408    34488.997    12050.098       12.094        4.990      376.822      105.484        0.078      337.644        9.755      858.420
03/17/2014  05:30:00     -624.662      -77.111      -38.708      263.074      157.952       95.820    69207.987    24948.710     9181.391       25.047        5.167      629.404      115.848        0.034      337.570        9.630      858.449
03/17/2014  05:31:00     -616.953     -127.705       10.174      245.742      207.665      105.325    60389.044    43124.725    11093.351       25.580        5.730      630.032      117.406        0.035      337.558        9.610      858.374
03/17/2014  05:32:00     -659.806      -85.912      -28.147      391.952      261.193      134.873   153626.444    68221.862    18190.693       34.173       12.002      665.376      175.155        0.069      337.588        9.660      858.288
03/17/2014  05:33:00     -729.139     -125.726      -54.140      325.242      314.018      146.850   105782.337    98607.363    21564.884       38.812       11.298      739.899      148.637        0.040      337.569        9.626      858.210
03/17/2014  05:34:00     -712.058      -91.438      -26.553      370.747      276.867      126.870   137453.380    76655.118    16096.010       37.310       11.510      717.905      152.879        0.045      337.567        9.625      858.123
03/17/2014  05:35:00     -569.962     -122.656      -24.311      322.983      210.773      136.368   104318.148    44425.088    18596.282       25.388        8.367      583.011      147.181        0.064      337.554        9.602      858.051
03/17/2014  05:36:00     -598.686     -175.335       -5.860      365.319      261.496      154.928   133458.245    68380.072    24002.788       30.748       11.292      623.833      190.540        0.093      337.551        9.597      857.974
03/17/2014  05:37:00     -576.924     -131.071      -12.343      396.942      271.492      153.799   157562.671    73707.803    23654.045       30.250       12.746      591.626      190.197        0.103      337.530        9.562      857.892
03/17/2014  05:38:00     -764.401     -365.760      -21.816      437.566      302.537      185.053   191464.261    91528.842    34244.663       51.784       15.862      847.402      198.632        0.055      337.530        9.562      857.758
03/17/2014  05:39:00     -877.900     -212.848      -55.464      413.369      382.114      166.470   170873.570   146010.869    27712.163       58.177       17.230      903.335      175.487        0.038      337.545        9.588      857.740
03/17/2014  05:40:00     -661.478     -227.957      -14.586      414.635      296.955      151.221   171922.197    88182.422    22867.727       38.630       14.149      699.656      198.533        0.081      337.520        9.544      857.724
03/17/2014  05:41:00     -874.848     -409.818      -27.421      423.110      319.639      198.022   179022.058   102169.171    39212.844       62.717       16.020      966.080      206.102        0.046      337.515        9.537      857.616
03/17/2014  05:42:00     -525.052     -298.955      -20.076      385.348      298.938      169.032   148493.152    89363.639    28571.935       31.589       13.321      604.196      195.534        0.105      337.547        9.591      857.645
03/17/2014  05:43:00     -526.234     -136.047        2.821      357.769      253.992      147.035   127998.979    64511.800    21619.321       25.474       10.707      543.536      189.457        0.121      337.498        9.509      857.584
03/17/2014  05:44:00     -611.421     -145.984      -26.456      300.520      238.503      142.224    90312.106    56883.588    20227.541       28.160        8.371      628.607      161.051        0.066      337.466        9.454      857.594
03/17/2014  05:45:00     -577.548     -226.471      -18.357      347.092      294.949      151.373   120472.681    86994.634    22913.656       30.774       11.519      620.364      149.894        0.058      337.456        9.437      857.528
03/17/2014  05:46:00     -600.768     -262.804        6.986      413.426      409.996      170.011   170921.117   168096.614    28903.768       39.891       18.396      655.735      188.139        0.082      337.440        9.412      857.388
03/17/2014  05:47:00     -628.436     -304.915        0.489      399.352      345.792      177.244   159481.786   119572.185    31415.360       39.912       15.523      698.502      206.765        0.088      337.454        9.436      857.306
03/17/2014  05:48:00     -610.762     -415.264      -32.715      386.962      335.560      170.963   149739.510   112600.340    29228.360       41.900       14.578      738.562      204.692        0.077      337.460        9.445      857.196
03/17/2014  05:49:00     -643.378     -300.988      -29.482      421.099      277.796      168.234   177324.649    77170.713    28302.709       39.404       14.140      710.302      184.446        0.067      337.469        9.462      857.130
03/17/2014  05:50:00     -870.911     -474.595      -20.726      455.265      427.760      189.374   207266.402   182978.300    35862.425       70.505       21.305      991.829      201.404        0.041      337.473        9.468      857.032
03/17/2014  05:51:00     -848.820     -456.024      -28.861      430.605      300.681      163.201   185420.998    90409.252    26634.407       61.582       15.123      963.563      201.223        0.044      337.452        9.432      857.073
03/17/2014  05:52:00     -722.655     -325.499      -40.071      380.507      328.475      176.407   144785.269   107895.571    31119.420       45.674       14.190      792.578      180.653        0.052      337.411        9.363      857.104
03/17/2014  05:53:00     -651.666     -288.535      -45.962      438.821      330.516      169.273   192564.278   109240.902    28653.232       42.018       16.523      712.686      205.162        0.083      337.392        9.333      857.091
03/17/2014  05:54:00     -697.731     -347.366       -1.309      384.272      335.777      170.966   147664.728   112746.484    29229.347       44.851       14.482      779.418      182.973        0.055      337.383        9.317      857.166
03/17/2014  05:55:00     -709.991     -268.240      -12.286      410.767      298.053      168.862   168729.918    88835.698    28514.406       43.108       14.304      758.973      172.722        0.052      337.367        9.291      857.097
03/17/2014  05:56:00     -660.868     -134.753        6.973      425.333      296.728      161.573   180908.276    88047.323    26105.967       37.495       14.753      674.467      190.392        0.080      337.305        9.187      857.036
03/17/2014  05:57:00     -545.982     -344.793        5.411      401.079      355.537      174.019   160864.000   126406.854    30282.474       36.722       15.878      645.739      185.461        0.082      337.332        9.229      857.007
03/17/2014  05:58:00     -677.651     -246.789      -16.229      383.083      278.654      140.480   146752.714    77648.002    19734.710       38.221       12.207      721.190      186.315        0.067      337.354        9.268      857.068
03/17/2014  05:59:00     -360.720     -244.435        5.699      414.292      262.558      158.974   171637.986    68936.752    25272.593       22.782       13.292      435.738      176.395        0.164      337.350        9.262      857.062
03/17/2014  06:00:00     -540.457     -359.579       -9.696      399.522      337.794      154.019   159617.588   114104.849    23721.709       35.940       14.872      649.146      201.148        0.096      337.344        9.253      856.985
03/17/2014  06:01:00     -793.263     -386.094      -24.369      399.234      339.796      174.182   159387.868   115461.079    30339.428       54.200       15.259      882.233      194.239        0.048      337.327        9.224      856.843
03/17/2014  06:02:00     -804.509     -287.060      -24.387      421.161      358.566      156.394   177376.337   128569.833    24459.008       53.025       16.520      854.189      183.655        0.046      337.288        9.158      856.853
03/17/2014  06:03:00     -661.860     -409.521        1.003      454.358      439.079      187.831   206441.115   192790.676    35280.328       52.005       21.726      778.310      221.545        0.081      337.250        9.095      856.785
03/17/2014  06:04:00     -695.591     -368.025      -33.072      417.765      298.760      178.829   174527.576    89257.764    31979.767       45.802       14.788      786.950      199.262        0.064      337.244        9.085      856.728
03/17/2014  06:05:00     -569.816     -263.356       -5.689      344.925      253.202      140.513   118972.998    64111.419    19743.863       29.841       10.141      627.731      144.528        0.053      337.245        9.088      856.798
03/17/2014  06:06:00     -606.971     -368.232        4.753      456.434      317.593      185.151   208331.973   100865.033    34280.820       42.369       17.174      709.935      226.935        0.102      337.222        9.048      856.727
03/17/2014  06:07:00     -724.247     -193.690       -6.773      376.590      337.484      176.733   141820.258   113895.113    31234.532       42.447       14.347      749.700      205.372        0.075      337.242        9.081      856.705
03/17/2014  06:08:00     -431.642     -271.241        7.776      390.209      302.761      161.699   152262.743    91664.374    26146.588       26.496       13.504      509.790      152.751        0.090      337.207        9.023      856.793
03/17/2014  06:09:00     -602.222     -306.905      -19.565      302.642      256.635      137.940    91592.387    65861.397    19027.397       31.683        8.824      675.915      134.953        0.040      337.172        8.964      856.837
03/17/2014  06:10:00     -706.785     -372.450      -36.796      306.285      272.454      140.184    93810.558    74231.180    19651.648       41.362        9.385      798.914      142.906        0.032      337.138        8.907      856.916
03/17/2014  06:11:00     -631.996     -285.585       -2.172      352.710      278.496      138.723   124404.424    77559.902    19244.103       35.105       11.060      693.526      172.916        0.062      337.113        8.865      857.040
03/17/2014  06:12:00     -467.468     -268.029       -5.879      361.531      297.355      164.938   130704.750    88420.118    27204.553       26.832       12.316      538.857      185.079        0.118      337.119        8.874      857.147
03/17/2014  06:13:00     -440.062     -178.389        8.699      289.715      224.567      120.934    83934.683    50430.386    14625.088       18.724        7.450      474.844      132.863        0.078      337.095        8.834      857.241
03/17/2014  06:14:00     -460.383     -166.646      -25.622      294.357      169.294       91.187    86646.287    28660.581     8315.026       18.198        6.181      489.615      115.034        0.055      337.118        8.873      857.347
03/17/2014  06:15:00     -182.444     -121.739        9.129      286.009      203.622      111.350    81801.057    41461.958    12398.920        9.190        6.783      219.331      128.214        0.342      337.102        8.846      857.424
03/17/2014  06:16:00     -277.895     -103.014      -17.076      205.837      138.660       79.833    42369.073    19226.595     6373.385        7.804        3.398      296.374       77.898        0.069      337.115        8.869      857.503
03/17/2014  06:17:00     -582.494      -76.465      -48.104      307.013      289.703      146.841    94257.022    83927.688    21562.340       27.356        9.987      587.492      135.012        0.053      337.157        8.940      857.508
03/17/2014  06:18:00     -895.504     -144.530      -59.708      373.480      294.964      143.376   139487.384    87003.962    20556.743       53.666       12.352      907.092      173.343        0.037      337.150        8.927      857.515
03/17/2014  06:19:00     -435.683     -128.913      -12.389      336.153      201.677      125.304   112998.516    40673.574    15700.994       18.795        8.469      454.355      158.582        0.122      337.149        8.927      857.630
03/17/2014  06:20:00     -333.639     -140.015       17.135      261.199      211.088      104.847    68224.880    44558.089    10992.981       12.747        6.189      361.827      108.153        0.089      337.137        8.904      857.695
03/17/2014  06:21:00     -611.832     -207.230      -19.129      372.051      263.350      137.973   138422.004    69353.140    19036.553       32.218       11.341      645.974      148.702        0.053      337.128        8.890      857.682
03/17/2014  06:22:00     -500.784      -24.590      -31.887      266.651      237.824      105.591    71102.650    56560.323    11149.521       19.558        6.941      501.387      121.307        0.059      337.096        8.836      857.752
03/17/2014  06:23:00     -660.861      -69.118      -41.582      333.228      215.649      112.587   111040.758    46504.574    12675.731       30.670        8.511      664.466      132.635        0.040      337.053        8.764      857.757
03/17/2014  06:24:00     -522.296     -135.595      -18.517      327.614      246.631      119.341   107330.664    60826.987    14242.298       23.692        9.120      539.610      131.384        0.059      337.055        8.767      857.757
03/17/2014  06:25:00     -435.329     -108.514       -6.622      269.538      190.463      101.935    72650.895    36276.127    10390.699       16.030        5.966      448.649      133.566        0.089      337.037        8.737      857.795
03/17/2014  06:26:00     -819.372     -197.762      -39.171      391.965      300.205      144.226   153636.916    90123.163    20801.272       48.824       13.228      842.900      177.639        0.044      337.081        8.811      857.742
03/17/2014  06:27:00     -548.531      -19.484       -8.635      281.418      199.768      116.309    79196.323    39907.182    13527.851       21.696        6.632      548.877      133.198        0.059      337.066        8.785      857.767
03/17/2014  06:28:00     -380.081     -136.491       -6.149      203.196      216.004      107.765    41288.541    46657.606    11613.354       13.132        4.978      403.846      103.067        0.065      337.060        8.774      857.819
03/17/2014  06:29:00     -595.467     -123.079      -12.702      378.974      230.362      121.224   143621.332    53066.635    14695.229       29.060       10.569      608.054      149.389        0.060      337.064        8.782      857.839
03/17/2014  06:30:00     -547.383     -161.091       -2.974      298.346      200.824       94.306    89010.115    40330.262     8893.619       23.188        6.912      570.595      110.723        0.038      337.040        8.741      857.928
03/17/2014  06:31:00     -331.198      -99.382      -23.740      216.475      157.215       94.341    46861.423    24716.585     8900.151       10.029        4.024      345.788      108.317        0.098      337.026        8.718      858.013
03/17/2014  06:32:00     -434.266     -120.647      -33.764      265.917      215.362      104.259    70711.768    46380.870    10870.025       16.610        6.398      450.713      124.336        0.076      337.026        8.718      858.079
03/17/2014  06:33:00     -280.751       21.930      -23.770      224.649      160.580       90.249    50467.181    25785.890     8144.903        8.212        4.220      281.606       80.435        0.082      337.021        8.711      858.130
03/17/2014  06:34:00     -132.524      -26.733       25.586      161.709      127.756       83.040    26149.897    16321.577     6895.645        3.414        2.468      135.193       71.639        0.281      337.041        8.745      858.145
03/17/2014  06:35:00     -439.055       75.660      -16.828      320.208      159.717      111.731   102533.005    25509.529    12483.857       16.962        7.026      445.526      144.963        0.106      337.015        8.699      858.230
03/17/2014  06:36:00     -474.970       37.882      -31.936      341.272      211.619      117.557   116466.413    44782.590    13819.543       20.153        8.753      476.479      162.245        0.116      337.025        8.717      858.311
03/17/2014  06:37:00     -337.509      -77.056      -10.532      247.611      163.874       90.811    61311.436    26854.845     8246.578       10.817        4.821      346.193       88.073        0.065      337.019        8.706      858.420
03/17/2014  06:38:00     -307.336       67.061      -23.360      137.819      137.953       75.596    18994.131    19030.995     5714.827        7.161        2.187      314.567       40.700        0.017      337.012        8.695      858.541
03/17/2014  06:39:00     -283.482      -14.265       -9.202      229.147      242.460       86.974    52508.560    58786.940     7564.500        9.973        5.943      283.841       99.108        0.122      336.994        8.666      858.641
03/17/2014  06:40:00     -265.842      146.525      -35.872      196.651      280.135       70.484    38671.622    78475.733     4968.025       10.775        6.106      303.548       84.242        0.077      336.985        8.651      858.723
03/17/2014  06:41:00     -259.817       50.581      -27.130      212.090      140.776       70.381    44982.248    19817.787     4953.418        7.026        3.488      264.695       77.625        0.086      336.999        8.673      858.811
03/17/2014  06:42:00       62.697      218.257      -15.196       71.103      129.336       67.514     5055.623    16727.800     4558.149        3.906        1.317      227.083       73.644        0.105      336.932        8.561      858.865
03/17/2014  06:43:00     -230.429      250.155      -47.778      214.770      134.858       70.173    46126.172    18186.736     4924.301        9.358        3.462      340.110       74.663        0.048      336.968        8.620      858.971
03/17/2014  06:44:00     -250.601       86.381       -8.581      265.074      243.199       86.793    70264.037    59145.701     7533.006       10.361        6.847      265.071       79.668        0.090      337.002        8.680      858.969
03/17/2014  06:45:00       33.426      281.726      -12.923       86.018      177.556       89.370     7399.140    31526.115     7986.915        6.377        2.346      283.702       93.886        0.110      336.909        8.522      859.048
03/17/2014  06:46:00      104.320       99.838       22.018       76.538       75.767       54.340     5858.072     5740.679     2952.796        1.794        0.728      144.396       39.085        0.073      336.904        8.517      859.069
03/17/2014  06:47:00     -136.170       56.337        2.510      102.903      113.525       48.041    10588.942    12887.892     2307.974        2.375        1.289      147.364       38.420        0.068      336.926        8.553      859.187
03/17/2014  06:48:00       -6.229       81.892        9.312      108.760      156.408       62.455    11828.707    24463.545     3900.577        2.350        2.010       82.129       50.389        0.376      336.924        8.551      859.273
03/17/2014  06:49:00      -46.996      290.846      -35.591       93.628      104.110       60.991     8766.228    10838.804     3719.938        5.569        1.166      294.619       60.701        0.042      336.981        8.644      859.336
03/17/2014  06:50:00       34.924      210.824      -30.236      111.884      154.072       54.501    12518.090    23738.299     2970.319        4.290        1.961      213.697       56.679        0.070      336.939        8.574      859.401
03/17/2014  06:51:00      -23.806      114.603        3.585       71.160       98.429       47.510     5063.684     9688.279     2257.235        1.536        0.850      117.049       40.696        0.121      336.904        8.517      859.428
03/17/2014  06:52:00      -83.037      337.242      -39.402       76.451      113.958       57.693     5844.737    12986.444     3328.535        7.217        1.108      347.314       50.815        0.021      336.903        8.513      859.415
03/17/2014  06:53:00      -16.938      265.144      -32.453       54.024       97.401       40.914     2918.549     9486.885     1673.971        4.286        0.704      265.684       43.049        0.026      336.949        8.590      859.442
03/17/2014  06:54:00      -35.984      166.529      -22.757       66.627      110.071       32.438     4439.186    12115.666     1052.208        2.357        0.880      170.373       36.094        0.045      336.915        8.534      859.471
03/17/2014  06:55:00      141.234      188.079      154.016      134.764      116.318      112.772    18161.435    13529.943    12717.518        6.172        2.220      235.204       93.695        0.159      336.853        8.430      859.366
03/17/2014  06:56:00      124.737      152.224      113.045      129.304      110.514      131.438    16719.487    12213.319    17276.030        4.885        2.310      196.803      108.208        0.302      336.788        8.321      859.306
03/17/2014  06:57:00       68.937      160.712       -9.693       71.448      107.597       62.579     5104.757    11577.031     3916.100        2.563        1.030      174.873       62.292        0.127      336.722        8.213      859.423
03/17/2014  06:58:00      218.887      138.486       26.280      138.689       93.816       74.800    19234.513     8801.492     5595.115        5.070        1.682      259.017       35.204        0.018      336.687        8.155      859.390
03/17/2014  06:59:00       54.994      236.653      -18.345      104.198      173.612       67.444    10857.278    30141.220     4548.734        5.245        2.277      242.959       75.826        0.097      336.777        8.304      859.375
03/17/2014  07:00:00       35.362      243.698      -13.979       86.738      150.172       58.390     7523.456    22551.582     3409.386        4.715        1.674      246.250       69.108        0.079      336.834        8.400      859.374
03/17/2014  07:01:00      119.737      202.340       -8.329      106.623      135.739       84.573    11368.481    18424.979     7152.647        4.614        1.847      235.113       77.596        0.109      336.844        8.415      859.391
03/17/2014  07:02:00      113.933      151.648        2.406      110.141       83.004       57.253    12131.076     6889.592     3277.927        2.914        1.115      189.678       34.678        0.033      336.943        8.581      859.393
03/17/2014  07:03:00      184.871      127.241       10.797       88.675       73.409       53.266     7863.230     5388.878     2837.297        3.328        0.804      224.427       46.195        0.042      336.869        8.457      859.384
03/17/2014  07:04:00       70.155      163.331        6.745       87.711      120.184       66.836     7693.244    14444.174     4467.112        2.912        1.330      177.760       72.577        0.167      336.798        8.340      859.415
03/17/2014  07:05:00       31.448      279.980      -23.525      113.930      125.504       53.987    12980.053    15751.141     2914.559        5.578        1.582      281.740       59.434        0.045      336.858        8.437      859.437
03/17/2014  07:06:00     -147.887      244.416      -21.834       98.549      114.253       56.174     9711.814    13053.647     3155.478        5.400        1.296      285.674       62.876        0.048      336.875        8.466      859.468
03/17/2014  07:07:00     -133.970      183.237      -38.555       88.874       79.813       47.680     7898.644     6370.098     2273.387        3.477        0.827      226.989       43.810        0.037      336.878        8.473      859.516
03/17/2014  07:08:00      -56.621      252.975      -32.906      109.208      133.374       58.875    11926.344    17788.700     3466.324        5.073        1.659      259.234       59.385        0.052      336.864        8.447      859.534
03/17/2014  07:09:00     -125.027      272.292      -44.814       95.943      104.036       55.466     9205.104    10823.403     3076.502        5.744        1.155      299.624       50.471        0.028      336.893        8.495      859.557
03/17/2014  07:10:00      -27.053      377.013      -43.277       72.680      104.182       41.213     5282.407    10853.841     1698.496        8.129        0.892      377.983       34.927        0.009      336.906        8.519      859.594
03/17/2014  07:11:00      -33.694      275.613      -22.216       83.317      101.663       49.295     6941.748    10335.357     2430.004        4.865        0.985      277.665       51.288        0.034      336.830        8.393      859.603
03/17/2014  07:12:00      115.991      106.195       12.315      113.125       73.296       56.870    12797.306     5372.243     3234.196        2.314        1.070      157.262       29.069        0.034      336.819        8.376      859.561
03/17/2014  07:13:00       69.829      245.382      -29.714      148.305      167.578       70.588    21994.451    28082.403     4982.736        6.050        2.753      255.125       66.130        0.067      336.743        8.247      859.584
03/17/2014  07:14:00     -105.130      386.114      -32.901      133.841      197.021      103.043    17913.461    38817.311    10617.793       11.427        3.367      400.170       91.198        0.052      336.820        8.375      859.619
03/17/2014  07:15:00     -186.432      300.601      -45.103      106.456      108.943       68.079    11332.939    11868.552     4634.746        7.749        1.392      353.720       66.266        0.035      336.823        8.380      859.687
03/17/2014  07:16:00     -195.313      129.321      -30.241       81.910      101.400       53.651     6709.210    10281.932     2878.432        3.782        0.993      234.246       27.253        0.014      336.786        8.319      859.765
03/17/2014  07:17:00     -285.907      -51.294       -6.096      149.038      107.693       54.105    22212.456    11597.817     2927.306        6.057        1.837      290.472       61.465        0.045      336.809        8.357      859.833
03/17/2014  07:18:00     -308.354      -78.789       -6.575      139.502      128.286       69.811    19460.927    16457.277     4873.640        7.105        2.040      318.260       58.604        0.034      336.828        8.388      859.857
03/17/2014  07:19:00      -50.031       39.976        1.442      113.129      102.049       43.314    12798.090    10413.992     1876.098        1.459        1.254       64.041       26.273        0.168      336.869        8.459      859.903
03/17/2014  07:20:00      -40.376      108.710       -9.048       62.282      144.157       54.354     3879.000    20781.296     2954.395        2.057        1.381      115.966       64.571        0.310      336.964        8.617      859.940
03/17/2014  07:21:00     -240.295      -98.685      -18.123       61.644       67.116       35.603     3799.933     4504.499     1267.577        3.869        0.479      259.770       22.098        0.007      336.937        8.568      859.990
03/17/2014  07:22:00     -192.357      -38.014       -0.271       70.958       54.029       34.211     5035.064     2919.185     1170.360        2.378        0.456      196.077       38.038        0.038      336.945        8.582      860.073
03/17/2014  07:23:00     -221.510      -72.322       -8.527       59.780       54.424       27.339     3573.699     2961.986      747.409        3.083        0.364      233.017       23.997        0.011      336.922        8.543      860.138
03/17/2014  07:24:00     -261.455      -80.789      -12.558       58.917       61.629       34.647     3471.208     3798.141     1200.447        4.175        0.423      273.653       30.910        0.013      336.889        8.488      860.209
03/17/2014  07:25:00     -214.216       14.142       -3.678       61.057       67.264       41.325     3727.970     4524.414     1707.743        2.803        0.498      214.682       35.665        0.028      336.853        8.429      860.307
03/17/2014  07:26:00     -116.768      -20.218       -0.077       67.651       54.036       27.952     4576.608     2919.935      781.311        1.116        0.414      118.506       29.638        0.063      336.852        8.433      860.361
03/17/2014  07:27:00      106.460       77.804       16.687       57.390       45.145       49.006     3293.668     2038.031     2401.601        1.270        0.387      131.861       23.942        0.033      336.981        8.646      860.285
03/17/2014  07:28:00       64.393      106.223        7.989       65.407       61.406       65.621     4278.106     3770.702     4306.119        1.392        0.618      124.217       36.264        0.085      337.038        8.741      860.169
03/17/2014  07:29:00       74.296       61.547       29.004       66.937       44.233       56.919     4480.511     1956.545     3239.738        0.991        0.484       96.478       38.623        0.160      337.067        8.791      860.141
03/17/2014  07:30:00        6.053      101.528       -8.106       47.544       54.224       31.181     2260.457     2940.220      972.246        0.829        0.309      101.708       33.639        0.109      337.051        8.763      860.169
03/17/2014  07:31:00       32.796        4.171        2.337       27.165       57.572       27.627      737.918     3314.528      763.251        0.296        0.241       33.060       28.071        0.721      337.079        8.809      860.189
03/17/2014  07:32:00     -171.838      -35.869       -3.662       81.173       70.323       32.705     6589.089     4945.325     1069.615        2.171        0.630      175.542       32.360        0.034      337.063        8.783      860.206
03/17/2014  07:33:00     -210.621      -79.573       -7.356       53.559       43.385       27.621     2868.569     1882.232      762.895        2.813        0.276      225.152       18.793        0.007      337.027        8.721      860.245
03/17/2014  07:34:00     -197.130      -67.137        5.079       63.630       50.692       29.323     4048.785     2569.653      859.845        2.543        0.374      208.249       26.994        0.017      336.960        8.607      860.253
03/17/2014  07:35:00     -184.761      -37.065       -8.363       59.901       53.665       31.675     3588.172     2879.972     1003.308        2.152        0.374      188.442       27.483        0.021      336.956        8.602      860.255
03/17/2014  07:36:00     -145.768      -60.835       -2.030       71.886       54.347       33.738     5167.606     2953.561     1138.252        1.710        0.463      157.953       23.152        0.021      336.981        8.645      860.263
03/17/2014  07:37:00     -164.000      -99.985       -7.155       87.143       63.900       46.526     7593.883     4083.167     2164.672        2.539        0.692      192.076       39.849        0.043      336.969        8.623      860.311
03/17/2014  07:38:00     -230.392     -155.842       -5.959      121.175       81.206       52.738    14683.299     6594.482     2781.261        5.073        1.203      278.150       56.629        0.041      336.954        8.598      860.329
03/17/2014  07:39:00     -152.319      -84.106        0.030       82.444       50.240       34.602     6796.943     2524.011     1197.324        2.039        0.526      173.997       37.345        0.046      336.941        8.578      860.330
03/17/2014  07:40:00      -90.581      -78.026       11.222       57.371       45.976       33.859     3291.424     2113.767     1146.437        1.048        0.328      119.553       29.868        0.062      336.976        8.638      860.324
03/17/2014  07:41:00      -94.787      -80.729        5.047       62.526       50.835       35.657     3909.557     2584.204     1271.387        1.164        0.388      124.506       30.311        0.059      336.984        8.650      860.292
03/17/2014  07:42:00     -149.533      -95.180        0.879       67.084       65.258       37.231     4500.303     4258.639     1386.114        2.078        0.507      177.255       38.695        0.048      336.949        8.590      860.279
03/17/2014  07:43:00     -194.128     -114.155        3.370       78.970       55.737       39.302     6236.301     3106.602     1544.632        3.081        0.544      225.204       38.288        0.029      336.941        8.576      860.286
03/17/2014  07:44:00     -132.399      -68.430        7.895       82.685       57.832       35.556     6836.728     3344.491     1264.212        1.686        0.572      149.037       30.026        0.041      336.977        8.637      860.356
03/17/2014  07:45:00     -315.189       62.433      -30.161      115.176      152.222       67.618    13265.583    23171.472     4572.147        7.257        2.050      321.313       61.179        0.036      336.872        8.462      860.407
03/17/2014  07:46:00     -291.545       -8.258      -37.754      120.600      145.715       67.452    14544.380    21232.986     4549.708        6.340        2.016      291.662       56.492        0.038      336.818        8.371      860.430
03/17/2014  07:47:00     -138.094       67.230      -26.869       72.268      115.988       56.168     5222.690    13453.218     3154.802        2.307        1.092      153.590       52.601        0.117      336.795        8.335      860.460
03/17/2014  07:48:00     -181.933       98.949      -35.978       79.609      138.498       59.657     6337.669    19181.734     3558.994        3.663        1.454      207.100       53.037        0.066      336.737        8.236      860.464
03/17/2014  07:49:00     -187.902      118.909      -34.686      103.049       86.613       59.895    10619.112     7501.820     3587.423        3.617        1.085      222.366       62.199        0.078      336.761        8.276      860.441
03/17/2014  07:50:00     -199.377      199.481      -33.388      114.364      112.475       61.329    13079.145    12650.519     3761.239        5.507        1.475      282.035       43.853        0.024      336.711        8.194      860.442
03/17/2014  07:51:00     -213.568       65.918      -29.919      106.928      174.091       54.639    11433.510    30307.564     2985.409        4.778        2.236      223.510       51.128        0.052      336.686        8.154      860.479
03/17/2014  07:52:00      -99.205       84.755      -13.897      116.992      101.685       64.569    13687.226    10339.775     4169.111        2.270        1.410      130.480       71.451        0.300      336.767        8.289      860.443
03/17/2014  07:53:00     -320.013      103.250      -45.066       90.705       96.029       59.891     8227.413     9221.575     3586.892        6.806        1.052      336.257       47.386        0.020      336.708        8.188      860.457
03/17/2014  07:54:00     -243.295       18.948      -41.498      167.848      139.425       68.661    28173.096    19439.275     4714.274        5.679        2.616      244.031       64.694        0.070      336.712        8.195      860.460
03/17/2014  07:55:00     -291.447      376.075      -53.976      122.741      205.526       81.159    15065.247    42240.835     6586.748       14.658        3.195      475.788      103.407        0.047      336.701        8.176      860.439
03/17/2014  07:56:00     -324.011      -31.056      -26.171      117.580      171.931       85.364    13825.110    29560.306     7287.002        7.864        2.534      325.496       70.040        0.046      336.735        8.233      860.468
03/17/2014  07:57:00     -311.526      -63.339      -29.660      196.965      129.166       83.826    38795.144    16683.784     7026.737        8.221        3.125      317.900      103.521        0.106      336.754        8.266      860.456
03/17/2014  07:58:00     -322.130      -27.365      -35.834      132.730      175.590       77.623    17617.315    30831.993     6025.364        8.013        2.724      323.290       67.749        0.044      336.721        8.212      860.423
03/17/2014  07:59:00     -242.281      -53.645       -2.679       97.792       88.183       53.922     9563.225     7776.206     2907.632        4.091        1.012      248.149       43.089        0.030      336.751        8.259      860.354
03/17/2014  08:00:00     -267.020       56.892      -27.694      163.965      147.446       70.760    26884.438    21740.322     5007.034        6.446        2.682      273.014       73.626        0.073      336.770        8.292      860.336
03/17/2014  08:01:00     -147.716       95.174       -0.139      107.672      140.747       77.065    11593.347    19809.833     5939.077        3.410        1.867      175.722       68.500        0.152      336.822        8.378      860.345
03/17/2014  08:02:00     -354.373      -39.124      -25.612      146.418      130.776       70.527    21438.227    17102.365     4974.127        8.563        2.176      356.526       65.701        0.034      336.727        8.219      860.328
03/17/2014  08:03:00     -233.055      -19.311       -3.842      151.089      165.607       76.695    22827.830    27425.837     5882.067        5.541        2.807      233.854       77.732        0.110      336.777        8.304      860.300
03/17/2014  08:04:00     -295.823       63.095      -42.524      133.052      126.944       65.049    17702.758    16114.753     4231.398        6.567        1.902      302.477       58.950        0.038      336.726        8.217      860.322
03/17/2014  08:05:00     -185.546      -16.022       -6.876      145.501       88.653       47.363    21170.466     7859.279     2243.254        3.300        1.564      186.237       53.116        0.081      336.743        8.249      860.276
03/17/2014  08:06:00     -327.329      170.403      -49.319      158.656      173.651       83.771    25171.656    30154.614     7017.591       10.047        3.117      369.028       87.958        0.057      336.677        8.136      860.274
03/17/2014  08:07:00     -246.572      173.306      -24.898      128.093      161.804       84.641    16407.844    26180.488     7164.025        7.059        2.488      301.385       58.292        0.037      336.699        8.175      860.305
03/17/2014  08:08:00     -397.272       86.969      -47.999      124.729      193.286       77.472    15557.205    37359.610     6001.930       11.329        2.946      406.680       81.371        0.040      336.595        8.002      860.315
03/17/2014  08:09:00     -266.800      121.498      -49.697      151.212      148.625       79.435    22865.205    22089.323     6309.939        6.983        2.563      293.163       76.600        0.068      336.653        8.097      860.266
03/17/2014  08:10:00     -277.886      174.662      -43.258      137.850      166.776       68.756    19002.579    27814.070     4727.335        8.056        2.577      328.218       63.731        0.038      336.650        8.091      860.256
03/17/2014  08:11:00     -182.643      184.878      -44.692       99.173      134.021       59.403     9835.197    17961.600     3528.708        5.042        1.566      259.881       50.891        0.038      336.720        8.210      860.262
03/17/2014  08:12:00     -264.826       73.925      -40.002      145.661      172.119       87.336    21217.184    29624.786     7627.612        6.782        2.923      274.950       74.909        0.074      336.614        8.031      860.269
03/17/2014  08:13:00     -327.006      102.410      -54.039      160.170      108.490       64.596    25654.512    11770.083     4172.586        8.096        2.080      342.667       60.986        0.032      336.579        7.973      860.281
03/17/2014  08:14:00     -255.210      -53.354      -35.957      120.504      104.634       69.889    14521.257    10948.188     4884.461        4.981        1.518      260.728       52.152        0.040      336.588        7.989      860.242
03/17/2014  08:15:00     -279.777       -9.647      -22.812      151.921      190.202       73.762    23080.103    36176.868     5440.891        7.178        3.235      279.943       51.958        0.034      336.571        7.959      860.207
03/17/2014  08:16:00     -168.688      -13.702       -1.637      117.705      116.507       66.291    13854.477    13573.951     4394.553        3.023        1.591      169.243       62.093        0.135      336.634        8.067      860.204
03/17/2014  08:17:00     -265.303       15.124      -39.757      111.673      153.885       76.211    12470.868    23680.609     5808.070        5.707        2.098      265.734       45.599        0.029      336.587        7.986      860.178
03/17/2014  08:18:00     -252.104       59.110      -11.198      136.616      128.691       76.664    18663.951    16561.419     5877.327        5.413        2.055      258.941       75.670        0.085      336.615        8.035      860.197
03/17/2014  08:19:00     -296.487      -37.676       -6.565      157.723      121.665       75.097    24876.458    14802.428     5639.513        6.733        2.266      298.871       73.961        0.061      336.689        8.157      860.175
03/17/2014  08:20:00     -293.267       22.726      -28.541      142.643      111.568       62.319    20347.047    12447.360     3883.627        6.200        1.834      294.146       60.964        0.043      336.676        8.136      860.179
03/17/2014  08:21:00     -309.096      -95.707        0.166      226.036      170.617       82.573    51092.486    29110.308     6818.219        9.584        4.351      323.574      100.015        0.096      336.699        8.174      860.146
03/17/2014  08:22:00     -163.119      -80.359      -14.918      168.690      123.929       65.474    28456.196    15358.399     4286.846        4.069        2.405      181.839       51.150        0.079      336.741        8.245      860.129
03/17/2014  08:23:00     -260.815      111.671      -34.890      163.873      188.349       79.505    26854.228    35475.448     6321.120        7.517        3.433      283.716       80.918        0.081      336.669        8.124      860.170
03/17/2014  08:24:00     -224.297      170.647      -17.946      153.744      196.235      102.375    23637.116    38508.189    10480.652        7.617        3.631      281.833       93.502        0.110      336.665        8.116      860.217
03/17/2014  08:25:00     -417.122       15.227      -47.729      198.599      169.598       81.747    39441.497    28763.445     6682.547       12.568        3.744      417.400       88.408        0.045      336.557        7.937      860.229
03/17/2014  08:26:00     -213.259      181.500      -11.558      220.000      132.306       97.796    48400.207    17504.912     9564.043        7.700        3.773      280.039       94.707        0.114      336.726        8.221      860.262
03/17/2014  08:27:00     -149.624      256.215      -27.357      103.401      160.711       76.421    10691.758    25827.973     5840.183        6.556        2.118      296.704       70.479        0.056      336.741        8.243      860.307
03/17/2014  08:28:00     -154.982      335.449      -41.330      139.462      134.089       74.952    19449.604    17979.914     5617.816        9.064        2.152      369.520       78.005        0.045      336.767        8.286      860.313
03/17/2014  08:29:00     -178.375      397.236      -44.968      140.667      124.903       86.946    19787.235    15600.690     7559.555       11.728        2.147      435.447       71.600        0.027      336.717        8.203      860.362
03/17/2014  08:30:00     -217.388      341.433      -46.311      113.686      121.701       76.683    12924.603    14811.134     5880.273        9.979        1.681      404.764       69.285        0.029      336.683        8.146      860.402
03/17/2014  08:31:00     -135.850      372.567      -50.909      146.156      141.028       89.715    21361.523    19888.833     8048.868       10.457        2.465      396.562       80.844        0.042      336.782        8.312      860.425
03/17/2014  08:32:00     -164.031      268.656      -38.475      107.686      142.125       78.830    11596.263    20199.443     6214.227        6.928        1.900      314.773       75.541        0.058      336.766        8.286      860.455
03/17/2014  08:33:00     -321.927      338.348      -70.045      174.056      172.189       81.857    30295.568    29649.047     6700.593       14.482        3.332      467.029      101.624        0.047      336.642        8.078      860.477
03/17/2014  08:34:00     -152.798      224.745      -25.777      119.980      105.964       64.535    14395.301    11228.291     4164.809        5.215        1.489      271.768       66.267        0.059      336.722        8.212      860.491
03/17/2014  08:35:00     -101.489      385.569      -39.105      106.537      157.889       67.903    11350.135    24928.923     4610.844       10.068        2.044      398.703       72.501        0.033      336.800        8.342      860.487
03/17/2014  08:36:00     -124.966      400.403      -24.098       89.321      179.656       74.999     7978.213    32276.164     5624.847       11.119        2.294      419.451       85.848        0.042      336.735        8.233      860.521
03/17/2014  08:37:00     -131.484      433.326      -44.049       89.082      175.401       74.872     7935.551    30765.529     5605.773       12.564        2.215      452.835       76.594        0.029      336.687        8.152      860.565
03/17/2014  08:38:00     -201.878      430.609      -48.158      120.336      189.568       82.714    14480.679    35936.005     6841.619       14.287        2.863      475.583       83.410        0.031      336.589        7.989      860.604
03/17/2014  08:39:00     -190.673      288.951      -30.179      153.476      223.730       96.017    23554.737    50055.280     9219.176       10.178        4.141      346.192      117.424        0.115      336.589        7.990      860.629
03/17/2014  08:40:00     -170.721      351.009      -35.469      110.901      169.555       78.479    12299.032    28748.764     6158.899       10.040        2.360      390.324       72.384        0.034      336.597        8.004      860.603
03/17/2014  08:41:00     -148.823      283.861      -36.503       75.261      129.094       60.128     5664.173    16665.277     3615.335        6.500        1.297      320.508       63.568        0.039      336.691        8.160      860.616
03/17/2014  08:42:00     -171.528      437.721      -47.006      120.504      139.086       82.399    14521.094    19344.911     6789.553       13.194        2.033      470.129       79.242        0.028      336.638        8.072      860.643
03/17/2014  08:43:00     -186.886      362.453      -51.707      125.201      131.793       71.345    15675.210    17369.328     5090.122       10.355        1.907      407.797       63.500        0.024      336.614        8.031      860.665
03/17/2014  08:44:00     -232.460      467.541      -61.389      123.616      190.196       75.146    15280.991    36174.461     5646.963       16.674        2.855      522.142       91.544        0.031      336.615        8.033      860.706
03/17/2014  08:45:00     -200.452      393.110      -39.145      113.468      135.945       71.805    12874.930    18481.075     5155.954       11.637        1.826      441.267       68.912        0.024      336.643        8.080      860.774
03/17/2014  08:46:00     -153.996      337.182      -39.202       96.721      148.727       70.436     9355.041    22119.728     4961.239        8.768        1.822      370.684       60.359        0.027      336.747        8.254      860.810
03/17/2014  08:47:00     -164.026      365.533      -47.235      104.461      161.326       69.741    10912.197    26026.040     4863.788       10.227        2.090      400.648       76.088        0.036      336.701        8.177      860.824
03/17/2014  08:48:00     -115.805      313.471      -43.453      114.987      206.586       62.212    13221.955    42677.798     3870.282        8.665        2.989      334.178       69.619        0.043      336.840        8.410      860.806
03/17/2014  08:49:00     -110.509      270.861      -17.722       90.218      200.739       66.415     8139.373    40296.264     4410.979        6.936        2.642      292.537       60.328        0.043      336.957        8.603      860.805
03/17/2014  08:50:00     -186.536      201.624      -37.517       78.245      105.012       61.271     6122.329    11027.620     3754.099        4.888        1.045      274.678       55.369        0.041      336.883        8.480      860.820
03/17/2014  08:51:00     -141.952      220.866      -34.792       99.091      131.921       63.294     9819.054    17403.151     4006.101        5.068        1.561      262.549       64.304        0.060      336.884        8.482      860.840
03/17/2014  08:52:00     -160.784      289.268      -46.531      147.823      153.677       64.785    21851.698    23616.772     4197.053        8.067        2.483      330.949       59.378        0.032      336.829        8.390      860.841
03/17/2014  08:53:00     -172.320      254.530      -31.682      138.950      182.917       63.192    19307.077    33458.483     3993.261        7.611        2.838      307.375       58.838        0.037      336.904        8.516      860.844
03/17/2014  08:54:00     -205.938      554.388      -58.409      158.550      192.564       95.159    25138.253    37080.901     9055.301       21.221        3.564      591.402      107.060        0.033      336.707        8.186      860.871
03/17/2014  08:55:00     -288.771      461.790      -66.239      137.512      242.859       84.147    18909.468    58980.547     7080.677       19.298        4.249      544.645       96.062        0.031      336.606        8.016      860.904
03/17/2014  08:56:00     -242.962      240.381      -35.045      139.014      160.316       82.237    19325.024    25701.119     6762.848        8.490        2.589      341.780       92.025        0.072      336.808        8.356      860.923
03/17/2014  08:57:00     -216.342      346.278      -49.392      145.873      183.748       84.777    21278.823    33763.210     7187.183       11.568        3.111      408.305       91.166        0.050      336.806        8.351      860.933
03/17/2014  08:58:00     -292.431      365.096      -59.095      174.842      185.076       82.031    30569.852    34253.089     6729.112       14.691        3.578      467.773       93.259        0.040      336.689        8.157      860.924
03/17/2014  08:59:00     -296.709      398.334      -76.209      127.624      142.431       92.413    16287.934    20286.655     8540.111       14.881        2.256      496.695       82.331        0.027      336.649        8.089      860.884
03/17/2014  09:00:00     -214.457      233.299      -10.881      138.989      180.579       95.275    19318.074    32608.776     9077.281        8.076        3.050      316.892       95.781        0.091      336.867        8.451      860.829
03/17/2014  09:01:00     -236.571      206.237      -20.776      167.837      122.714       92.827    28169.127    15058.648     8616.772        7.538        2.592      313.847      100.535        0.103      336.909        8.523      860.805
03/17/2014  09:02:00     -154.035      175.861       -8.050      147.053      164.862       82.388    21624.446    27179.494     6787.861        5.514        2.780      233.782       79.245        0.115      337.029        8.725      860.802
03/17/2014  09:03:00     -220.102      276.480      -43.254      107.505      162.897       71.295    11557.240    26535.279     5082.925        8.496        2.159      353.392       77.056        0.048      336.848        8.421      860.803
03/17/2014  09:04:00     -181.852      137.641       -8.009      165.679      183.121       87.987    27449.504    33533.352     7741.781        6.039        3.436      228.069      106.072        0.216      337.010        8.695      860.820
03/17/2014  09:05:00     -253.321       54.800      -33.177      154.674      137.036       92.012    23924.043    18778.854     8466.225        5.971        2.558      259.180       75.333        0.084      336.880        8.475      860.801
03/17/2014  09:06:00     -137.319      169.690      -13.848      102.491      129.122       71.952    10504.477    16672.557     5177.029        4.009        1.618      218.292       69.667        0.102      336.973        8.632      860.808
03/17/2014  09:07:00     -231.572      376.777      -39.641      189.778      201.908      101.433    36015.652    40766.716    10288.693       14.210        4.354      442.252      102.919        0.054      336.867        8.454      860.821
03/17/2014  09:08:00     -234.560      158.932      -30.486      154.764      175.376       83.716    23951.851    30756.782     7008.300        7.145        3.086      283.334       78.212        0.076      336.942        8.578      860.831
03/17/2014  09:09:00     -254.327      113.183      -28.223      148.162      190.838       95.284    21952.082    36419.046     9078.969        7.286        3.373      278.375       61.998        0.050      336.897        8.504      860.897
03/17/2014  09:10:00     -158.919      107.709       -0.802      116.821      183.677       74.978    13647.135    33737.214     5621.703        4.492        2.650      191.980       78.518        0.167      337.027        8.721      860.942
03/17/2014  09:11:00     -193.982      253.543      -40.244       97.864      115.337       61.626     9577.283    13302.529     3797.704        6.510        1.334      319.238       61.890        0.038      337.075        8.802      860.972
03/17/2014  09:12:00     -111.050       69.711       11.308      162.345      134.505       85.063    26356.034    18091.624     7235.706        3.449        2.584      131.117       73.942        0.318      337.273        9.133      861.017
03/17/2014  09:13:00     -244.123      285.235      -22.055      177.828      194.870      103.269    31622.975    37974.261    10664.437       11.084        4.013      375.440       95.195        0.064      337.029        8.725      861.053
03/17/2014  09:14:00     -277.382      266.449      -37.364      154.853      188.084       90.234    23979.323    35375.751     8142.248       10.840        3.375      384.624       77.655        0.041      336.986        8.652      861.064
03/17/2014  09:15:00     -254.377      527.312      -67.436      135.876      196.688      100.344    18462.385    38686.283    10068.912       20.725        3.361      585.462       94.255        0.026      336.906        8.520      861.111
03/17/2014  09:16:00     -231.684      500.657      -66.941      154.387      160.162       75.937    23835.202    25651.963     5766.389       18.202        2.763      551.666       74.922        0.018      336.939        8.573      861.126
03/17/2014  09:17:00     -193.827      524.939      -44.563      152.294      187.732       98.527    23193.600    35243.357     9707.640       19.162        3.407      559.580       92.166        0.027      336.960        8.609      861.160
03/17/2014  09:18:00     -200.637      368.081      -29.071      179.673      185.857       84.084    32282.375    34542.943     7070.080       12.522        3.695      419.212       81.904        0.038      336.978        8.640      861.167
03/17/2014  09:19:00     -113.307      519.418      -53.519      108.284      183.077       82.564    11725.492    33517.148     6816.846       16.877        2.603      531.633       87.146        0.027      336.896        8.502      861.175
03/17/2014  09:20:00     -114.541      596.015      -77.870      131.235      218.130       90.853    17222.663    47580.543     8254.339       22.372        3.653      606.921       97.589        0.026      336.959        8.606      861.183
03/17/2014  09:21:00     -128.541      428.981      -50.463      100.693      186.189       74.286    10139.124    34666.245     5518.479       12.670        2.516      447.825       79.796        0.032      337.049        8.758      861.216
03/17/2014  09:22:00     -120.468      415.220      -43.137      118.131      198.525       68.545    13954.994    39411.984     4698.401       12.341        2.903      432.343       78.220        0.033      337.205        9.020      861.215
03/17/2014  09:23:00      -75.501      656.529      -75.334      114.916      281.275       79.087    13205.741    79115.461     6254.690       27.047        4.929      660.856      107.341        0.026      336.923        8.547      861.237
03/17/2014  09:24:00      -84.599      676.654      -86.586      149.729      202.928       78.391    22418.922    41179.718     6145.108       27.112        3.487      681.922       93.285        0.019      336.903        8.514      861.251
03/17/2014  09:25:00     -120.673      414.270      -46.434      143.525      149.969       88.366    20599.466    22490.840     7808.596       11.961        2.545      431.487       84.353        0.038      337.098        8.839      861.287
03/17/2014  09:26:00      -95.600      409.321      -51.289      119.852      195.297       81.589    14364.602    38140.923     6656.712       11.923        2.958      420.337       98.756        0.055      337.200        9.012      861.305
03/17/2014  09:27:00      -60.913      384.192      -51.512       96.152      164.585       67.591     9245.183    27088.104     4568.596        9.743        2.045      388.990       74.695        0.037      337.141        8.912      861.318
03/17/2014  09:28:00     -211.195      311.447      -48.551      113.290      163.465       77.772    12834.631    26720.703     6048.523        9.477        2.280      376.301       72.231        0.037      337.100        8.842      861.352
03/17/2014  09:29:00     -210.986      315.836      -53.935      132.574      164.277       85.562    17575.785    26986.780     7320.818        9.952        2.594      379.826       93.126        0.060      336.900        8.508      861.346
03/17/2014  09:30:00     -130.093      347.338      -30.073      102.960      197.992       80.553    10600.759    39200.774     6488.820        9.737        2.815      370.901      100.256        0.073      337.223        9.049      861.360
03/17/2014  09:31:00      -74.268      376.568      -29.474      116.465      154.416       77.361    13564.082    23844.446     5984.793        9.578        2.170      383.822       74.546        0.038      337.216        9.038      861.385
03/17/2014  09:32:00     -147.685      388.981      -41.273      115.253      152.128       80.548    13283.297    23142.816     6488.001       10.886        2.146      416.073       82.707        0.040      337.173        8.964      861.396
03/17/2014  09:33:00     -110.679      424.534      -46.804      134.863      155.950       81.830    18188.021    24320.303     6696.209       12.193        2.460      438.725       75.079        0.029      337.117        8.871      861.421
03/17/2014  09:34:00       19.731      504.398      -23.971      127.686      299.267      124.924    16303.679    89560.521    15605.897       18.840        6.074      504.783      160.650        0.101      336.758        8.270      861.464
03/17/2014  09:35:00       -4.754      554.869      -48.008      160.895      264.640      109.317    25887.266    70034.588    11950.229       20.902        5.394      554.890      134.301        0.059      336.475        7.798      861.497
03/17/2014  09:36:00      -43.870      544.627      -60.638      117.509      181.412       80.657    13808.433    32910.288     6505.508       17.771        2.661      546.391       84.627        0.024      336.449        7.754      861.519
03/17/2014  09:37:00      -25.627      383.340       -5.366      147.356      238.280      111.325    21713.831    56777.442    12393.233       11.924        4.544      384.196      132.716        0.119      336.771        8.295      861.570
03/17/2014  09:38:00      -99.969      664.660      -71.037      107.378      176.533       71.153    11530.019    31163.724     5062.782       25.228        2.388      672.136       78.768        0.014      336.187        7.315      861.637
03/17/2014  09:39:00      -74.962      647.180      -77.254      116.432      162.677       64.865    13556.518    26463.964     4207.448       23.732        2.211      651.507       75.448        0.013      336.214        7.363      861.653
03/17/2014  09:40:00       -8.395      390.980      -29.625      122.124      223.688       93.289    14914.282    50036.413     8702.795       11.372        3.683      391.070      117.518        0.090      336.587        7.984      861.664
03/17/2014  09:41:00      -93.334      375.419      -39.686      118.089      161.482       70.662    13945.102    26076.470     4993.177        9.811        2.251      386.847       77.906        0.041      336.551        7.924      861.677
03/17/2014  09:42:00     -114.991      385.385      -33.234      126.548      167.456       88.065    16014.417    28041.489     7755.465       10.732        2.591      402.175       87.385        0.047      336.578        7.970      861.692
03/17/2014  09:43:00      -61.493      652.998      -81.987      130.392      162.642       76.443    17002.050    26452.346     5843.580       24.309        2.465      655.887       71.550        0.012      336.329        7.554      861.709
03/17/2014  09:44:00       -4.148      466.857      -63.000      118.266      159.397       79.372    13986.908    25407.274     6299.993       13.381        2.285      466.876       79.744        0.029      336.522        7.876      861.731
03/17/2014  09:45:00        3.996      476.848      -43.395      163.823      212.430      108.136    26837.917    45126.402    11693.393       15.645        4.183      476.865      114.337        0.057      336.552        7.927      861.742
03/17/2014  09:46:00     -136.907      395.956      -42.480      146.330      216.683       98.924    21412.364    46951.500     9786.020       12.772        3.907      418.957      113.337        0.073      336.471        7.791      861.764
03/17/2014  09:47:00     -232.302      427.612      -52.630      145.461      169.481      102.931    21158.864    28723.883    10594.778       15.002        3.024      486.638      108.557        0.050      336.295        7.498      861.775
03/17/2014  09:48:00      -46.735      340.389      -14.707      145.137      167.354       91.508    21064.747    28007.249     8373.723        8.784        2.872      343.583       78.518        0.052      336.629        8.055      861.756
03/17/2014  09:49:00      -89.384      601.362      -76.986      127.554      188.237       82.017    16269.906    35433.348     6726.803       21.698        2.922      607.968       87.746        0.021      336.302        7.509      861.736
03/17/2014  09:50:00     -154.229      555.157      -55.918      135.296      226.268       89.852    18304.923    51197.161     8073.428       20.633        3.879      576.182      113.863        0.039      336.109        7.187      861.744
03/17/2014  09:51:00      -67.367      637.207      -58.735      121.553      223.606       94.563    14775.251    49999.653     8942.075       24.385        3.686      640.758      106.970        0.028      336.157        7.267      861.772
03/17/2014  09:52:00     -127.946      655.379      -63.199      125.925      178.179       82.493    15857.075    31747.932     6805.109       25.214        2.721      667.751       87.508        0.017      335.966        6.949      861.786
03/17/2014  09:53:00       31.204      460.887      -18.576      140.966      287.257      137.038    19871.409    82516.527    18779.434       16.743        6.058      461.942      160.146        0.120      336.281        7.473      861.779
03/17/2014  09:54:00      -56.721      646.484      -69.387      133.674      188.994       82.709    17868.628    35718.894     6840.851       24.319        3.021      648.967       88.270        0.019      336.083        7.144      861.775
03/17/2014  09:55:00      -83.660      485.570      -65.162      138.128      164.540       81.793    19079.336    27073.453     6690.156       14.992        2.642      492.724       87.504        0.032      336.340        7.573      861.805
03/17/2014  09:56:00      -74.901      516.709      -57.343      117.503      239.664       89.488    13807.051    57439.035     8008.122       17.755        3.963      522.109      100.555        0.037      336.139        7.237      861.826
03/17/2014  09:57:00     -163.882      791.785      -94.332      138.057      203.358       81.326    19059.765    41354.451     6613.951       36.484        3.351      808.567       81.339        0.010      335.827        6.716      861.835
03/17/2014  09:58:00      -86.517      704.379      -71.080      138.038      203.303       81.934    19054.376    41332.302     6713.216       28.788        3.355      709.673       85.752        0.015      335.798        6.667      861.848
03/17/2014  09:59:00     -102.516      723.789      -74.859      159.099      230.968       95.173    25312.546    53346.080     9057.949       31.383        4.386      731.013      120.987        0.027      335.696        6.498      861.848
03/17/2014  10:00:00     -109.948      508.223      -44.231      162.500      210.152       92.206    26406.212    44163.916     8501.862       17.569        3.954      519.980       99.085        0.036      335.959        6.938      861.867
03/17/2014  10:01:00      -36.111      425.095      -28.416      128.071      240.911       93.673    16402.102    58037.896     8774.671       13.300        4.161      426.626      112.447        0.069      336.144        7.247      861.859
03/17/2014  10:02:00      -49.258      552.295      -53.346      129.210      225.625       88.065    16695.189    50906.833     7755.488       19.281        3.768      554.488      100.821        0.033      336.174        7.295      861.872
03/17/2014  10:03:00        7.154      541.026      -34.988      134.141      249.339      126.068    17993.940    62169.932    15893.244       19.500        4.803      541.073      143.296        0.070      336.128        7.218      861.872
03/17/2014  10:04:00      -84.730      709.599      -64.646      145.515      247.676      105.830    21174.499    61343.533    11199.908       30.428        4.686      714.639      124.855        0.031      335.897        6.833      861.905
03/17/2014  10:05:00      -71.883      616.461      -65.372      152.296      205.705      102.513    23194.080    42314.562    10508.958       23.273        3.801      620.638       99.858        0.026      336.022        7.042      861.920
03/17/2014  10:06:00     -121.179      726.149      -73.911      140.589      233.256       87.580    19765.180    54408.289     7670.297       31.463        4.092      736.191       97.975        0.018      335.846        6.748      861.916
03/17/2014  10:07:00      -53.736      492.593      -38.333      198.937      248.220      128.663    39576.089    61613.298    16554.115       18.235        5.887      495.516      138.993        0.079      336.049        7.087      861.906
03/17/2014  10:08:00      -85.078      632.257      -64.168      188.783      193.603       98.581    35638.980    37482.310     9718.276       24.696        4.142      637.956       87.720        0.019      335.968        6.952      861.919
03/17/2014  10:09:00     -144.758      579.856      -64.249      182.980      299.388      129.728    33481.567    89633.323    16829.359       25.060        6.997      597.652      154.722        0.067      335.866        6.782      861.937
03/17/2014  10:10:00      -91.272      587.390      -61.704      128.201      155.210       92.849    16435.410    24090.226     8620.985       20.315        2.457      594.439       81.704        0.019      335.895        6.831      861.949
03/17/2014  10:11:00      -92.731      328.114      -30.896      105.584      154.523       82.610    11148.003    23877.375     6824.428        7.952        2.092      340.966       80.592        0.056      336.295        7.496      861.923
03/17/2014  10:12:00     -128.413      610.851      -71.939      166.958      229.651       98.990    27874.960    52739.697     9799.022       24.259        4.521      624.202      107.779        0.030      336.040        7.073      861.885
03/17/2014  10:13:00     -109.160      739.984      -72.132      162.429      279.847      105.486    26383.055    78314.306    11127.211       34.024        5.791      747.992      133.681        0.032      335.871        6.790      861.899
03/17/2014  10:14:00      -59.386      660.229      -79.837      161.064      293.643      119.965    25941.726    86226.076    14391.517       28.616        6.328      662.894      146.566        0.049      335.985        6.981      861.881
03/17/2014  10:15:00      -91.177      667.100      -54.395      131.810      224.483      102.556    17373.757    50392.693    10517.815       26.727        3.914      673.302      105.322        0.024      335.986        6.981      861.896
03/17/2014  10:16:00     -116.286      701.071      -66.976      133.489      246.381       92.010    17819.276    60703.804     8465.822       29.823        4.349      710.650      118.955        0.028      335.798        6.669      861.910
03/17/2014  10:17:00     -122.859      739.725      -80.278      149.069      190.577       87.407    22221.642    36319.741     7639.965       31.744        3.309      749.859       91.615        0.015      335.800        6.673      861.927
03/17/2014  10:18:00     -164.596      552.609      -61.714      174.115      193.713      108.408    30315.985    37524.879    11752.207       20.792        3.980      576.601      106.731        0.034      336.028        7.051      861.946
03/17/2014  10:19:00     -175.147      558.571      -54.322      207.198      187.567      110.420    42931.041    35181.381    12192.534       21.795        4.515      585.387      118.103        0.041      336.036        7.064      861.954
03/17/2014  10:20:00       -5.491      616.036      -55.727      140.150      246.701      102.881    19641.983    60861.457    10584.508       23.684        4.554      616.061      118.083        0.037      336.105        7.181      861.918
03/17/2014  10:21:00     -162.808      606.577      -72.273      208.106      283.766      116.724    43308.138    80523.147    13624.522       26.853        6.873      628.047      119.308        0.036      336.080        7.139      861.901
03/17/2014  10:22:00      -71.087      558.726      -52.400      152.606      235.571      108.475    23288.480    55493.523    11766.885       20.524        4.527      563.230      127.781        0.051      336.066        7.115      861.898
03/17/2014  10:23:00     -132.342      733.653      -75.894      143.384      272.176      100.079    20559.104    74079.685    10015.734       33.307        5.233      745.494      119.562        0.026      335.854        6.762      861.897
03/17/2014  10:24:00     -139.663      719.374      -70.772      179.747      347.961      119.977    32308.948   121076.859    14394.424       35.486        8.389      732.806      154.409        0.044      335.858        6.769      861.886
03/17/2014  10:25:00     -121.383      713.385      -88.008      162.168      214.454      100.438    26298.535    45990.538    10087.804       30.687        4.119      723.638       92.296        0.016      335.851        6.756      861.922
03/17/2014  10:26:00     -130.294      502.655      -64.756      141.223      229.567       96.023    19943.947    52701.103     9220.441       17.783        4.093      519.267       98.603        0.036      335.960        6.939      861.976
03/17/2014  10:27:00     -120.160      488.370      -42.388      159.264      272.944      110.218    25365.160    74498.409    12148.042       18.335        5.601      502.935      116.016        0.053      336.097        7.167      861.992
03/17/2014  10:28:00     -133.422      569.814      -64.071      228.107      272.774      119.824    52032.974    74405.527    14357.720       24.367        7.040      585.226      141.630        0.059      335.943        6.911      861.972
03/17/2014  10:29:00      -32.148      377.208      -17.082      152.081      215.414      109.001    23128.649    46403.252    11881.324       11.250        4.071      378.576      112.595        0.088      336.301        7.508      861.928
03/17/2014  10:30:00      -56.811      463.989      -39.923      144.897      235.181      102.740    20995.040    55310.239    10555.445       15.347        4.343      467.454      113.119        0.059      336.399        7.671      861.937
03/17/2014  10:31:00      -85.221      280.130       -1.827      186.113      187.999       95.293    34637.896    35343.460     9080.794        8.238        3.953      292.806       98.485        0.113      336.439        7.737      861.953
03/17/2014  10:32:00     -102.958      797.288      -88.830      171.912      269.246       91.711    29553.818    72493.578     8410.981       38.229        5.523      803.908      111.611        0.019      336.002        7.008      861.929
03/17/2014  10:33:00      -29.666      528.927      -53.572      137.516      260.986      110.307    18910.766    68113.935    12167.621       19.133        4.960      529.758      133.812        0.064      336.266        7.450      861.917
03/17/2014  10:34:00     -261.019      596.178      -84.746      172.122      249.609       90.797    29626.146    62304.583     8244.104       26.544        5.009      650.814      103.324        0.025      336.082        7.141      861.961
03/17/2014  10:35:00      -25.291      454.417      -26.007      184.273      195.205      128.749    33956.610    38104.986    16576.303       14.821        4.432      455.120      112.787        0.061      336.353        7.593      861.954
03/17/2014  10:36:00      -96.287      580.920      -47.423      181.191      263.745      118.701    32830.083    69561.525    14089.837       23.271        5.824      588.846      131.401        0.050      336.157        7.267      861.935
03/17/2014  10:37:00       -6.219      652.682      -73.276      148.291      266.911      100.571    21990.316    71241.287    10114.488       26.735        5.167      652.711      113.922        0.030      336.162        7.275      861.944
03/17/2014  10:38:00       18.165      607.461      -79.001      161.242      335.523      118.443    25999.020   112575.634    14028.626       26.406        7.630      607.733      159.888        0.069      336.119        7.204      861.967
03/17/2014  10:39:00      -94.521      634.254      -37.624      181.961      336.260      135.203    33109.947   113070.766    18279.955       28.851        8.223      641.258      168.156        0.069      336.172        7.294      862.026
03/17/2014  10:40:00       79.452      601.290      -40.322      208.750      352.192      160.402    43576.706   124039.424    25728.934       28.138        9.667      606.516      185.030        0.093      336.053        7.093      861.988
03/17/2014  10:41:00       17.466      633.406      -70.546      170.443      297.574      126.850    29050.883    88550.071    16090.813       27.006        6.685      633.646      143.696        0.051      336.152        7.258      862.023
03/17/2014  10:42:00     -137.839      842.761      -91.561      154.321      238.299      112.567    23815.050    56786.408    12671.311       41.543        4.664      853.959      120.125        0.020      335.828        6.717      862.086
03/17/2014  10:43:00      -73.201      723.109      -74.557      161.936      254.814      110.072    26223.358    64930.016    12115.848       31.852        5.163      726.804      121.221        0.028      335.934        6.896      862.111
03/17/2014  10:44:00      -77.753      622.357      -56.204      112.267      212.122       80.911    12603.877    44995.800     6546.582       23.033        3.207      627.196      100.261        0.026      336.091        7.156      862.116
03/17/2014  10:45:00      -88.318      653.267      -64.969      135.660      175.187       74.706    18403.517    30690.625     5581.042       24.672        2.734      659.210       78.843        0.014      336.262        7.443      862.123
03/17/2014  10:46:00     -124.014      521.191      -54.072      132.725      263.613       89.022    17615.867    69492.002     7925.002       19.247        4.752      535.742      108.187        0.041      336.458        7.772      862.146
03/17/2014  10:47:00     -112.070      448.287      -43.769      142.261      233.037       91.176    20238.168    54306.118     8313.137       14.913        4.143      462.083      100.414        0.047      336.524        7.880      862.135
03/17/2014  10:48:00      -93.116      756.673      -91.205      153.631      248.437       88.646    23602.398    61720.855     7858.035       34.134        4.659      762.381      104.892        0.019      336.172        7.294      862.148
03/17/2014  10:49:00     -215.593      736.578      -90.044      163.885      228.837       99.672    26858.293    52366.487     9934.486       34.313        4.458      767.481      104.259        0.018      335.997        6.999      862.170
03/17/2014  10:50:00     -136.552      689.474      -79.722      164.593      250.042       87.737    27090.724    62521.046     7697.768       29.882        4.865      702.866       94.026        0.018      336.066        7.116      862.134
03/17/2014  10:51:00     -260.093      620.511      -76.588      197.380      278.119      118.708    38958.681    77350.118    14091.536       29.445        6.520      672.817      137.106        0.042      336.044        7.079      862.169
03/17/2014  10:52:00     -115.030      591.829      -63.054      131.516      247.493       77.676    17296.396    61252.923     6033.623       22.601        4.229      602.905       89.180        0.022      336.141        7.241      862.139
03/17/2014  10:53:00     -203.100      651.339      -81.025      182.341      296.848      100.194    33248.180    88118.641    10038.865       30.171        6.570      682.270      103.362        0.023      336.111        7.190      862.124
03/17/2014  10:54:00     -123.470      521.198      -34.352      166.823      297.632      124.098    27829.866    88584.665    15400.238       20.992        6.591      535.623      157.467        0.086      336.262        7.442      862.133
03/17/2014  10:55:00      -87.262      677.894      -64.107      137.065      274.554       89.710    18786.752    75379.824     8047.812       28.672        5.111      683.488      118.490        0.030      336.087        7.152      862.094
03/17/2014  10:56:00      -93.066      523.308      -61.266      170.300      196.097       85.129    29002.103    38454.215     7246.946       18.047        3.735      531.519       73.460        0.019      336.194        7.330      862.057
03/17/2014  10:57:00      -67.955      582.398      -70.543      138.279      135.173       72.504    19121.028    18271.781     5256.815       19.571        2.132      586.349       68.215        0.014      336.249        7.421      862.017
03/17/2014  10:58:00     -117.062      591.796      -76.356      209.318      263.168      105.109    43813.829    69257.327    11047.898       24.691        6.206      603.263      125.498        0.043      336.336        7.564      861.952
03/17/2014  10:59:00        2.610      596.921      -70.969      125.390      199.255       96.149    15722.578    39702.428     9244.634       21.300        3.233      596.927       97.301        0.027      336.434        7.729      861.953
03/17/2014  11:00:00     -179.966      511.539      -62.313      230.999      263.943      109.821    53360.686    69665.945    12060.553       21.649        6.754      542.273      132.186        0.059      336.387        7.652      862.032
03/17/2014  11:01:00      -55.648      518.409      -36.722      176.897      198.251       99.866    31292.635    39303.314     9973.276       17.686        4.028      521.387       99.771        0.037      336.396        7.667      862.030
03/17/2014  11:02:00      -65.908      550.247      -56.394      121.203      144.813       79.972    14690.116    20970.771     6395.447       17.617        2.103      554.180       64.156        0.013      336.364        7.611      862.057
03/17/2014  11:03:00      -54.961      663.473      -71.301      152.844      227.814      105.968    23361.410    51899.379    11229.121       26.738        4.324      665.746      116.639        0.031      336.354        7.597      862.089
03/17/2014  11:04:00      -28.784      578.162      -68.999      193.119      213.554       94.080    37294.954    45605.206     8851.138       21.579        4.588      578.878      103.478        0.032      336.342        7.575      862.137
03/17/2014  11:05:00      -24.708      294.425       -6.773      112.095      207.570       96.587    12565.356    43085.184     9329.109        7.615        3.249      295.459      119.916        0.165      336.753        8.263      862.139
03/17/2014  11:06:00       50.285      369.362      -36.014      181.949      168.485      116.399    33105.480    28387.287    13548.725       10.763        3.752      372.769      104.796        0.079      336.585        7.981      862.114
03/17/2014  11:07:00      -30.325      385.049      -16.379      190.403      248.395      112.615    36253.315    61699.996    12682.123       13.002        5.532      386.242      133.497        0.119      336.698        8.171      862.157
03/17/2014  11:08:00      -13.690      669.218      -57.608      229.822      360.632      143.216    52818.250   130055.410    20510.719       32.733       10.169      669.358      183.192        0.075      336.290        7.491      862.184
03/17/2014  11:09:00      -53.294      684.634      -66.329      155.025      272.212      104.038    24032.841    74099.208    10823.825       29.244        5.448      686.706      128.399        0.035      336.292        7.493      862.238
03/17/2014  11:10:00      100.190      424.572       -7.525      146.672      291.158      156.924    21512.705    84772.775    24625.207       16.061        6.546      436.233      167.200        0.147      336.577        7.970      862.285
03/17/2014  11:11:00       60.279      510.338      -34.763      165.876      311.905      145.434    27514.727    97284.746    21151.098       20.559        7.298      513.885      154.470        0.090      336.249        7.421      862.318
03/17/2014  11:12:00      -23.352      583.074      -26.828      181.737      326.542      149.863    33028.296   106629.699    22458.961       25.165        8.106      583.541      179.620        0.095      336.294        7.496      862.315
03/17/2014  11:13:00     -150.957      701.377      -65.779      167.000      258.457      103.712    27888.985    66800.144    10756.275       31.222        5.272      717.439      115.634        0.026      336.238        7.402      862.329
03/17/2014  11:14:00      -98.332      550.030      -53.583      146.783      212.606       90.029    21545.301    45201.105     8105.291       19.495        3.743      558.750       98.275        0.031      336.556        7.934      862.308
03/17/2014  11:15:00       22.081      271.590       -9.634      128.966      225.924      115.238    16632.112    51041.548    13279.853        7.763        4.048      272.486      126.120        0.214      336.969        8.626      862.284
03/17/2014  11:16:00      -75.336      664.001      -73.583      149.244      291.269      106.876    22273.831    84837.478    11422.539       28.524        5.927      668.261      121.902        0.033      336.515        7.865      862.335
03/17/2014  11:17:00       17.288      604.077      -54.019      170.507      327.881      128.148    29072.766   107505.772    16421.990       26.053        7.650      604.324      143.891        0.057      336.548        7.921      862.282
03/17/2014  11:18:00      -16.228      508.157      -37.612      140.501      321.436      134.429    19740.540   103321.174    18071.281       20.049        7.057      508.416      169.737        0.111      336.507        7.852      862.246
03/17/2014  11:19:00     -120.468      796.460      -79.727      151.313      240.883      112.363    22895.582    58024.562    12625.455       37.436        4.677      805.519      118.082        0.021      336.308        7.521      862.196
03/17/2014  11:20:00     -162.968      615.837      -78.505      135.332      181.099       84.041    18314.708    32796.853     7062.837       23.506        2.909      637.035       85.030        0.018      336.471        7.793      862.185
03/17/2014  11:21:00      -83.089      415.007      -44.993      107.984      148.414       63.802    11660.576    22026.712     4070.697       10.945        1.888      423.243       49.655        0.014      336.985        8.651      862.128
03/17/2014  11:22:00        1.964      362.181      -23.778      153.549      200.124      110.784    23577.400    40049.803    12273.154       10.381        3.795      362.186      112.781        0.097      337.028        8.724      862.139
03/17/2014  11:23:00     -136.228      732.025      -98.838      142.030      158.412       80.930    20172.440    25094.402     6549.670       30.799        2.591      744.593       69.279        0.009      336.574        7.964      862.166
03/17/2014  11:24:00       14.867      341.130      -30.496      190.529      190.866      101.668    36301.331    36429.710    10336.362       10.028        4.153      341.453      101.714        0.089      336.854        8.434      862.140
03/17/2014  11:25:00       38.656      349.606      -15.955      139.483      237.225      126.758    19455.424    56275.871    16067.623       10.787        4.590      351.736      142.167        0.163      336.990        8.659      862.106
03/17/2014  11:26:00      -55.689      443.162      -27.377      123.126      212.639      100.398    15159.911    45215.189    10079.857       13.533        3.523      446.647      112.627        0.064      336.956        8.603      862.143
03/17/2014  11:27:00        0.723      470.947      -51.494      163.654      203.239      118.984    26782.549    41306.018    14157.128       15.333        4.112      470.947      121.278        0.066      336.898        8.508      862.121
03/17/2014  11:28:00       -8.448      409.571      -42.807      139.801      229.945      111.581    19544.326    52874.582    12450.424       12.724        4.243      409.658      118.861        0.084      336.963        8.613      862.128
03/17/2014  11:29:00      -84.684      432.195      -59.881      136.477      193.489       74.380    18626.099    37437.899     5532.378       12.956        3.080      440.413       85.416        0.038      336.950        8.591      862.145
03/17/2014  11:30:00      -39.499      379.654      -37.242      138.340      161.707       88.522    19137.905    26149.039     7836.186       10.009        2.656      381.703       98.110        0.066      337.305        9.186      862.125
03/17/2014  11:31:00      -66.446      317.815      -21.450      155.634      158.253       93.631    24221.860    25044.103     8766.723        8.195        2.902      324.686       95.836        0.087      337.335        9.237      862.138
03/17/2014  11:32:00        6.955      396.855      -35.992      164.752      255.187      110.191    27143.320    65120.348    12142.047       13.160        5.220      396.916      126.825        0.102      337.154        8.935      862.160
03/17/2014  11:33:00      107.354      510.492      -41.642      163.871      313.106      153.678    26853.740    98035.513    23616.979       21.115        7.425      521.658      164.202        0.099      336.797        8.336      862.171
03/17/2014  11:34:00      -26.523      405.007      -45.325      141.619      182.881       95.434    20055.879    33445.457     9107.648       11.469        3.130      405.875      100.272        0.061      336.932        8.563      862.192
03/17/2014  11:35:00       59.568      440.667      -29.956      154.648      302.523      129.144    23916.078    91520.339    16678.092       16.535        6.606      444.675      149.904        0.114      336.893        8.498      862.179
03/17/2014  11:36:00       47.991      384.535      -10.611      186.891      224.825      137.143    34928.343    50546.471    18808.227       12.726        5.214      387.518      133.985        0.120      336.802        8.345      862.125
03/17/2014  11:37:00       49.563      476.558      -41.076      177.150      278.533      124.560    31382.164    77580.848    15515.301       17.784        6.224      479.129      142.700        0.089      336.648        8.089      862.121
03/17/2014  11:38:00      -66.935      347.851      -21.976      162.322      254.531       96.550    26348.512    64786.136     9321.954       11.319        5.023      354.233      107.462        0.092      336.952        8.598      862.118
03/17/2014  11:39:00     -176.507      494.237      -64.955      159.704      261.342      107.406    25505.478    68299.802    11536.152       19.247        5.267      524.810      115.687        0.049      336.824        8.382      862.150
03/17/2014  11:40:00     -154.199      770.601      -98.649      123.378      226.748       82.865    15222.250    51414.552     6866.608       35.040        3.675      785.877       93.075        0.014      336.590        7.989      862.153
03/17/2014  11:41:00     -113.076      355.561      -46.756      135.413      150.706       73.933    18336.756    22712.432     5466.089        9.395        2.326      373.108       78.852        0.045      337.035        8.735      862.138
03/17/2014  11:42:00      -62.724      419.496      -50.965      123.727      157.801       66.225    15308.448    24901.285     4385.814       11.354        2.230      424.159       66.887        0.025      337.075        8.802      862.077
03/17/2014  11:43:00      -93.766      632.871      -64.004      128.129      233.178       78.809    16417.072    54371.857     6210.805       24.519        3.850      639.779       97.665        0.023      336.817        8.369      862.089
03/17/2014  11:44:00     -102.359      538.726      -53.915      165.713      218.774       98.529    27460.653    47862.150     9707.948       19.430        4.252      548.364      111.309        0.041      336.769        8.290      862.104
03/17/2014  11:45:00     -130.552      535.956      -44.067      133.759      180.962       93.726    17891.600    32747.314     8784.502       18.282        2.971      551.628       99.661        0.033      336.722        8.210      862.085
03/17/2014  11:46:00      -72.908      647.705      -65.906      135.742      195.683      101.171    18425.866    38291.732    10235.519       24.805        3.348      651.795       82.222        0.016      336.687        8.155      862.052
03/17/2014  11:47:00       51.436      361.780       -9.987      128.130      193.445      126.140    16417.393    37420.861    15911.408       10.168        3.487      365.418      126.246        0.119      336.889        8.491      861.984
03/17/2014  11:48:00       30.475      460.693      -37.750      147.050      263.515      122.852    21623.557    69439.997    15092.579       16.035        5.308      461.700      143.547        0.097      337.049        8.757      861.946
03/17/2014  11:49:00      -74.374      506.813      -62.504      106.031      150.987       76.200    11242.667    22797.091     5806.477       15.306        1.992      512.241       75.648        0.022      337.132        8.897      861.995
03/17/2014  11:50:00      -52.569      235.690      -11.996       88.592      149.495       66.649     7848.593    22348.622     4442.060        4.654        1.732      241.481       63.163        0.068      337.522        9.550      861.987
03/17/2014  11:51:00      -86.334      459.789      -57.592      125.483      144.952       88.573    15746.037    21011.086     7845.229       13.338        2.230      467.824       68.068        0.021      337.224        9.051      861.998
03/17/2014  11:52:00     -184.086      354.946      -23.350      171.720      184.690      108.362    29487.924    34110.580    11742.228       11.786        3.767      399.843      110.003        0.076      337.273        9.133      861.992
03/17/2014  11:53:00      -64.852      342.198      -29.255      130.179      178.183       89.332    16946.550    31749.316     7980.131        8.941        2.834      348.289       93.520        0.072      337.140        8.911      861.976
03/17/2014  11:54:00     -208.971      238.892      -40.945      152.825      185.861       93.418    23355.621    34544.192     8726.910        8.451        3.331      317.393       84.173        0.070      337.135        8.902      861.957
03/17/2014  11:55:00     -292.799      342.474      -61.091      131.512      165.873       85.747    17295.423    27513.710     7352.520       12.945        2.608      450.577       82.347        0.033      337.075        8.802      861.917
03/17/2014  11:56:00     -169.972      495.033      -61.451      198.462      204.567      103.417    39387.323    41847.700    10695.005       18.481        4.597      523.400      106.734        0.042      337.204        9.018      861.941
03/17/2014  11:57:00     -100.203      387.446      -40.999      134.937      164.180       81.588    18208.098    26955.109     6656.656       10.682        2.591      400.194       79.802        0.040      337.413        9.366      861.918
03/17/2014  11:58:00     -140.048      642.466      -65.484      173.060      320.369      106.560    29949.737   102636.575    11355.007       29.027        7.197      657.553      133.633        0.041      337.018        8.707      861.912
03/17/2014  11:59:00     -195.936      554.827      -71.010      221.659      285.161       96.494    49132.676    81316.643     9311.096       24.549        6.988      588.408      126.100        0.046      336.928        8.555      861.958
03/17/2014  12:00:00       45.379      540.535      -56.632      143.321      243.033      105.901    20540.821    59065.032    11215.114       19.411        4.541      542.437      127.095        0.055      337.257        9.105      861.947
03/17/2014  12:01:00     -116.975      484.683      -34.050      136.501      242.334      105.189    18632.577    58725.679    11064.629       16.907        4.421      498.599      133.628        0.072      337.295        9.169      861.947
03/17/2014  12:02:00      -45.137      645.835      -56.165      170.202      281.958      115.838    28968.661    79500.471    13418.509       27.207        6.094      647.410      131.982        0.042      337.008        8.689      861.952
03/17/2014  12:03:00     -185.851      587.741      -73.553      218.267      256.272      120.454    47640.530    65675.233    14509.238       25.658        6.391      616.425      129.524        0.044      336.906        8.519      861.987
03/17/2014  12:04:00     -112.812      452.492      -49.562      132.360      242.881       85.851    17519.078    58991.411     7370.387       15.189        4.194      466.343      103.196        0.049      337.002        8.680      862.004
03/17/2014  12:05:00      -98.313      448.251      -50.272      142.810      334.050       75.532    20394.657   111589.114     5705.061       17.538        6.884      458.905       94.571        0.042      337.146        8.921      862.010
03/17/2014  12:06:00      -52.207      353.923      -33.524      116.518      258.896       91.305    13576.333    67027.162     8336.651       10.901        4.447      357.753      128.927        0.130      337.124        8.885      861.991
03/17/2014  12:07:00     -158.312      328.101      -32.662      151.933      201.341       92.582    23083.688    40538.100     8571.430       10.297        3.610      364.298      103.051        0.080      337.400        9.345      862.012
03/17/2014  12:08:00      -17.042      853.191      -94.691      195.365      367.797      118.268    38167.425   135274.601    13987.435       46.227        9.371      853.361      149.829        0.031      336.945        8.583      862.030
03/17/2014  12:09:00      -57.216      822.594     -100.849      174.962      279.509      113.966    30611.590    78125.412    12988.254       40.589        6.086      824.582      122.429        0.022      336.891        8.493      862.098
03/17/2014  12:10:00      -86.012      646.640      -62.267      161.389      236.029      109.896    26046.532    55709.694    12077.119       26.161        4.692      652.335      105.463        0.026      337.028        8.725      862.153
03/17/2014  12:11:00     -171.619      609.359      -75.076      186.502      172.218      111.455    34782.822    29659.168    12422.285       24.162        3.843      633.066      106.513        0.028      336.936        8.569      862.182
03/17/2014  12:12:00      -44.019      627.609      -62.808      121.662      186.314       90.402    14801.614    34712.760     8172.491       22.872        2.884      629.151      100.030        0.025      337.113        8.865      862.152
03/17/2014  12:13:00       67.354      489.731      -49.386      177.619      278.330      110.644    31548.682    77467.559    12242.049       18.401        6.063      494.341      147.436        0.089      337.336        9.237      862.070
03/17/2014  12:14:00       29.463      514.825      -52.446      150.475      270.869      104.318    22642.858    73370.066    10882.313       18.776        5.345      515.668      127.326        0.061      337.275        9.136      862.052
03/17/2014  12:15:00       39.701      540.788      -47.820      155.559      314.912      125.104    24198.524    99169.386    15650.926       21.764        6.951      542.244      165.384        0.093      337.089        8.825      862.040
03/17/2014  12:16:00       60.446      246.937       -7.949      175.825      164.760      112.616    30914.594    27145.964    12682.369        6.770        3.537      254.228       99.730        0.154      337.515        9.539      862.005
03/17/2014  12:17:00     -127.086      415.914      -45.681      190.160      191.288      115.563    36160.996    36590.918    13354.739       13.865        4.305      434.897      109.167        0.063      337.535        9.572      862.024
03/17/2014  12:18:00      -48.360      300.026      -15.391      132.960      146.979       91.172    17678.317    21602.817     8312.317        7.008        2.380      303.898       80.322        0.070      337.653        9.770      861.995
03/17/2014  12:19:00     -246.604      509.519      -56.566      158.033      207.327      109.753    24974.501    42984.688    12045.783       20.180        4.000      566.060      113.695        0.040      337.070        8.794      862.058
03/17/2014  12:20:00     -142.339      633.002      -62.595      151.294      187.541       87.207    22889.933    35171.520     7604.999       24.526        3.283      648.808       91.270        0.020      337.032        8.730      862.043
03/17/2014  12:21:00      -45.717      654.794      -69.422      144.666      183.060       94.498    20928.387    33510.942     8929.781       24.950        3.168      656.388      100.955        0.024      337.059        8.774      862.039
03/17/2014  12:22:00      -91.871      543.527      -66.298      109.114      174.480       67.184    11905.811    30443.192     4513.730       17.755        2.343      551.237       67.699        0.015      337.068        8.789      862.007
03/17/2014  12:23:00      -56.636      499.842      -28.947      144.195      209.622      119.790    20792.064    43941.189    14349.574       16.647        3.954      503.041      118.173        0.055      337.361        9.279      862.027
03/17/2014  12:24:00      -92.652      487.494      -51.354       98.940      200.673       74.437     9789.133    40269.500     5540.850       15.222        2.780      496.221       75.168        0.023      337.282        9.148      862.028
03/17/2014  12:25:00      107.909      386.772      -37.874      162.023      244.721      105.446    26251.549    59888.125    11118.863       12.995        4.863      401.543      126.785        0.100      337.348        9.259      861.965
03/17/2014  12:26:00      -65.884      451.376      -18.398      146.644      272.355      122.791    21504.438    74177.399    15077.508       15.957        5.538      456.159      143.985        0.100      337.289        9.161      861.970
03/17/2014  12:27:00     -128.301      662.313      -71.458      196.201      312.698      104.709    38495.020    97779.803    10964.053       30.370        7.362      674.626      137.882        0.042      336.983        8.646      861.989
03/17/2014  12:28:00     -153.731      394.313      -43.661      134.413      181.067       92.012    18066.866    32785.328     8466.292       12.016        2.966      423.221       92.664        0.048      337.092        8.829      862.016
03/17/2014  12:29:00      -35.312      459.081      -42.152      179.927      181.518      108.829    32373.593    32948.771    11843.721       14.546        3.858      460.437      100.844        0.048      337.252        9.096      861.956
03/17/2014  12:30:00     -125.253      421.305      -18.151      135.672      192.229      101.382    18406.877    36952.132    10278.299       12.956        3.282      439.530      106.250        0.058      337.372        9.298      861.934
03/17/2014  12:31:00      -14.967      420.537      -17.516      198.969      225.701      125.523    39588.552    50940.914    15756.005       14.181        5.314      420.803      129.028        0.094      337.520        9.546      861.946
03/17/2014  12:32:00     -133.220      338.049      -30.175      179.578      178.610      106.701    32248.206    31901.602    11385.080       10.422        3.777      363.352       96.555        0.071      337.503        9.517      861.965
03/17/2014  12:33:00      -39.150      649.950      -64.717      145.018      227.667      102.955    21030.307    51832.076    10599.788       25.579        4.173      651.128      108.435        0.028      337.181        8.980      861.968
03/17/2014  12:34:00      -35.468      522.409      -50.084      132.716      249.731       98.598    17613.638    62365.586     9721.567       18.317        4.485      523.612      116.878        0.050      337.425        9.388      861.996
03/17/2014  12:35:00      -39.107      540.913      -51.374      128.892      174.474       91.066    16613.068    30441.045     8293.010       17.604        2.767      542.325       88.268        0.026      337.219        9.043      861.977
03/17/2014  12:36:00      -68.825      477.067      -27.921      231.069      203.082      132.615    53392.670    41242.352    17586.654       17.264        5.611      482.006      145.587        0.091      337.357        9.274      861.993
03/17/2014  12:37:00      -75.979      609.609      -58.308      137.887      218.938      104.786    19012.739    47933.748    10980.006       22.935        3.896      614.326      118.497        0.037      337.078        8.808      862.032
03/17/2014  12:38:00        0.051      579.234      -50.819      167.519      238.408      124.121    28062.598    56838.530    15406.109       21.918        5.015      579.234      133.658        0.053      337.025        8.718      861.985
03/17/2014  12:39:00      -65.564      607.234      -56.953      163.547      207.133      112.690    26747.540    42904.100    12699.113       22.930        4.118      610.764      113.565        0.035      337.124        8.883      861.917
03/17/2014  12:40:00     -101.375      610.091      -71.650      165.073      236.372       95.514    27248.969    55871.946     9122.940       23.991        4.612      618.456      107.088        0.030      337.113        8.865      861.935
03/17/2014  12:41:00     -172.535      703.711      -92.667      163.003      226.019       83.627    26570.091    51084.416     6993.536       30.909        4.232      724.553       80.171        0.012      336.870        8.458      861.940
03/17/2014  12:42:00     -146.382      633.380      -56.304      138.776      279.155       88.914    19258.682    77927.777     7905.685       26.541        5.255      650.076      104.845        0.026      337.049        8.757      861.908
03/17/2014  12:43:00      -68.378      543.328      -49.301      177.481      255.689      111.354    31499.597    65376.694    12399.666       20.577        5.464      547.613      135.361        0.061      337.179        8.976      861.876
03/17/2014  12:44:00     -161.605      544.302      -63.080      201.830      281.354      115.842    40735.377    79160.091    13419.439       22.981        6.666      567.786      137.562        0.059      337.250        9.094      861.882
03/17/2014  12:45:00     -226.434      611.779      -61.888      131.803      230.036       96.311    17371.901    52916.549     9275.894       25.445        3.978      652.339      105.913        0.026      337.011        8.695      861.907
03/17/2014  12:46:00      -96.662      656.705      -64.076      164.338      272.514      101.568    27006.939    74263.639    10316.027       27.813        5.579      663.781      111.284        0.028      337.033        8.731      861.854
03/17/2014  12:47:00      -49.226      538.719      -48.665      138.404      196.592       96.653    19155.742    38648.610     9341.716       18.106        3.357      540.964      104.801        0.038      336.956        8.603      861.840
03/17/2014  12:48:00      -43.456      428.160      -29.727      121.130      250.867      108.008    14672.517    62934.357    11665.711       13.766        4.464      430.360      134.520        0.098      337.290        9.161      861.746
03/17/2014  12:49:00     -159.620      496.317      -49.357      205.434      257.579      135.447    42202.951    66347.047    18345.968       20.055        6.345      521.354      155.775        0.089      337.332        9.232      861.723
03/17/2014  12:50:00     -304.410      528.853      -76.402      186.414      219.044      109.353    34750.092    47980.363    11958.128       23.642        4.734      610.206      123.216        0.041      337.157        8.938      861.779
03/17/2014  12:51:00      -88.811      593.375      -63.290      125.728      215.172       82.072    15807.406    46298.905     6735.774       21.640        3.442      599.985      101.974        0.029      337.141        8.910      861.812
03/17/2014  12:52:00       16.811      692.483      -77.581      127.290      195.651      118.742    16202.726    38279.486    14099.771       27.719        3.429      692.687      119.776        0.030      336.995        8.668      861.797
03/17/2014  12:53:00      -52.142      559.598      -48.741      140.398      228.035       92.731    19711.688    51999.811     8599.021       19.926        4.016      562.022      113.000        0.040      337.111        8.862      861.778
03/17/2014  12:54:00       11.895      295.975        0.199      193.643      238.968      134.111    37497.800    57105.654    17985.730       10.014        5.629      296.214      142.045        0.230      337.281        9.147      861.796
03/17/2014  12:55:00     -128.179      685.413      -92.768      166.930      318.546       91.707    27865.465   101471.614     8410.185       31.626        6.887      697.296      127.521        0.033      336.997        8.671      861.807
03/17/2014  12:56:00     -109.589      697.391      -89.122      156.636      154.027       92.663    24534.716    23724.419     8586.349       28.157        2.842      705.949       87.832        0.015      337.129        8.890      861.852
03/17/2014  12:57:00      -85.163      619.847      -69.305      119.750      184.864       86.814    14340.168    34174.524     7536.743       22.615        2.803      625.670       91.753        0.022      337.108        8.858      861.878
03/17/2014  12:58:00      -73.838      495.001      -44.509      151.077      247.744      100.508    22824.189    61377.056    10101.759       17.336        4.715      500.478      124.497        0.062      337.230        9.060      861.879
03/17/2014  12:59:00      -75.779      583.790      -59.084      143.932      207.489      102.548    20716.388    43051.623    10516.186       21.215        3.714      588.688      114.414        0.038      337.079        8.809      861.893
03/17/2014  13:00:00       91.587      565.152      -90.714      161.623      273.674      108.718    26121.905    74897.716    11819.712       22.440        5.642      572.525      126.586        0.049      337.111        8.862      861.870
03/17/2014  13:01:00       -7.256      643.025      -83.472      117.599      189.129       83.555    13829.418    35769.826     6981.498       23.853        2.829      643.066       88.594        0.019      337.069        8.791      861.903
03/17/2014  13:02:00       -6.930      426.402      -28.251      135.419      195.514      107.106    18338.403    38225.882    11471.647       12.534        3.402      426.459      111.284        0.068      337.481        9.480      861.844
03/17/2014  13:03:00       70.235      246.235      -31.101      146.068      204.109       92.498    21335.997    41660.549     8555.814        6.903        3.578      256.056      108.473        0.179      337.671        9.799      861.810
03/17/2014  13:04:00       14.178      379.489      -15.313      155.511      194.207      111.271    24183.747    37716.510    12381.305       10.935        3.714      379.754      117.907        0.096      337.405        9.354      861.791
03/17/2014  13:05:00     -162.327      562.230      -69.496      160.842      190.324       99.735    25870.255    36223.379     9947.120       20.965        3.602      585.194      107.929        0.034      337.314        9.202      861.752
03/17/2014  13:06:00      -96.604      512.981      -65.111      192.050      202.248       92.382    36883.132    40904.352     8534.409       18.150        4.316      521.998       97.353        0.035      337.473        9.468      861.752
03/17/2014  13:07:00     -167.028      553.893      -52.315      150.156      230.630       99.393    22546.881    53189.990     9878.999       21.151        4.281      578.529      101.992        0.031      337.234        9.067      861.798
03/17/2014  13:08:00     -111.603      674.049      -74.144      122.748      186.850       68.685    15066.998    34912.929     4717.587       26.349        2.735      683.226       75.632        0.012      336.810        8.359      861.790
03/17/2014  13:09:00      -71.845      609.553      -58.346      160.187      235.634       99.425    25659.851    55523.519     9885.249       23.558        4.553      613.773      110.433        0.032      337.213        9.032      861.749
03/17/2014  13:10:00     -103.171      637.922      -78.146      117.856      177.919       84.523    13889.960    31655.186     7144.163       23.818        2.634      646.211       85.447        0.017      337.065        8.785      861.790
03/17/2014  13:11:00     -160.543      494.203      -60.723      186.279      240.987       98.520    34699.771    58074.637     9706.099       18.807        5.124      519.626       95.953        0.034      337.160        8.943      861.754
03/17/2014  13:12:00     -210.140      398.451      -51.794      122.356      174.824       75.243    14970.985    30563.564     5661.535       12.839        2.560      450.469       68.316        0.023      337.468        9.460      861.720
03/17/2014  13:13:00     -236.978      271.998      -49.803      127.198      127.488       75.437    16179.272    16253.111     5690.792        8.537        1.906      360.752       73.959        0.042      337.426        9.389      861.651
03/17/2014  13:14:00     -254.541      284.714      -55.228      185.209      181.477       85.483    34302.192    32933.833     7307.291       11.171        3.727      381.908       79.064        0.043      337.330        9.228      861.622
03/17/2014  13:15:00     -188.018      401.514      -44.894      181.829      174.482       93.347    33061.957    30443.873     8713.734       13.539        3.611      443.356      105.895        0.057      337.321        9.213      861.615
03/17/2014  13:16:00     -181.589      443.570      -45.535      159.486      201.959       92.078    25435.723    40787.561     8478.417       15.324        3.735      479.301      102.142        0.045      337.446        9.421      861.567
03/17/2014  13:17:00     -106.319      706.232      -81.098      141.174      257.441       97.201    19930.195    66276.049     9447.958       30.613        4.783      714.190      109.628        0.024      337.133        8.898      861.578
03/17/2014  13:18:00      -87.897      553.276      -75.378      142.665      225.853       72.198    20353.167    51009.524     5212.578       19.803        3.829      560.214       72.452        0.017      337.185        8.985      861.568
03/17/2014  13:19:00      -90.392      425.503      -52.099      141.464      222.195       88.602    20012.187    49370.788     7850.352       13.457        3.862      434.998      100.853        0.054      337.522        9.549      861.567
03/17/2014  13:20:00     -151.608      583.026      -63.476      156.395      209.308       82.955    24459.372    43809.986     6881.465       22.103        3.758      602.416       83.286        0.019      337.286        9.155      861.571
03/17/2014  13:21:00     -132.327      505.727      -44.891      120.896      250.068       96.280    14615.734    62533.977     9269.747       18.084        4.321      522.753      114.890        0.048      337.558        9.612      861.608
03/17/2014  13:22:00      -66.969      687.865      -82.445       89.443      127.917       62.938     8000.138    16362.848     3961.154       25.638        1.416      691.118       46.679        0.005      337.062        8.779      861.610
03/17/2014  13:23:00      -80.745      543.108      -49.055      111.799      174.700       86.670    12499.001    30520.050     7511.706       17.720        2.527      549.077       88.814        0.026      337.509        9.528      861.634
03/17/2014  13:24:00     -130.636      378.349      -23.202      112.447      154.765       89.559    12644.386    23952.151     8020.736       10.268        2.231      400.267       98.836        0.061      337.491        9.496      861.657
03/17/2014  13:25:00      -79.800      550.139      -54.665       96.312      219.134       63.609     9275.960    48019.612     4046.133       18.666        3.067      555.897       89.194        0.026      337.237        9.074      861.611
03/17/2014  13:26:00      -22.925      465.882      -27.236      110.455      293.924      113.717    12200.308    86391.474    12931.565       16.490        5.576      466.445      150.360        0.104      337.432        9.398      861.570
03/17/2014  13:27:00     -227.048      565.415      -72.951      166.334      221.705       92.503    27666.943    49152.938     8556.756       23.095        4.269      609.299       92.489        0.023      337.305        9.186      861.594
03/17/2014  13:28:00     -323.778      554.592      -92.520      180.872      207.399      109.987    32714.762    43014.379    12097.156       25.438        4.391      642.188      125.488        0.038      337.258        9.107      861.594
03/17/2014  13:29:00      -11.607      688.263      -81.920      132.976      211.017       90.948    17682.489    44528.358     8271.563       27.550        3.524      688.361       96.349        0.020      337.411        9.364      861.507
03/17/2014  13:30:00      -68.938      633.784      -53.586      164.007      232.641      108.161    26898.239    54121.630    11698.847       25.099        4.636      637.522      114.262        0.032      337.577        9.640      861.512
03/17/2014  13:31:00     -110.998      474.032      -34.610      128.830      175.292       88.958    16597.270    30727.120     7913.550       14.672        2.762      486.854       89.586        0.034      337.500        9.513      861.516
03/17/2014  13:32:00     -145.134      557.968      -64.511      161.910      271.190      103.367    26214.711    73544.028    10684.763       22.348        5.522      576.535      118.549        0.042      337.621        9.715      861.496
03/17/2014  13:33:00     -276.278      429.903      -68.223      132.549      198.437       88.634    17569.261    39377.142     7855.924       16.529        3.240      511.024       76.254        0.022      337.396        9.339      861.528
03/17/2014  13:34:00      -44.643      610.466      -89.648      131.992      195.502       86.821    17421.899    38220.870     7537.890       22.293        3.159      612.097       97.597        0.025      337.379        9.310      861.492
03/17/2014  13:35:00     -163.957      550.060      -58.519      140.112      177.357       83.460    19631.338    31455.343     6965.502       19.545        2.903      573.975       88.817        0.024      337.638        9.744      861.531
03/17/2014  13:36:00      -62.892      490.079      -68.336      132.478      178.061       76.356    17550.362    31705.762     5830.253       15.193        2.754      494.098       86.596        0.031      337.251        9.096      861.540
03/17/2014  13:37:00     -207.971      417.980      -50.809      138.188      164.742       80.635    19095.814    27139.941     6501.963       13.663        2.637      466.861       94.623        0.041      337.398        9.342      861.487
03/17/2014  13:38:00     -203.079      384.304      -47.967      123.877      143.492       83.001    15345.497    20589.911     6889.091       11.702        2.141      434.662       90.999        0.044      337.642        9.751      861.474
03/17/2014  13:39:00     -130.913      658.659      -67.204      163.747      338.741       95.008    26813.114   114745.248     9026.556       30.300        7.529      671.543      125.918        0.035      337.470        9.462      861.469
03/17/2014  13:40:00      -22.691      698.145      -85.390      108.772      186.684       82.712    11831.266    34851.058     6841.214       27.436        2.676      698.514       83.663        0.014      337.311        9.197      861.470
03/17/2014  13:41:00      -83.110      355.671      -29.774      160.931      211.688      106.425    25898.737    44811.731    11326.322       10.815        4.102      365.252      118.542        0.105      337.770        9.966      861.460
03/17/2014  13:42:00     -202.262      490.402      -64.861      126.277      230.296       91.289    15945.961    53036.446     8333.709       18.145        3.866      530.476       99.822        0.035      337.449        9.428      861.481
03/17/2014  13:43:00     -196.930      446.739      -54.119      164.458      226.041      105.410    27046.467    51094.513    11111.240       16.525        4.463      488.218      116.458        0.057      337.378        9.309      861.499
03/17/2014  13:44:00     -257.234      592.768      -74.734      148.422      173.567       94.483    22029.081    30125.470     8927.023       24.209        3.054      646.175       98.113        0.023      337.195        9.001      861.477
03/17/2014  13:45:00     -211.353      548.202      -74.238      182.608      275.065       88.769    33345.825    75660.805     7879.958       23.377        5.844      587.534      109.605        0.035      337.267        9.123      861.487
03/17/2014  13:46:00     -153.498      626.251      -75.482      154.797      192.970       88.303    23962.106    37237.326     7797.396       24.521        3.450      644.789       83.446        0.017      337.278        9.142      861.496
03/17/2014  13:47:00     -138.087      654.174      -70.166      136.829      248.930       79.014    18722.146    61966.323     6243.239       26.942        4.347      668.589       95.465        0.020      337.434        9.404      861.457
03/17/2014  13:48:00     -159.132      531.585      -61.309      127.851      207.619       67.861    16345.854    43105.489     4605.087       18.785        3.203      554.892       70.498        0.016      337.343        9.250      861.457
03/17/2014  13:49:00      -80.748      382.901      -40.212       89.288      159.130       66.669     7972.291    25322.433     4444.738        9.624        1.887      391.323       76.052        0.038      337.502        9.515      861.431
03/17/2014  13:50:00     -110.265      605.956      -58.019      156.506      251.075       99.128    24494.264    63038.628     9826.270       24.001        4.868      615.907      126.065        0.042      337.649        9.763      861.426
03/17/2014  13:51:00     -146.279      452.729      -51.378      146.416      217.016       84.119    21437.641    47095.776     7075.928       15.229        3.780      475.774       93.052        0.038      337.682        9.819      861.460
03/17/2014  13:52:00     -107.362      545.742      -44.525      108.902      211.495       76.871    11859.604    44729.961     5909.146       18.691        3.125      556.202       96.041        0.030      337.277        9.141      861.436
03/17/2014  13:53:00     -147.239      358.782      -19.616      130.915      230.644       85.418    17138.664    53196.719     7296.260       11.419        3.882      387.820      111.541        0.083      337.577        9.642      861.401
03/17/2014  13:54:00     -141.736      597.202      -67.740      157.920      206.295       91.712    24938.576    42557.830     8411.091       22.860        3.795      613.791      101.649        0.027      337.389        9.327      861.400
03/17/2014  13:55:00     -237.245      522.621      -65.689      180.364      186.287      102.349    32531.143    34703.026    10475.318       20.571        3.885      573.949      114.422        0.040      337.464        9.453      861.419
03/17/2014  13:56:00     -230.216      542.088      -59.589      189.844      234.736       87.893    36040.617    55100.795     7725.136       22.462        4.943      588.947       90.740        0.024      337.498        9.510      861.421
03/17/2014  13:57:00     -214.476      419.191      -65.021      150.402      222.443       75.442    22620.844    49480.878     5691.461       15.186        3.890      470.873       72.098        0.023      337.662        9.784      861.409
03/17/2014  13:58:00     -189.888      410.230      -41.446      112.857      188.518       89.432    12736.664    35538.974     7998.082       13.116        2.814      452.047       96.882        0.046      337.730        9.899      861.437
03/17/2014  13:59:00     -225.247      398.442      -54.639      130.760      172.606       86.747    17098.110    29792.751     7524.959       13.344        2.721      457.703       93.808        0.042      337.396        9.339      861.476
03/17/2014  14:00:00     -161.513      435.917      -51.908      113.571      136.300       58.214    12898.259    18577.777     3388.852       12.683        1.743      464.876       52.442        0.013      337.501        9.514      861.459
03/17/2014  14:01:00     -277.355      628.004      -84.282      163.946      168.291       94.937    26878.377    28321.954     9013.046       27.130        3.211      686.524       85.049        0.015      337.302        9.181      861.459
03/17/2014  14:02:00     -117.827      617.139      -62.360      110.355      257.595       67.204    12178.289    66355.429     4516.387       24.082        4.153      628.286       90.694        0.021      337.369        9.293      861.521
03/17/2014  14:03:00     -132.561      560.214      -73.505      122.970      204.033       68.266    15121.561    41629.381     4660.240       19.910        3.071      575.684       78.641        0.019      337.316        9.206      861.486
03/17/2014  14:04:00     -161.644      687.046      -85.406      189.204      184.717       95.649    35797.968    34120.265     9148.719       29.225        3.953      705.805       90.097        0.016      337.279        9.142      861.517
03/17/2014  14:05:00      -93.258      504.688      -41.120      124.692      215.206       74.157    15547.987    46313.586     5499.272       16.622        3.368      513.232       92.607        0.033      337.432        9.399      861.493
03/17/2014  14:06:00      -77.329      530.950      -60.851      145.076      128.383       80.031    21046.985    16482.235     6404.900       16.775        2.197      536.552       60.830        0.013      337.337        9.242      861.520
03/17/2014  14:07:00      -90.141      535.688      -47.657      121.953      233.376       74.476    14872.522    54464.252     5546.614       18.611        3.744      543.220       94.252        0.030      337.552        9.600      861.502
03/17/2014  14:08:00     -133.300      456.103      -50.120      140.903      176.941       80.029    19853.705    31308.267     6404.610       14.293        2.878      475.183       73.371        0.024      337.420        9.378      861.539
03/17/2014  14:09:00      -75.517      568.493      -51.882      137.632      190.028       79.877    18942.603    36110.746     6380.272       19.649        3.072      573.487       81.817        0.020      337.303        9.184      861.547
03/17/2014  14:10:00      -98.692      451.406      -57.662      138.557      150.847       68.338    19197.985    22754.945     4670.113       13.172        2.331      462.069       66.971        0.021      337.503        9.518      861.551
03/17/2014  14:11:00     -260.362      346.536      -53.007      153.863      171.372       86.800    23673.950    29368.447     7534.196       12.562        3.029      433.446       84.613        0.038      337.786        9.993      861.565
03/17/2014  14:12:00     -210.168      347.775      -41.010      179.917      164.625       97.438    32370.193    27101.475     9494.227       11.787        3.448      406.347      101.521        0.062      337.857       10.112      861.579
03/17/2014  14:13:00       15.000      410.529      -39.613      101.896      219.733       86.523    10382.883    48282.777     7486.200       11.823        3.308      410.803      115.266        0.079      337.602        9.684      861.592
03/17/2014  14:14:00       71.683      360.559      -21.154      126.085      182.626      111.722    15897.547    33352.390    12481.866        9.865        3.087      367.616      114.791        0.098      337.595        9.672      861.505
03/17/2014  14:15:00       70.440      391.402      -44.003      115.056      194.465      100.872    13237.810    37816.471    10175.202       11.065        3.061      397.690      110.885        0.078      337.708        9.861      861.486
03/17/2014  14:16:00     -119.772      589.120      -64.314      116.408      215.007       80.532    13550.709    46227.863     6485.422       21.589        3.313      601.172       90.763        0.023      337.651        9.766      861.572
03/17/2014  14:17:00      -78.277      493.334      -58.899      105.093      160.256       64.561    11044.484    25682.067     4168.142       14.693        2.045      499.505       71.160        0.020      337.341        9.246      861.511
03/17/2014  14:18:00     -237.818      424.752      -42.140      139.446      233.047      103.815    19445.274    54310.906    10777.576       16.162        4.227      486.797      111.973        0.053      337.658        9.777      861.519
03/17/2014  14:19:00     -403.548      533.204     -106.710      174.163      169.983       97.070    30332.603    28894.334     9422.668       26.358        3.432      668.698      105.851        0.025      337.393        9.334      861.521
03/17/2014  14:20:00        9.100      458.281      -41.902      145.500      219.012      107.832    21170.351    47966.323    11627.757       14.630        4.038      458.371      129.522        0.080      337.698        9.845      861.488
03/17/2014  14:21:00       13.911      475.500      -64.989      119.687      230.442       80.125    14324.935    53103.364     6420.053       15.217        3.692      475.704       92.222        0.038      337.893       10.170      861.426
03/17/2014  14:22:00      -58.402      267.111      -22.682      135.828      166.942       74.516    18449.205    27869.612     5552.568        6.356        2.594      273.421       73.433        0.072      338.139       10.584      861.393
03/17/2014  14:23:00       43.105      378.689      -49.072      113.892      179.220       83.003    12971.343    32119.782     6889.433        9.982        2.599      381.134       89.736        0.055      338.129       10.567      861.340
03/17/2014  14:24:00       19.447      329.829       -7.190      117.155      219.061      105.023    13725.392    47987.895    11029.805        9.097        3.637      330.402      110.496        0.112      337.930       10.235      861.332
03/17/2014  14:25:00     -104.031      393.715      -44.919       98.219      165.060       74.527     9647.021    27244.892     5554.229       10.514        2.122      407.227       72.106        0.031      338.101       10.520      861.388
03/17/2014  14:26:00     -127.051      433.358      -45.242      116.375      244.194       82.071    13543.172    59630.947     6735.567       14.293        3.995      451.599      100.470        0.049      337.644        9.754      861.424
03/17/2014  14:27:00     -186.638      504.116      -48.157      150.215      242.236       95.767    22564.565    58678.381     9171.315       19.083        4.521      537.556      111.689        0.043      337.753        9.937      861.400
03/17/2014  14:28:00      -35.340      610.983      -60.213      147.224      236.734      107.967    21675.052    56043.013    11656.773       23.376        4.469      612.004      129.860        0.045      337.728        9.895      861.404
03/17/2014  14:29:00      -78.213      488.052      -50.410      148.091      217.188      106.185    21930.935    47170.627    11275.305       16.360        4.019      494.279      107.835        0.048      337.762        9.952      861.407
03/17/2014  14:30:00      -48.986      651.863      -76.327      118.706      156.965       86.689    14091.209    24637.880     7514.929       23.969        2.312      653.701       81.275        0.015      337.479        9.477      861.452
03/17/2014  14:31:00      -65.130      599.788      -62.012      115.614      222.799       83.207    13366.532    49639.364     6923.382       21.887        3.496      603.314       85.727        0.020      337.427        9.390      861.442
03/17/2014  14:32:00      -75.031      527.631      -59.177      134.526      140.435       68.174    18097.189    19722.015     4647.729       16.499        2.123      532.939       69.381        0.017      337.456        9.440      861.397
03/17/2014  14:33:00     -239.916      419.799      -59.502      158.583      156.919      102.457    25148.598    24623.514    10497.357       14.879        3.013      483.519       80.307        0.028      337.660        9.782      861.395
03/17/2014  14:34:00     -259.016      482.023      -52.568      133.610      190.908       96.759    17851.623    36445.709     9362.398       18.292        3.183      547.206       93.398        0.029      337.540        9.581      861.383
03/17/2014  14:35:00      -60.580      389.753      -32.573      118.292      141.596       79.468    13993.105    20049.343     6315.213        9.849        2.018      394.433       77.541        0.039      337.793       10.003      861.335
03/17/2014  14:36:00     -123.190      273.724      -45.996      119.085      144.294       70.626    14181.282    20820.792     4988.041        6.610        2.000      300.167       61.921        0.043      337.995       10.342      861.331
03/17/2014  14:37:00     -155.324      606.286      -69.643      132.087      228.357       79.703    17447.021    52146.956     6352.522       23.624        3.797      625.866       87.069        0.019      337.705        9.856      861.336
03/17/2014  14:38:00     -141.630      653.794      -74.791      151.848      200.979       95.573    23057.891    40392.388     9134.292       26.283        3.629      668.959       90.450        0.018      337.397        9.341      861.387
03/17/2014  14:39:00     -108.521      639.973      -57.716      188.948      262.003      126.432    35701.218    68645.368    15985.062       27.248        6.017      649.109      151.834        0.055      337.479        9.478      861.363
03/17/2014  14:40:00      -35.240      420.159      -44.733      122.886      209.339      104.533    15100.902    43822.783    10927.203       12.480        3.493      421.635      121.219        0.083      337.896       10.178      861.340
03/17/2014  14:41:00     -107.787      370.636      -51.372      130.587      196.986       72.577    17052.945    38803.368     5267.432       10.636        3.056      385.992       71.622        0.034      338.001       10.353      861.359
03/17/2014  14:42:00     -151.435      476.337      -54.762      189.184      201.743      104.345    35790.587    40700.407    10887.891       17.009        4.369      499.830      104.919        0.044      337.663        9.787      861.342
03/17/2014  14:43:00      -10.099      382.804      -24.917      157.194      246.914      110.030    24709.927    60966.520    12106.564       12.250        4.889      382.937      136.284        0.127      337.931       10.235      861.310
03/17/2014  14:44:00     -132.664      584.222      -66.455      176.987      299.528      100.647    31324.227    89717.254    10129.896       24.723        6.559      599.096      116.955        0.038      337.502        9.515      861.347
03/17/2014  14:45:00     -254.185      478.835      -68.173      142.869      197.711       95.667    20411.616    39089.777     9152.102       18.358        3.433      542.119      103.953        0.037      337.374        9.302      861.339
03/17/2014  14:46:00     -196.088      336.917      -47.004      133.295      189.778       82.053    17767.430    36015.686     6732.694       10.733        3.026      389.825       74.643        0.037      337.675        9.806      861.354
03/17/2014  14:47:00     -221.160      455.827      -60.138      149.130      211.782      103.644    22239.670    44851.778    10742.097       16.905        3.892      506.646      105.322        0.043      337.668        9.795      861.390
03/17/2014  14:48:00     -148.937      624.231      -66.902      131.713      182.841       88.536    17348.354    33430.909     7838.568       23.746        2.931      641.753       85.596        0.018      337.313        9.200      861.418
03/17/2014  14:49:00      -60.799      389.447      -42.903       87.794      163.323       61.544     7707.726    26674.312     3787.609        9.768        1.908      394.164       75.644        0.037      337.550        9.596      861.362
03/17/2014  14:50:00        8.592      523.750      -48.031      131.578      256.527      102.904    17312.718    65806.276    10589.333       18.518        4.685      523.820      116.152        0.049      337.497        9.508      861.361
03/17/2014  14:51:00       55.977      523.120      -66.606      120.378      209.634       98.509    14490.801    43946.520     9704.088       17.467        3.407      526.106      101.995        0.038      337.425        9.387      861.347
03/17/2014  14:52:00       42.617      451.743      -32.620      162.952      295.165      115.501    26553.198    87122.637    13340.582       16.696        6.351      453.749      149.277        0.108      337.525        9.554      861.364
03/17/2014  14:53:00       36.572      393.773      -26.222      141.590      225.559      102.896    20047.757    50876.734    10587.540       11.928        4.076      395.467      112.125        0.080      337.539        9.579      861.353
03/17/2014  14:54:00     -172.607      343.155      -40.978      111.320      222.696       85.111    12392.226    49593.698     7243.848       10.921        3.461      384.120       81.349        0.045      337.684        9.822      861.357
03/17/2014  14:55:00     -273.477      504.131      -68.594      136.902      183.563       98.460    18742.285    33695.394     9694.309       19.788        3.107      573.531       92.700        0.026      337.624        9.721      861.350
03/17/2014  14:56:00     -142.901      334.427      -33.745      160.175      214.887       92.269    25656.134    46176.264     8513.602       10.686        4.017      363.679       95.651        0.069      337.678        9.810      861.374
03/17/2014  14:57:00      -10.615      447.664      -61.431      163.483      206.423      101.934    26726.649    42610.537    10390.605       14.199        3.986      447.790       91.769        0.042      337.845       10.091      861.335
03/17/2014  14:58:00     -225.701      512.934      -61.936      114.406      152.237       75.286    13088.623    23176.050     5668.041       17.990        2.097      560.395       76.010        0.018      337.668        9.795      861.390
03/17/2014  14:59:00      -54.296      322.784      -30.777      103.664      176.915       73.225    10746.138    31298.741     5361.906        7.774        2.370      327.319       82.052        0.063      337.928       10.233      861.399
03/17/2014  15:00:00      -57.340      453.147      -31.069      155.600      291.465      102.682    24211.504    84951.590    10543.564       16.463        5.985      456.760      136.335        0.089      337.695        9.839      861.408
03/17/2014  15:01:00      -19.848      365.772      -45.301      152.609      194.108       95.426    23289.408    37677.901     9106.142       10.314        3.504      366.310       90.447        0.061      337.718        9.878      861.385
03/17/2014  15:02:00      -55.803      487.705      -47.815      137.357      202.181       91.241    18867.064    40877.102     8324.893       15.565        3.403      490.887      100.952        0.042      337.706        9.858      861.389
03/17/2014  15:03:00     -159.213      443.431      -51.595      150.415      170.603       82.814    22624.723    29105.345     6858.129       14.160        2.929      471.147       86.387        0.034      337.837       10.077      861.418
03/17/2014  15:04:00     -117.598      426.405      -34.267      163.087      195.964      104.433    26597.282    38402.032    10906.334       13.635        3.795      442.324      104.932        0.056      337.888       10.163      861.435
03/17/2014  15:05:00      -89.834      369.947      -37.634      123.251      188.594       77.392    15190.859    35567.576     5989.499       10.154        2.837      380.698       80.706        0.045      337.821       10.051      861.455
03/17/2014  15:06:00     -145.057      512.704      -52.885      184.420      167.208       95.056    34010.884    27958.536     9035.614       17.884        3.550      532.829       96.324        0.033      337.702        9.851      861.461
03/17/2014  15:07:00     -113.114      507.526      -51.575      152.795      255.021       88.220    23346.392    65035.909     7782.700       18.458        4.808      519.978       93.983        0.033      337.716        9.873      861.462
03/17/2014  15:08:00     -249.165      325.141      -44.824      175.695      195.741       71.374    30868.716    38314.719     5094.301       12.203        3.714      409.634       65.630        0.026      337.557        9.609      861.464
03/17/2014  15:09:00     -137.000      361.684      -46.850      164.987      241.183       83.004    27220.670    58169.036     6889.633       12.201        4.614      386.762       94.014        0.059      337.401        9.347      861.427
03/17/2014  15:10:00      -61.276      580.775      -68.643      163.823      157.552       88.198    26838.067    24822.539     7778.914       20.259        2.972      583.999       83.723        0.021      337.675        9.806      861.390
03/17/2014  15:11:00      -24.856      500.631      -52.303      137.862      220.464      103.104    19005.857    48604.405    10630.349       16.610        3.912      501.248      118.049        0.055      337.806       10.026      861.390
03/17/2014  15:12:00       37.259      471.535      -43.708      127.683      266.192      115.858    16302.864    70858.332    13423.178       16.309        5.029      473.005      135.928        0.083      337.634        9.737      861.398
03/17/2014  15:13:00      148.339      373.426        5.174      216.040      208.036      153.530    46673.237    43279.078    23571.410       13.748        5.676      401.810      145.113        0.130      337.496        9.506      861.345
03/17/2014  15:14:00       53.116      364.190      -18.462      161.359      207.333      110.200    26036.846    42987.030    12144.124       10.847        4.058      368.043      116.263        0.100      337.644        9.754      861.386
03/17/2014  15:15:00      -83.344      420.052      -22.079      143.060      243.737      106.864    20466.150    59407.592    11419.959       13.757        4.565      428.240      125.330        0.086      337.603        9.685      861.430
03/17/2014  15:16:00      -11.325      552.403      -53.389      166.813      271.326      115.486    27826.676    73617.880    13337.079       21.143        5.739      552.519      138.588        0.063      337.377        9.306      861.418
03/17/2014  15:17:00        7.408      397.354      -29.005      153.203      205.020      109.157    23471.287    42033.247    11915.277       11.809        3.871      397.423      115.205        0.084      337.546        9.591      861.384
03/17/2014  15:18:00       42.488      263.470       -5.277      190.859      216.907      108.562    36427.001    47048.678    11785.758        8.324        4.763      266.874      119.126        0.199      337.655        9.772      861.335
03/17/2014  15:19:00      -41.064      581.474      -74.049      140.407      244.779       94.470    19714.148    59916.996     8924.581       21.690        4.428      582.922      110.001        0.036      337.626        9.725      861.334
03/17/2014  15:20:00      -79.734      477.700      -54.809      114.039      228.300       87.531    13004.799    52120.994     7661.650       15.516        3.639      484.309      102.630        0.045      337.831       10.067      861.366
03/17/2014  15:21:00     -133.968      542.837      -60.799      114.242      168.636       70.551    13051.183    28437.999     4977.384       18.138        2.323      559.124       73.426        0.017      337.579        9.645      861.390
03/17/2014  15:22:00     -179.205      362.702      -21.119      161.604      210.113      100.399    26115.784    44147.289    10080.055       12.221        4.017      404.558      109.039        0.073      337.611        9.699      861.371
03/17/2014  15:23:00     -164.391      449.667      -44.656      150.238      202.432       95.029    22571.356    40978.859     9030.568       15.189        3.629      478.775       84.645        0.031      337.493        9.502      861.387
03/17/2014  15:24:00     -121.776      412.168      -40.937      134.274      211.576       84.740    18029.470    44764.534     7180.874       12.817        3.499      429.781       95.457        0.049      337.487        9.491      861.325
03/17/2014  15:25:00     -141.584      431.899      -54.133      143.719      200.602       88.906    20655.178    40241.071     7904.352       13.914        3.440      454.514       78.283        0.030      337.512        9.534      861.319
03/17/2014  15:26:00      -13.733      377.718      -37.484      134.610      204.451       92.525    18119.828    41800.333     8560.924       10.636        3.424      377.968      105.643        0.078      337.685        9.823      861.295
03/17/2014  15:27:00      -41.745      363.266      -40.358      181.514      265.920      105.709    32947.154    70713.549    11174.475       12.506        5.742      365.657      115.567        0.100      337.839       10.081      861.305
03/17/2014  15:28:00      -27.735      655.893      -63.279      123.660      172.788       90.210    15291.789    29855.561     8137.858       24.412        2.664      656.479       94.507        0.021      337.342        9.246      861.338
03/17/2014  15:29:00     -110.956      573.842      -61.939      144.553      216.900       86.768    20895.486    47045.455     7528.753       21.044        3.773      584.471      104.331        0.032      337.525        9.554      861.296
03/17/2014  15:30:00     -173.528      351.429      -48.957      174.522      224.192       87.394    30457.987    50261.861     7637.730       12.217        4.418      391.937      112.711        0.083      337.653        9.769      861.296
03/17/2014  15:31:00      -85.299      441.109      -42.629      159.922      192.381       91.241    25575.155    37010.305     8324.906       13.728        3.546      449.281      102.470        0.052      337.498        9.509      861.327
03/17/2014  15:32:00       53.585      259.367       -3.767      129.850      147.411       83.499    16860.948    21729.929     6972.163        5.785        2.278      264.845       87.424        0.109      337.703        9.853      861.308
03/17/2014  15:33:00       -7.235      373.382      -40.064      157.140      200.473      100.121    24692.930    40189.430    10024.122       10.797        3.745      373.453      107.562        0.083      337.687        9.826      861.346
03/17/2014  15:34:00     -178.580      546.586      -59.408      150.660      188.909       92.115    22698.456    35686.518     8485.120       20.051        3.344      575.019       93.339        0.026      337.497        9.507      861.380
03/17/2014  15:35:00      -64.127      359.392      -27.635       95.818      122.853       72.426     9181.157    15092.761     5245.559        8.177        1.476      365.069       63.758        0.031      337.684        9.820      861.375
03/17/2014  15:36:00      -49.006      573.844      -69.148      154.920      172.712       80.848    24000.165    29829.425     6536.364       19.841        3.018      575.933       87.210        0.023      337.494        9.503      861.379
03/17/2014  15:37:00      -52.069      374.230      -31.278      128.857      192.267       89.466    16604.197    36966.612     8004.170       10.264        3.079      377.835       93.511        0.061      337.665        9.790      861.382
03/17/2014  15:38:00      -98.894      334.161      -29.835      128.799      129.236       78.026    16589.244    16701.863     6088.053        8.085        1.969      348.488       67.794        0.038      337.826       10.059      861.392
03/17/2014  15:39:00     -111.402      441.061      -48.743      162.632      181.401       87.407    26449.077    32906.189     7639.993       13.814        3.350      454.912       92.252        0.041      337.551        9.599      861.383
03/17/2014  15:40:00        8.603      469.784      -33.583      108.781      273.123      119.392    11833.396    74596.406    14254.539       16.127        5.034      469.863      141.161        0.090      337.521        9.548      861.364
03/17/2014  15:41:00        7.839      332.236      -40.699      103.242      167.812       66.693    10658.811    28160.761     4447.990        7.767        2.163      332.329       67.941        0.042      337.704        9.854      861.312
03/17/2014  15:42:00      -75.751      453.778      -46.790      166.462      193.443       99.504    27709.712    37420.276     9901.111       14.442        3.752      460.058      105.176        0.052      337.674        9.803      861.331
03/17/2014  15:43:00      -72.665      649.480      -67.587      123.861      177.913       75.870    15341.516    31653.203     5756.296       24.220        2.638      653.533       75.836        0.013      337.360        9.277      861.341
03/17/2014  15:44:00      -71.087      349.337      -54.015      149.156      155.131       78.939    22247.401    24065.477     6231.372        9.127        2.627      356.496       89.442        0.063      337.705        9.856      861.340
03/17/2014  15:45:00        5.445      216.383      -24.713       85.658      110.236       63.219     7337.266    12151.868     3996.682        3.547        1.174      216.451       53.231        0.060      338.052       10.439      861.336
03/17/2014  15:46:00       23.698      356.685      -31.921      153.203      180.131       84.863    23471.262    32447.178     7201.644        9.595        3.156      357.472       86.933        0.059      337.735        9.906      861.361
03/17/2014  15:47:00      -29.090      375.231      -29.640      160.629      212.931       93.151    25801.779    45339.797     8677.020       11.115        3.991      376.357      100.567        0.071      337.776        9.974      861.346
03/17/2014  15:48:00      -30.277      328.281       -5.180      139.983      173.702       88.864    19595.249    30172.274     7896.762        8.318        2.883      329.675       99.847        0.092      337.684        9.821      861.337
03/17/2014  15:49:00       61.182      249.896      -12.693      139.599      142.719       98.383    19487.966    20368.801     9679.196        5.793        2.477      257.277       83.669        0.106      337.710        9.865      861.306
03/17/2014  15:50:00       31.177      391.247      -12.372      139.620      287.978      131.959    19493.671    82931.475    17413.296       13.699        5.992      392.487      157.124        0.160      337.649        9.763      861.320
03/17/2014  15:51:00      -16.353      471.921      -62.023      117.189      196.017       73.136    13733.352    38422.567     5348.866       14.215        2.875      472.204       87.345        0.034      337.409        9.361      861.321
03/17/2014  15:52:00      -33.782      423.518      -49.758      130.030      130.754       89.853    16907.866    17096.722     8073.628       11.252        2.104      424.863       73.491        0.030      337.573        9.635      861.331
03/17/2014  15:53:00       -6.679      429.563      -40.961      112.593      180.806       88.900    12677.145    32690.893     7903.279       11.975        2.664      429.615       93.496        0.047      337.657        9.777      861.340
03/17/2014  15:54:00       18.251      399.847      -36.412      109.489      214.807       96.957    11987.768    46142.189     9400.662       11.452        3.377      400.264       99.035        0.061      337.592        9.667      861.341
03/17/2014  15:55:00      -71.658      339.412      -48.676      116.349      150.768       72.927    13537.053    22731.066     5318.417        8.214        2.079      346.894       73.917        0.045      337.762        9.952      861.361
03/17/2014  15:56:00      -56.409      563.877      -61.608      130.691      233.640       87.747    17080.151    54587.728     7699.488       20.214        3.968      566.691      109.855        0.038      337.357        9.273      861.383
03/17/2014  15:57:00      -44.381      441.979      -35.546      106.618      225.477       80.844    11367.472    50840.038     6535.695       13.365        3.437      444.202      100.648        0.051      337.465        9.456      861.375
03/17/2014  15:58:00      -13.971      555.659      -69.041      141.060      159.921       87.078    19897.986    25574.833     7582.629       18.338        2.653      555.835       87.536        0.025      337.306        9.189      861.364
03/17/2014  15:59:00      -22.411      604.083      -82.616      147.396      200.252       95.727    21725.434    40100.968     9163.669       22.160        3.550      604.499       89.315        0.022      337.306        9.188      861.373
03/17/2014  16:00:00     -165.843      544.268      -86.473      159.200      210.373       79.486    25344.749    44256.991     6317.981       20.355        3.796      568.974       96.123        0.029      337.329        9.228      861.412
03/17/2014  16:01:00      -47.824      444.431      -45.492      150.760      185.172      103.087    22728.609    34288.717    10627.001       13.475        3.382      446.997       94.531        0.045      337.462        9.449      861.446
03/17/2014  16:02:00      -73.391      600.417      -76.446      108.913      116.738       53.351    11862.070    13627.669     2846.341       20.003        1.417      604.886       48.323        0.006      337.106        8.852      861.425
03/17/2014  16:03:00       18.978      584.650      -78.693      115.790      198.647       71.539    13407.433    39460.599     5117.877       20.317        2.899      584.958       76.450        0.017      337.229        9.060      861.409
03/17/2014  16:04:00       51.247      404.133      -32.274      107.867      219.291      110.185    11635.191    48088.750    12140.743       11.941        3.593      407.370      122.167        0.090      337.399        9.344      861.399
03/17/2014  16:05:00      120.953      433.443      -28.399      188.832      229.528      107.053    35657.606    52683.244    11460.425       15.154        4.990      450.002      133.754        0.088      337.406        9.353      861.384
03/17/2014  16:06:00      246.241      227.144       17.063      209.526      172.001      125.939    43901.270    29584.474    15860.553       10.092        4.467      335.006       98.315        0.086      337.541        9.581      861.306
03/17/2014  16:07:00      215.420      322.173      -16.834      219.214      224.016      134.407    48054.909    50183.096    18065.264       13.337        5.815      387.558      115.136        0.088      337.402        9.349      861.322
03/17/2014  16:08:00       60.673      396.529      -33.828      120.604      201.589      116.458    14545.325    40638.197    13562.406       11.539        3.437      401.144      119.253        0.088      337.448        9.426      861.380
03/17/2014  16:09:00      -88.043      405.378      -37.333       96.923      142.475       65.367     9393.999    20299.245     4272.811       10.371        1.698      414.828       66.692        0.026      337.409        9.359      861.376
03/17/2014  16:10:00      139.717      303.561       -3.646      180.839      225.632      147.138    32702.642    50909.893    21649.561       10.845        5.263      334.171      140.935        0.178      337.465        9.455      861.367
03/17/2014  16:11:00      149.759      189.846       14.049      156.925      165.073       95.904    24625.340    27248.953     9197.559        5.986        3.054      241.805       93.831        0.151      337.490        9.496      861.329
03/17/2014  16:12:00      154.557      308.026       -2.006      178.633      206.288      141.782    31909.827    42554.549    20102.111       10.665        4.728      344.628      130.570        0.144      337.527        9.558      861.304
03/17/2014  16:13:00      131.722      279.889       -0.048      177.414      198.568      139.351    31475.558    39429.223    19418.659        9.299        4.516      309.335      135.129        0.191      337.577        9.642      861.311
03/17/2014  16:14:00      104.479      337.208      -37.255      148.987      246.415      116.757    22197.013    60720.436    13632.132       11.126        4.827      353.023      132.996        0.142      337.366        9.289      861.331
03/17/2014  16:15:00       55.820      260.567        0.326      126.467      145.013       94.666    15993.997    21028.799     8961.742        5.849        2.299      266.479       90.217        0.115      337.598        9.677      861.334
03/17/2014  16:16:00       -5.686      529.817      -64.612      116.214      195.390       84.828    13505.600    38177.300     7195.832       17.188        2.944      529.848       96.035        0.033      337.741        9.917      861.357
03/17/2014  16:17:00     -127.119      401.691      -47.837      116.997      176.018       70.210    13688.315    30982.487     4929.398       11.469        2.480      421.325       75.837        0.032      337.700        9.849      861.346
03/17/2014  16:18:00       -8.606      447.317      -58.002      138.327      193.917       84.896    19134.343    37603.646     7207.368       13.373        3.197      447.399       91.388        0.042      337.456        9.439      861.366
03/17/2014  16:19:00       75.823      342.426      -22.880      120.122      202.583      100.284    14429.229    41039.752    10056.973        9.451        3.276      350.720      123.269        0.124      337.386        9.322      861.342
03/17/2014  16:20:00       98.411      275.453       -8.800      148.075      224.706      112.736    21926.258    50492.771    12709.415        8.537        4.256      292.504      113.303        0.150      337.502        9.517      861.292
03/17/2014  16:21:00       -5.431      416.457      -33.354      163.963      195.848      110.049    26883.858    38356.419    12110.829       12.595        3.868      416.492      111.565        0.072      337.460        9.446      861.343
03/17/2014  16:22:00       55.593      388.448      -38.282      119.042      183.087      111.282    14170.945    33520.684    12383.665       10.775        3.004      392.406      115.723        0.087      337.370        9.296      861.300
03/17/2014  16:23:00       57.698      427.826      -25.459      170.588      260.181      130.827    29100.370    67693.904    17115.693       15.044        5.695      431.699      145.091        0.113      337.403        9.349      861.272
03/17/2014  16:24:00      -52.753      381.413      -36.633      110.068      184.869       75.383    12114.875    34176.704     5682.620       10.078        2.599      385.043       85.145        0.049      337.511        9.530      861.271
03/17/2014  16:25:00      -23.415      424.553      -48.956       96.415      183.145       78.519     9295.942    33542.094     6165.234       11.609        2.450      425.198       86.559        0.041      337.473        9.469      861.244
03/17/2014  16:26:00      -64.458      395.985      -51.298      117.238      215.167       73.368    13744.792    46296.967     5382.861       11.449        3.271      401.197       73.533        0.034      337.780        9.982      861.251
03/17/2014  16:27:00     -211.020      400.875      -66.012      182.631      234.917       97.887    33353.971    55186.173     9581.843       15.384        4.906      453.023      113.772        0.063      337.571        9.633      861.314
03/17/2014  16:28:00       -7.274      367.426      -25.943      132.084      204.275      102.798    17446.261    41728.275    10567.504       10.272        3.487      367.498      118.299        0.104      337.422        9.383      861.314
03/17/2014  16:29:00      -77.215      481.612      -53.415      105.738      148.388       63.243    11180.489    22018.861     3999.702       13.897        1.860      487.762       62.519        0.016      337.358        9.275      861.316
03/17/2014  16:30:00      -75.569      541.349      -63.134      127.896      158.170       78.276    16357.429    25017.596     6127.084       17.512        2.375      546.598       75.231        0.019      337.490        9.497      861.304
03/17/2014  16:31:00      -96.364      429.166      -59.449      115.508      179.847       78.562    13342.209    32344.917     6172.028       12.442        2.593      439.852       84.108        0.037      337.744        9.921      861.297
03/17/2014  16:32:00     -199.713      353.339      -58.540      132.140      162.191       73.749    17460.917    26305.956     5438.916       10.867        2.460      405.874       71.369        0.031      337.521        9.548      861.319
03/17/2014  16:33:00     -185.363      346.902      -48.515      148.062      137.776       90.067    21922.298    18982.143     8112.079       10.303        2.451      393.320       86.057        0.048      337.458        9.443      861.287
03/17/2014  16:34:00      -43.699      454.198      -43.675       81.242      127.344       66.823     6600.233    16216.567     4465.314       11.869        1.364      456.295       71.098        0.024      337.585        9.655      861.286
03/17/2014  16:35:00     -149.282      442.939      -73.197      142.712      175.795       71.183    20366.818    30903.944     5067.040       14.008        2.817      467.419       69.670        0.022      337.631        9.731      861.271
03/17/2014  16:36:00      -73.794      207.351       -7.968      138.435      191.321       80.098    19164.269    36603.541     6415.759        5.533        3.109      220.091       93.645        0.181      337.776        9.976      861.256
03/17/2014  16:37:00     -107.261      182.631      -22.240      118.786      121.722       67.503    14110.116    14816.159     4556.662        3.941        1.674      211.800       70.891        0.112      337.780        9.983      861.245
03/17/2014  16:38:00       37.199      493.972      -62.754      124.644      213.429       85.683    15536.065    45551.982     7341.646       15.887        3.421      495.371      106.383        0.046      337.503        9.517      861.236
03/17/2014  16:39:00      -14.042      495.061      -65.714      117.982      131.433       67.925    13919.760    17274.545     4613.844       14.270        1.790      495.260       64.470        0.017      337.468        9.458      861.230
03/17/2014  16:40:00      -55.285      386.512      -46.087      117.868      161.712       69.340    13892.871    26150.865     4808.002        9.970        2.243      390.446       79.838        0.042      337.777        9.977      861.220
03/17/2014  16:41:00      -73.411      517.721      -54.143      132.110      149.734       79.872    17453.086    22420.138     6379.470       16.129        2.313      522.899       83.001        0.025      337.465        9.455      861.213
03/17/2014  16:42:00     -143.760      199.415      -21.851      114.349      151.841       64.854    13075.680    23055.827     4206.055        5.062        2.017      245.832       48.868        0.040      337.775        9.975      861.217
03/17/2014  16:43:00     -144.811      224.572      -25.152      101.118      136.809       64.431    10224.802    18716.595     4151.360        5.256        1.655      267.213       65.429        0.060      337.756        9.942      861.178
03/17/2014  16:44:00     -108.474      424.511      -51.102      124.252      121.959       70.186    15438.662    14873.982     4926.055       11.491        1.762      438.151       66.546        0.023      337.737        9.910      861.214
03/17/2014  16:45:00     -184.452      481.536      -48.186      118.917      214.592       91.101    14141.366    46049.914     8299.359       16.834        3.425      515.655       92.004        0.032      337.581        9.648      861.231
03/17/2014  16:46:00      -58.629      693.156      -78.829       92.396      123.959       49.300     8537.075    15365.800     2430.501       25.822        1.317      695.631       49.486        0.005      337.176        8.971      861.248
03/17/2014  16:47:00     -163.647      465.866      -50.582      122.696      227.521       72.416    15054.195    51765.812     5244.136       15.920        3.603      493.773      103.157        0.044      337.399        9.343      861.247
03/17/2014  16:48:00      -45.618      427.656      -46.741       95.963      178.655       78.146     9208.984    31917.465     6106.871       11.718        2.362      430.082       83.195        0.037      337.451        9.430      861.259
03/17/2014  16:49:00       -9.140      527.826      -68.335       84.077      101.525       56.870     7068.902    10307.359     3234.205       15.198        1.031      527.905       57.660        0.012      337.285        9.152      861.237
03/17/2014  16:50:00      -63.071      420.505      -56.888       87.634      152.517       45.716     7679.689    23261.295     2089.961       10.853        1.652      425.208       64.189        0.023      337.295        9.170      861.218
03/17/2014  16:51:00       42.002      238.988       -7.561      104.850      135.647       71.607    10993.529    18400.003     5127.570        4.672        1.726      242.651       69.309        0.082      337.641        9.750      861.183
03/17/2014  16:52:00       69.105      237.957      -22.789      143.312      174.881       94.966    20538.446    30583.432     9018.502        6.102        3.007      247.789       90.539        0.134      337.650        9.763      861.154
03/17/2014  16:53:00      -37.795      360.036      -33.788      129.693      178.305       86.100    16820.280    31792.517     7413.277        9.410        2.801      362.015       92.033        0.065      337.705        9.857      861.188
03/17/2014  16:54:00      -20.430      442.802      -44.221      109.411      213.532       76.697    11970.731    45595.867     5882.374       13.094        3.172      443.273       98.850        0.050      337.572        9.633      861.184
03/17/2014  16:55:00       52.107      643.667      -92.424      130.818      174.192       96.696    17113.264    30342.820     9350.095       24.117        2.840      645.773       85.864        0.018      337.395        9.336      861.197
03/17/2014  16:56:00      -16.848      684.985      -83.403      106.679      145.092       71.031    11380.447    21051.822     5045.470       25.695        1.874      685.192       63.542        0.009      337.306        9.189      861.188
03/17/2014  16:57:00       20.824      491.488      -45.038      114.298      215.555       92.272    13064.004    46463.788     8514.130       15.602        3.402      491.929      109.649        0.050      337.397        9.340      861.186
03/17/2014  16:58:00      -67.979      521.079      -82.312      142.153      233.688       63.315    20207.431    54609.928     4008.735       18.086        3.941      525.494       90.115        0.029      337.272        9.130      861.201
03/17/2014  16:59:00       -0.691      428.106      -57.353      144.752      129.750       69.882    20953.222    16835.157     4883.551       11.461        2.134      428.106       64.383        0.023      337.411        9.364      861.189
03/17/2014  17:00:00       69.161      317.578      -12.391      137.428      209.344      119.001    18886.534    43825.092    14161.134        9.132        3.844      325.022      112.507        0.120      337.437        9.407      861.164
03/17/2014  17:01:00      -78.280      458.883      -45.170      106.221      208.433       67.985    11282.899    43444.114     4621.958       13.903        2.967      465.512       82.442        0.031      337.467        9.458      861.174
03/17/2014  17:02:00       -7.606      300.887      -25.348      178.513      168.588      101.015    31867.040    28421.948    10203.979        8.085        3.525      300.983       93.146        0.096      337.608        9.694      861.191
03/17/2014  17:03:00     -157.992      569.379      -72.981      166.952      189.087       79.936    27872.907    35753.726     6389.724       21.223        3.501      590.893       89.863        0.023      337.242        9.082      861.242
03/17/2014  17:04:00     -105.483      453.224      -57.928      158.592      169.875       73.205    25151.490    28857.659     5359.005       13.962        2.968      465.337       67.223        0.021      337.321        9.214      861.250
03/17/2014  17:05:00      -30.736      325.819      -40.597       98.356      150.931       74.030     9673.859    22780.306     5480.408        7.333        1.897      327.265       72.092        0.049      337.468        9.460      861.210
03/17/2014  17:06:00      -15.011      405.624      -66.230       99.965      184.385       78.339     9993.005    33997.952     6137.068       10.963        2.506      405.902       87.701        0.047      337.523        9.551      861.207
03/17/2014  17:07:00      -84.024      390.713      -53.315      105.981      169.829       73.537    11231.960    28841.753     5407.714       10.401        2.274      399.646       90.246        0.051      337.561        9.616      861.229
03/17/2014  17:08:00      -75.198      467.608      -62.061      132.991      172.107       69.139    17686.705    29620.944     4780.153       14.012        2.604      473.615       70.734        0.022      337.434        9.403      861.217
03/17/2014  17:09:00       47.288      300.555      -25.089      127.584      218.740      102.131    16277.592    47847.053    10430.669        8.386        3.728      304.252      119.919        0.155      337.517        9.543      861.188
03/17/2014  17:10:00      -36.964      342.479      -29.351      141.890      188.128       94.556    20132.901    35392.192     8940.762        9.198        3.223      344.468       98.595        0.082      337.580        9.648      861.210
03/17/2014  17:11:00      -29.052      393.202      -36.045      157.913      181.494      101.244    24936.557    32940.150    10250.439       11.243        3.406      394.274      101.366        0.066      337.511        9.532      861.201
03/17/2014  17:12:00     -122.796      530.514      -67.062       95.390      142.587       74.946     9099.291    20331.084     5616.933       16.803        1.752      544.540       78.451        0.021      337.318        9.208      861.221
03/17/2014  17:13:00       22.422      578.359      -73.293      115.701      231.859       78.554    13386.810    53758.370     6170.709       20.683        3.666      578.794      112.915        0.038      337.334        9.234      861.205
03/17/2014  17:14:00       -4.554      513.705      -73.626      112.423      135.228       68.018    12638.970    18286.623     4626.426       15.244        1.778      513.725       70.658        0.019      337.388        9.325      861.188
03/17/2014  17:15:00      -74.173      509.890      -72.027      128.782      188.109       89.985    16584.683    35384.831     8097.236       16.536        3.003      515.256       97.050        0.035      337.433        9.400      861.183
03/17/2014  17:16:00     -143.059      686.826      -92.652      109.476      179.531       69.174    11984.931    32231.301     4785.034       27.488        2.450      701.567       84.542        0.015      337.147        8.922      861.223
03/17/2014  17:17:00     -119.274      473.133      -80.470      121.982      171.222       55.208    14879.492    29317.050     3047.936       14.589        2.362      487.936       61.210        0.016      337.312        9.197      861.226
03/17/2014  17:18:00       19.563      456.410      -60.447      123.965      141.897       76.244    15367.283    20134.900     5813.084       12.682        2.066      456.829       71.194        0.024      337.283        9.150      861.233
03/17/2014  17:19:00       56.816      388.221      -61.272      129.178      226.254       76.254    16686.830    51190.833     5814.660       11.568        3.685      392.356       87.449        0.050      337.365        9.287      861.209
03/17/2014  17:20:00      -46.264      492.917      -70.237      104.520       89.545       51.523    10924.428     8018.272     2654.584       13.581        1.080      495.083       39.692        0.006      337.389        9.327      861.246
03/17/2014  17:21:00      -23.806      419.678      -63.621       78.053      156.669       48.395     6092.331    24545.116     2342.035       10.686        1.649      420.353       59.907        0.020      337.641        9.748      861.228
03/17/2014  17:22:00      -55.390      266.202      -34.454      105.794      119.169       66.292    11192.394    14201.288     4394.677        5.245        1.489      271.904       58.448        0.046      337.707        9.860      861.261
03/17/2014  17:23:00     -209.874      294.381      -51.073      135.212      145.863       66.711    18282.407    21275.969     4450.311        8.865        2.200      361.534       54.234        0.023      337.589        9.662      861.253
03/17/2014  17:24:00     -209.685      309.826      -61.586      133.197      190.087       84.994    17741.363    36133.108     7224.047       10.241        3.055      374.112      100.510        0.072      337.465        9.454      861.222
03/17/2014  17:25:00     -127.221      279.930      -40.141      179.623      125.125       83.539    32264.471    15656.269     6978.733        7.552        2.745      307.483       90.662        0.087      337.525        9.556      861.200
03/17/2014  17:26:00       83.829      395.122      -39.883      114.427      204.280      103.400    13093.517    41730.257    10691.525       11.511        3.276      403.916      101.755        0.063      337.305        9.187      861.171
03/17/2014  17:27:00      -24.412      292.186      -37.801      124.339      145.615       69.338    15460.176    21203.621     4807.721        6.443        2.074      293.204       68.610        0.055      337.503        9.518      861.165
03/17/2014  17:28:00     -128.357      439.475      -65.394      126.550      211.695       61.178    16014.985    44814.686     3742.727       13.922        3.229      457.836       68.519        0.022      337.427        9.391      861.194
03/17/2014  17:29:00     -136.645      285.558      -37.414      110.201      129.905       58.482    12144.303    16875.314     3420.194        6.702        1.622      316.568       48.613        0.024      337.587        9.660      861.183
03/17/2014  17:30:00     -192.247      330.230      -59.521      109.857      141.334       69.191    12068.574    19975.417     4787.418        9.319        1.842      382.114       62.160        0.026      337.438        9.409      861.172
03/17/2014  17:31:00     -158.083      222.933      -19.482       87.447       97.286       59.449     7646.930     9464.577     3534.171        4.785        1.032      273.294       49.913        0.033      337.550        9.595      861.154
03/17/2014  17:32:00     -207.047      371.749      -54.730      113.266      200.416       68.459    12829.259    40166.644     4686.603       12.086        2.884      425.519       63.405        0.022      337.401        9.347      861.147
03/17/2014  17:33:00     -111.447      238.312      -25.652      108.948       94.728       58.292    11869.712     8973.314     3397.967        4.705        1.212      263.084       47.905        0.033      337.470        9.462      861.134
03/17/2014  17:34:00      -55.734      245.554       -7.210      119.650      201.848       84.264    14316.156    40742.527     7100.347        6.279        3.108      251.800       93.137        0.137      337.531        9.566      861.150
03/17/2014  17:35:00      -20.225      443.003      -55.941      132.936      159.240       82.097    17671.947    25357.524     6739.975       12.477        2.488      443.465       74.800        0.028      337.367        9.291      861.177
03/17/2014  17:36:00     -100.261      397.962      -49.069      121.946      162.559       75.045    14870.824    26425.436     5631.746       10.887        2.346      410.397       79.605        0.038      337.294        9.168      861.177
03/17/2014  17:37:00     -113.853      391.926      -52.034      124.872      170.799       72.167    15593.112    29172.238     5208.076       10.961        2.499      408.128       85.668        0.044      337.401        9.347      861.216
03/17/2014  17:38:00     -147.540      322.854      -50.214       97.303      167.268       58.004     9467.942    27978.518     3364.491        8.466        2.041      354.968       53.061        0.022      337.418        9.376      861.242
03/17/2014  17:39:00      -64.774      375.569      -44.659       90.917      168.771       54.474     8265.818    28483.525     2967.463        9.347        1.986      381.114       59.924        0.025      337.361        9.280      861.265
03/17/2014  17:40:00      -76.914      430.375      -62.736       94.826      173.534       60.990     8992.045    30113.976     3719.809       11.894        2.141      437.194       77.734        0.032      337.362        9.282      861.299
03/17/2014  17:41:00      -99.699      367.274      -42.803       84.308      201.988       57.281     7107.841    40799.241     3281.166        9.891        2.559      380.565       76.630        0.041      337.386        9.323      861.321
03/17/2014  17:42:00     -126.588      229.767      -29.405       88.848      145.766       60.478     7894.046    21247.754     3657.563        5.123        1.640      262.331       56.847        0.047      337.595        9.672      861.333
03/17/2014  17:43:00      -60.110      289.730      -41.474      126.004      115.205       62.168    15876.894    13272.242     3864.847        6.114        1.651      295.899       54.764        0.034      337.576        9.640      861.344
03/17/2014  17:44:00      -15.581      384.080      -36.887      115.461      127.739       79.179    13331.161    16317.251     6269.271        9.251        1.796      384.396       72.015        0.035      337.447        9.423      861.340
03/17/2014  17:45:00      -52.455      467.286      -55.121      115.486      159.645       70.739    13336.982    25486.436     5004.069       13.398        2.191      470.221       77.641        0.027      337.408        9.358      861.339
03/17/2014  17:46:00      -54.257      399.119      -46.933      118.632      162.417       75.645    14073.480    26379.382     5722.092       10.530        2.309      402.790       83.286        0.043      337.371        9.296      861.355
03/17/2014  17:47:00      -42.088      387.180      -46.303       91.059      143.442       74.317     8291.655    20575.592     5522.989        9.410        1.720      389.461       80.779        0.043      337.433        9.401      861.359
03/17/2014  17:48:00      -60.475      454.243      -59.348      103.970      148.602       67.372    10809.860    22082.455     4539.004       12.547        1.872      458.251       72.719        0.025      337.351        9.265      861.397
03/17/2014  17:49:00      -28.272      519.555      -71.803      112.243      141.354       65.859    12598.594    19980.926     4337.417       15.640        1.846      520.323       60.594        0.014      337.246        9.087      861.403
03/17/2014  17:50:00     -114.330      389.586      -39.534      127.444      187.982       77.347    16241.943    35337.122     5982.607       11.198        2.878      406.016       89.137        0.048      337.342        9.249      861.412
03/17/2014  17:51:00     -126.413      264.260      -21.527      115.087      169.670       67.165    13245.033    28787.843     4511.091        6.640        2.327      292.939       61.618        0.044      337.451        9.432      861.403
03/17/2014  17:52:00       46.871      264.073        2.608      156.410      170.527      105.760    24464.200    29079.499    11185.256        6.832        3.236      268.201      105.780        0.156      337.392        9.334      861.398
03/17/2014  17:53:00       15.183      426.502      -49.455      112.165      203.531       80.772    12581.011    41424.791     6524.120       12.254        3.026      426.772       98.096        0.053      337.314        9.202      861.404
03/17/2014  17:54:00        3.850      425.625      -54.312      140.174      153.617       80.656    19648.812    23598.059     6505.312       11.693        2.488      425.642       72.094        0.029      337.259        9.110      861.412
03/17/2014  17:55:00       18.899      457.262      -69.388      122.454      136.038       75.689    14994.956    18506.440     5728.812       12.674        1.962      457.653       81.698        0.032      337.332        9.232      861.422
03/17/2014  17:56:00      -88.779      397.215      -61.125      102.574      233.272       61.829    10521.341    54415.970     3822.795       11.907        3.438      407.015       86.203        0.045      337.399        9.342      861.458
03/17/2014  17:57:00     -129.890      470.537      -67.226      111.286      115.237       58.610    12384.547    13279.573     3435.174       13.594        1.455      488.136       49.614        0.010      337.241        9.079      861.464
03/17/2014  17:58:00      -96.820      492.977      -76.336      142.353      196.147       75.864    20264.511    38473.679     5755.323       16.135        3.225      502.395       83.862        0.028      337.258        9.107      861.471
03/17/2014  17:59:00     -135.070      228.038      -29.694       98.369      151.403       67.262     9676.376    22922.765     4524.133        5.412        1.856      265.038       51.167        0.037      337.502        9.516      861.475
03/17/2014  18:00:00     -137.958      302.253      -53.728      107.115      147.718       65.417    11473.619    21820.586     4279.397        7.542        1.879      332.248       73.479        0.049      337.419        9.377      861.484
03/17/2014  18:01:00      -54.749      472.336      -60.593      104.671      151.105       66.385    10956.079    22832.668     4406.910       13.398        1.910      475.498       65.415        0.019      337.145        8.918      861.485
03/17/2014  18:02:00      -96.395      386.784      -45.615       89.997      137.768       66.444     8099.415    18979.922     4414.860        9.623        1.575      398.615       51.001        0.016      337.143        8.915      861.444
03/17/2014  18:03:00     -154.654      227.922      -26.380       92.238      118.538       61.343     8507.883    14051.333     3762.972        5.144        1.316      275.439       62.113        0.051      337.311        9.197      861.427
03/17/2014  18:04:00      -52.598      309.769      -44.616      101.123      105.572       50.253    10225.771    11145.431     2525.368        6.230        1.195      314.202       47.035        0.022      337.231        9.062      861.426
03/17/2014  18:05:00      -40.982      208.005      -29.300       69.243       78.007       51.580     4794.540     6085.076     2660.459        2.967        0.677      212.004       39.147        0.034      337.384        9.319      861.414
03/17/2014  18:06:00      -27.827      220.750      -24.238      103.351      101.569       58.533    10681.398    10316.341     3426.142        3.725        1.221      222.497       46.988        0.045      337.345        9.254      861.424
03/17/2014  18:07:00     -107.329      224.736      -34.007       67.774       57.265       42.716     4593.251     3279.241     1824.663        3.644        0.485      249.050       34.626        0.019      337.386        9.322      861.409
03/17/2014  18:08:00     -196.145      372.797      -50.088      100.944      134.617       73.681    10189.789    18121.642     5428.939       10.684        1.687      421.248       73.432        0.030      337.260        9.111      861.410
03/17/2014  18:09:00      -63.617      342.327      -45.930      106.614      131.173       54.384    11366.629    17206.225     2957.627        7.743        1.577      348.188       49.166        0.020      337.332        9.232      861.396
03/17/2014  18:10:00      -21.070      441.696      -71.043      129.412      183.281       71.038    16747.446    33592.078     5046.377       12.797        2.769      442.198       77.446        0.031      337.222        9.046      861.413
03/17/2014  18:11:00     -101.581      403.301      -35.082       98.368      120.122       71.468     9676.298    14429.297     5107.629       10.170        1.461      415.897       66.169        0.025      337.125        8.885      861.416
03/17/2014  18:12:00       -3.774      217.445      -24.105       76.492      110.551       48.174     5851.034    12221.414     2320.686        3.413        1.020      217.478       40.537        0.035      337.265        9.122      861.422
03/17/2014  18:13:00      118.416      280.824      -27.715      139.537      216.488       75.184    19470.555    46867.081     5652.624        8.281        3.600      304.769      100.481        0.109      337.120        8.878      861.386
03/17/2014  18:14:00      113.766      202.002       -3.568      118.037      138.160       72.090    13932.650    19088.272     5196.952        4.598        1.911      231.835       56.051        0.058      337.065        8.784      861.362
03/17/2014  18:15:00      241.266      206.158       24.780      182.007      119.699       85.725    33126.410    14327.816     7348.733        7.805        2.740      317.349       59.897        0.036      336.925        8.549      861.335
03/17/2014  18:16:00      247.584      188.764       24.781      166.265      119.172      105.480    27644.098    14201.853    11126.045        7.525        2.649      311.336       67.463        0.047      336.894        8.498      861.306
03/17/2014  18:17:00      128.734      102.148       15.513      168.213       93.994       74.744    28295.463     8834.862     5586.637        3.497        2.136      164.337       44.013        0.072      336.939        8.573      861.290
03/17/2014  18:18:00      194.627      237.168        4.719      173.873      156.898       88.095    30231.675    24617.127     7760.797        7.837        3.130      306.803       87.420        0.081      336.851        8.426      861.302
03/17/2014  18:19:00      209.630      269.861       -7.578      184.565      175.479       97.026    34064.422    30792.978     9413.951        9.553        3.714      341.716       94.436        0.076      336.787        8.320      861.281
03/17/2014  18:20:00      182.628      284.130      -12.607      145.680      154.725      105.139    21222.741    23939.921    11054.157        8.522        2.811      337.761       96.416        0.081      336.731        8.227      861.262
03/17/2014  18:21:00      141.479      245.154      -22.644      104.079      152.029       86.893    10832.521    23112.857     7550.321        6.105        2.075      283.049       92.222        0.106      336.795        8.333      861.253
03/17/2014  18:22:00      136.849      117.916       22.372      126.015      111.830       68.879    15879.701    12505.859     4744.382        3.312        1.656      180.642       50.592        0.078      336.853        8.432      861.263
03/17/2014  18:23:00      197.943      200.626       26.832      161.803      111.156       92.006    26180.296    12355.680     8465.073        6.357        2.350      281.837       65.674        0.054      336.761        8.277      861.267
03/17/2014  18:24:00      194.961      192.786       -4.131      123.065      147.740       92.384    15145.014    21827.197     8534.801        6.034        2.275      274.182       72.046        0.069      336.793        8.329      861.286
03/17/2014  18:25:00      112.223      251.906      -19.026      141.242      111.753       84.049    19949.205    12488.645     7064.317        5.795        1.975      275.772       68.575        0.062      336.800        8.341      861.318
03/17/2014  18:26:00      144.268      214.496        7.004      128.453      109.481       84.720    16500.203    11986.112     7177.440        5.126        1.783      258.499       67.197        0.068      336.799        8.341      861.329
03/17/2014  18:27:00      193.495      170.121       16.971      141.579      137.524       97.861    20044.516    18912.825     9576.799        5.759        2.427      257.646       80.218        0.097      336.785        8.316      861.342
03/17/2014  18:28:00      124.366      242.437      -30.594      135.331      157.902       73.941    18314.476    24933.041     5467.216        6.194        2.436      272.475       68.244        0.063      336.778        8.305      861.357
03/17/2014  18:29:00      215.440      261.825        5.918      148.712      170.638      105.210    22115.293    29117.494    11069.116        8.864        3.115      339.067      104.354        0.095      336.734        8.232      861.356
03/17/2014  18:30:00       96.806      344.520      -28.030      123.048      176.081       93.456    15140.790    31004.654     8734.019        9.185        2.744      357.862      104.015        0.084      336.717        8.204      861.363
03/17/2014  18:31:00      136.637      226.718      -11.423      117.535      136.962       72.037    13814.483    18758.622     5189.381        5.397        1.888      264.709       73.166        0.076      336.738        8.238      861.373
03/17/2014  18:32:00      125.496      279.299      -40.110      100.723      175.200       79.928    10145.209    30694.983     6388.493        7.129        2.361      306.198       85.573        0.078      336.711        8.194      861.368
03/17/2014  18:33:00      149.010      214.890       -0.881      129.428      139.226       98.848    16751.703    19383.751     9770.987        5.714        2.295      261.499       84.145        0.104      336.699        8.174      861.363
03/17/2014  18:34:00      267.472      269.323       11.062      172.587      155.802      114.704    29786.116    24274.279    13156.927       10.569        3.361      379.574       90.824        0.057      336.648        8.088      861.360
03/17/2014  18:35:00      217.807      205.032       15.205      163.361      105.702       96.841    26686.890    11172.861     9378.134        6.846        2.362      299.128       56.645        0.036      336.642        8.079      861.373
03/17/2014  18:36:00      233.766      267.821       -4.670      156.141      160.811      110.045    24379.897    25860.106    12109.956        9.436        3.117      355.492       89.918        0.064      336.631        8.060      861.390
03/17/2014  18:37:00      171.355      344.895       -4.078      195.561      150.691      120.598    38244.063    22707.822    14543.835       11.190        3.775      385.117       99.875        0.067      336.603        8.015      861.409
03/17/2014  18:38:00       82.557      211.169       -9.910      117.226      166.091       88.360    13741.855    27586.185     7807.486        5.031        2.457      226.734       87.422        0.149      336.616        8.037      861.443
03/17/2014  18:39:00       21.999      435.465      -67.842      106.515      214.594       68.476    11345.383    46050.799     4688.907       12.839        3.104      436.020       84.406        0.037      336.657        8.105      861.465
03/17/2014  18:40:00       68.942      308.998      -15.479      110.167      199.252       98.571    12136.706    39701.307     9716.304        8.100        3.078      316.596      113.074        0.128      336.627        8.053      861.461
03/17/2014  18:41:00       25.152      381.221      -53.322      118.135      141.556       64.442    13955.985    20038.193     4152.828        9.347        1.907      382.050       71.432        0.035      336.624        8.048      861.472
03/17/2014  18:42:00       38.910      239.362      -12.124       82.359      175.990       80.616     6783.078    30972.492     6498.934        5.160        2.213      242.504       95.605        0.155      336.633        8.065      861.465
03/17/2014  18:43:00        8.635      263.520      -32.800      113.825      108.562       57.217    12956.149    11785.713     3273.812        4.930        1.401      263.662       55.811        0.045      336.637        8.071      861.470
03/17/2014  18:44:00       67.395      431.586      -62.196      109.821      124.838       62.984    12060.608    15584.460     3966.951       11.314        1.581      436.816       61.375        0.020      336.587        7.986      861.465
03/17/2014  18:45:00      -30.287      447.861      -64.352       93.779      149.335       73.659     8794.557    22300.964     5425.624       12.107        1.826      448.884       72.057        0.026      336.592        7.994      861.465
03/17/2014  18:46:00     -114.127      489.449      -78.342       92.779      129.470       55.689     8607.967    16762.549     3101.313       14.359        1.424      502.578       61.547        0.015      336.605        8.017      861.471
03/17/2014  18:47:00     -122.522      440.189      -55.257      119.885      113.544       64.756    14372.378    12892.338     4193.351       12.164        1.573      456.923       65.942        0.021      336.620        8.043      861.488
03/17/2014  18:48:00     -121.536      442.480      -56.602       87.832      112.804       57.766     7714.391    12724.671     3336.882       11.876        1.189      458.867       53.332        0.014      336.569        7.955      861.496
03/17/2014  18:49:00      -85.868      488.810      -76.035      111.081      147.635       66.688    12339.050    21796.197     4447.282       14.533        1.929      496.294       72.602        0.021      336.587        7.987      861.509
03/17/2014  18:50:00      -91.269      448.441      -63.689       88.272      130.737       60.964     7791.924    17092.079     3716.654       12.104        1.430      457.635       62.598        0.019      336.568        7.955      861.526
03/17/2014  18:51:00       10.498      338.257      -49.084       77.540      122.009       58.901     6012.406    14886.096     3469.364        7.065        1.218      338.420       61.790        0.033      336.594        7.998      861.564
03/17/2014  18:52:00      -21.173      285.676      -32.432      105.007      133.182       56.796    11026.465    17737.347     3225.786        5.754        1.599      286.459       68.204        0.057      336.630        8.058      861.585
03/17/2014  18:53:00      -64.961      335.208      -40.288      110.702      100.179       54.284    12254.902    10035.798     2946.784        7.172        1.262      341.445       51.137        0.022      336.610        8.024      861.614
03/17/2014  18:54:00      -65.243      356.402      -36.905       88.614      172.734       70.263     7852.475    29837.107     4936.940        8.763        2.131      362.325       86.682        0.057      336.569        7.958      861.629
03/17/2014  18:55:00      -27.878      348.991      -32.808       98.861      131.272       62.451     9773.512    17232.370     3900.073        7.727        1.545      350.102       68.185        0.038      336.570        7.957      861.622
03/17/2014  18:56:00       27.677      226.124      -34.273       91.315      104.425       58.273     8338.369    10904.635     3395.787        3.785        1.132      227.812       47.541        0.044      336.579        7.974      861.622
03/17/2014  18:57:00       16.322      274.572      -34.714       91.667       78.774       48.443     8402.805     6205.302     2346.761        4.690        0.848      275.057       29.790        0.012      336.591        7.992      861.630
03/17/2014  18:58:00       49.105      163.350       -3.291       92.743      111.843       60.468     8601.305    12508.769     3656.413        2.693        1.238      170.571       66.232        0.151      336.563        7.947      861.640
03/17/2014  18:59:00      108.286      195.569       10.425      105.213      109.079       79.199    11069.676    11898.176     6272.413        3.966        1.462      223.547       67.616        0.091      336.485        7.815      861.655
03/17/2014  19:00:00       82.123      280.016      -39.460       84.920      145.918       63.850     7211.412    21292.106     4076.877        5.964        1.629      291.810       71.818        0.061      336.461        7.773      861.680
03/17/2014  19:01:00       53.864      253.887      -19.011       92.233      153.570       76.582     8506.900    23583.696     5864.801        5.283        1.898      259.538       85.785        0.109      336.467        7.783      861.688
03/17/2014  19:02:00       81.400      164.764       11.743       86.034      113.092       66.139     7401.852    12789.893     4374.425        2.923        1.228      183.774       53.885        0.086      336.450        7.756      861.707
03/17/2014  19:03:00      104.973       88.797       12.542      122.735       69.697       43.202    15063.956     4857.676     1866.392        2.042        1.089      137.493       38.106        0.077      336.390        7.658      861.701
03/17/2014  19:04:00       98.808      186.932       -8.136       96.775      128.526       50.633     9365.322    16518.979     2563.734        3.660        1.422      211.439       65.113        0.095      336.370        7.623      861.714
03/17/2014  19:05:00      170.303      152.128       19.469      107.700       82.462       64.970    11599.243     6800.060     4221.134        3.757        1.131      228.355       45.077        0.039      336.357        7.600      861.730
03/17/2014  19:06:00      164.814      225.047       -1.313      122.373      128.582       92.100    14975.181    16533.393     8482.392        5.889        2.000      278.944       84.336        0.091      336.331        7.557      861.745
03/17/2014  19:07:00      219.113      174.163       22.529      120.739       87.559       73.224    14577.980     7666.570     5361.715        5.322        1.380      279.899       53.978        0.037      336.322        7.542      861.750
03/17/2014  19:08:00      135.870       81.041       24.720       89.021       71.823       58.550     7924.826     5158.565     3428.151        2.107        0.826      158.203       22.108        0.020      336.303        7.512      861.754
03/17/2014  19:09:00      166.781      102.574       21.803      102.304       69.730       59.519    10466.129     4862.222     3542.510        2.884        0.944      195.799       39.565        0.041      336.298        7.503      861.747
03/17/2014  19:10:00      133.038      129.131       25.324       86.139       75.408       66.889     7419.884     5686.402     4474.113        2.629        0.879      185.402       34.709        0.035      336.270        7.456      861.750
03/17/2014  19:11:00      132.668      139.819       35.871       89.097       85.765       61.455     7938.351     7355.578     3776.722        2.875        0.954      192.744       50.749        0.069      336.306        7.516      861.735
03/17/2014  19:12:00      128.907      106.779       12.377       80.169       65.421       45.156     6427.056     4279.912     2039.089        2.046        0.637      167.388       34.133        0.042      336.291        7.493      861.726
03/17/2014  19:13:00      149.785       77.569       25.979       87.164       68.870       49.945     7597.497     4743.068     2494.479        2.198        0.742      168.678       32.618        0.037      336.300        7.506      861.718
03/17/2014  19:14:00      145.916      129.963       -4.316       77.980       81.500       51.528     6080.953     6642.169     2655.178        2.679        0.769      195.402       47.512        0.059      336.272        7.458      861.712
03/17/2014  19:15:00      162.045      115.026       30.311       79.668       64.612       45.481     6347.022     4174.740     2068.494        2.650        0.630      198.720       12.902        0.004      336.251        7.424      861.705
03/17/2014  19:16:00       69.312       43.574        8.397       56.303       40.022       25.455     3170.044     1601.782      647.955        0.610        0.271       81.871       19.130        0.055      336.252        7.429      861.700
03/17/2014  19:17:00       70.884       52.364        8.023       56.959       27.812       24.466     3244.272      773.521      598.565        0.622        0.231       88.128       15.233        0.030      336.255        7.434      861.692
03/17/2014  19:18:00       74.600       48.815       16.786       37.553       23.351       25.772     1410.200      545.274      664.203        0.542        0.131       89.152       11.433        0.016      336.208        7.354      861.691
03/17/2014  19:19:00       49.008       72.522       14.939       57.130       60.495       28.868     3263.891     3659.650      833.357        0.782        0.388       87.529       21.933        0.063      336.178        7.305      861.695
03/17/2014  19:20:00      114.752       95.580       19.866       60.553       63.397       45.580     3666.634     4019.222     2077.528        1.623        0.488      149.344       34.337        0.053      336.198        7.339      861.690
03/17/2014  19:21:00      139.685       74.093       17.030       79.523       61.022       42.860     6323.838     3723.714     1836.955        1.859        0.594      158.119       21.789        0.019      336.162        7.278      861.703
03/17/2014  19:22:00       85.401       89.938       32.138       74.326       68.347       53.414     5524.292     4671.250     2853.023        1.473        0.652      124.024       36.572        0.087      336.168        7.288      861.699
03/17/2014  19:23:00      121.973       76.240       27.751       59.975       47.608       46.708     3597.005     2266.479     2181.656        1.475        0.402      143.840       26.850        0.035      336.137        7.237      861.695
03/17/2014  19:24:00       72.196       74.425        8.476       59.443       59.378       37.790     3533.477     3525.787     1428.088        0.965        0.424      103.689       32.387        0.098      336.118        7.203      861.678
03/17/2014  19:25:00      109.638       78.849        8.518       77.127       56.877       43.356     5948.521     3235.004     1879.746        1.468        0.553      135.047       27.187        0.041      336.103        7.178      861.661
03/17/2014  19:26:00       37.525      127.485      -15.270       47.060       59.527       36.557     2214.641     3543.470     1336.444        1.249        0.355      132.893       36.645        0.076      336.112        7.194      861.649
03/17/2014  19:27:00       91.885      112.543       -4.297       61.599       61.185       39.402     3794.457     3743.550     1552.547        1.511        0.455      145.288       28.450        0.038      336.088        7.153      861.639
03/17/2014  19:28:00      103.445      105.298       14.119      112.627       60.539       54.171    12684.952     3664.986     2934.488        2.063        0.964      147.609       34.113        0.053      336.104        7.179      861.620
03/17/2014  19:29:00       79.182      181.353      -16.772       66.640      107.209       62.018     4440.835    11493.706     3846.229        2.961        0.989      197.885       67.886        0.118      336.085        7.149      861.604
03/17/2014  19:30:00       71.819      115.391        0.173       65.812       76.296       50.033     4331.272     5821.119     2503.288        1.556        0.633      135.915       44.310        0.106      336.057        7.102      861.589
03/17/2014  19:31:00       29.419      198.887      -34.258       51.328       72.521       32.315     2634.585     5259.368     1044.290        2.526        0.447      201.051       29.089        0.021      336.067        7.118      861.574
03/17/2014  19:32:00       45.102      157.004       -4.859       69.576       95.795       48.769     4840.807     9176.726     2378.421        2.155        0.820      163.353       45.893        0.079      336.040        7.072      861.547
03/17/2014  19:33:00       44.390      164.531      -16.032       69.128       89.845       54.036     4778.747     8072.107     2919.919        2.253        0.789      170.414       49.019        0.083      336.029        7.054      861.529
03/17/2014  19:34:00       18.633      160.332       -9.281       62.057       76.653       51.983     3851.045     5875.692     2702.275        1.928        0.621      161.411       49.728        0.095      336.005        7.014      861.491
03/17/2014  19:35:00       40.608      196.256      -39.033       34.970       69.844       28.678     1222.927     4878.131      822.453        2.430        0.346      200.413       35.575        0.032      336.013        7.027      861.477
03/17/2014  19:36:00       45.721      177.522      -22.144       63.894      100.683       45.250     4082.412    10137.075     2047.597        2.518        0.813      183.315       48.560        0.070      335.983        6.977      861.463
03/17/2014  19:37:00       35.518      215.432      -13.643       71.433      104.895       65.449     5102.731    11002.919     4283.523        3.412        1.019      218.341       62.300        0.081      336.010        7.022      861.433
03/17/2014  19:38:00       30.192      151.199      -18.185       58.437       67.840       42.970     3414.862     4602.221     1846.394        1.698        0.493      154.184       37.828        0.060      335.969        6.953      861.405
03/17/2014  19:39:00       58.088      121.108        1.143       60.271       80.574       59.349     3632.566     6492.231     3522.311        1.584        0.682      134.318       54.929        0.167      335.938        6.903      861.385
03/17/2014  19:40:00       21.874      163.248      -16.520       51.853      127.688       47.812     2688.683    16304.308     2286.034        2.434        1.064      164.707       66.084        0.161      335.948        6.920      861.375
03/17/2014  19:41:00       48.539      203.866      -19.726       54.875      111.571       46.852     3011.259    12448.191     2195.100        3.098        0.883      209.565       49.223        0.055      335.957        6.934      861.395
03/17/2014  19:42:00       41.897      217.304      -30.418       49.547       83.688       44.683     2454.941     7003.725     1996.607        3.068        0.573      221.306       46.261        0.044      336.002        7.008      861.412
03/17/2014  19:43:00       76.894      120.649       -2.171       54.809       73.713       47.628     3004.023     5433.634     2268.430        1.559        0.535      143.069       42.242        0.087      335.982        6.978      861.446
03/17/2014  19:44:00       59.630      140.599       -3.717       59.385       81.686       56.156     3526.613     6672.540     3153.502        1.834        0.668      152.722       49.840        0.107      335.977        6.969      861.481
03/17/2014  19:45:00       54.266      107.491        1.056       73.446       74.653       56.216     5394.311     5573.004     3160.214        1.431        0.706      120.412       44.669        0.138      335.971        6.959      861.535
03/17/2014  19:46:00       69.251      122.699        0.306       63.516       83.130       51.967     4034.292     6910.679     2700.553        1.675        0.682      140.893       48.625        0.119      335.952        6.927      861.574
03/17/2014  19:47:00       48.347      187.171      -20.530       67.743       98.784       55.884     4589.154     9758.257     3123.003        2.763        0.874      193.315       57.932        0.090      335.971        6.956      861.613
03/17/2014  19:48:00       50.298      250.894      -31.903       64.823      131.034       56.500     4202.049    17169.972     3192.212        4.552        1.228      255.886       70.320        0.076      335.990        6.988      861.630
03/17/2014  19:49:00       41.696       95.780        6.566       55.567       66.463       52.035     3087.671     4417.336     2707.613        1.058        0.511      104.463       38.230        0.134      335.976        6.968      861.630
03/17/2014  19:50:00       58.530       90.498        0.829       58.550       56.420       46.330     3428.072     3183.257     2146.506        1.019        0.438      107.776       37.049        0.118      335.946        6.917      861.614
03/17/2014  19:51:00       49.530      110.664       -2.016       44.780       76.711       46.052     2005.281     5884.620     2120.749        1.236        0.501      121.243       42.397        0.122      335.945        6.915      861.612
03/17/2014  19:52:00       62.397       88.898       -4.677       65.637       55.755       37.754     4308.170     3108.605     1425.355        1.033        0.442      108.611       32.188        0.088      335.935        6.901      861.635
03/17/2014  19:53:00       50.693       86.843       -4.824       45.183       59.059       40.466     2041.546     3488.011     1637.513        0.865        0.358      100.556       34.898        0.120      335.916        6.868      861.661
03/17/2014  19:54:00        8.002       17.943        8.939       48.763       35.789       18.622     2377.868     1280.836      346.787        0.223        0.200       19.646       16.221        0.682      335.838        6.738      861.690
03/17/2014  19:55:00       99.515       83.576       11.212       57.795       46.832       46.090     3340.309     2193.250     2124.259        1.233        0.383      129.955       22.834        0.031      335.897        6.837      861.705
03/17/2014  19:56:00       57.960       91.995       -6.765       49.238       77.037       34.894     2424.408     5934.636     1217.594        1.072        0.479      108.731       38.147        0.123      335.905        6.848      861.713
03/17/2014  19:57:00       62.837       33.868       10.818       47.650       34.142       26.409     2270.532     1165.663      697.418        0.467        0.207       71.383       21.900        0.094      335.881        6.811      861.697
03/17/2014  19:58:00       85.138       46.250       14.410       46.335       32.103       24.918     2146.887     1030.577      620.892        0.670        0.190       96.889       14.811        0.023      335.869        6.789      861.696
03/17/2014  19:59:00       53.976       45.876        4.324       68.724       30.768       25.722     4723.043      946.656      661.607        0.568        0.317       70.838       17.311        0.060      335.856        6.770      861.691
03/17/2014  20:00:00       45.488      102.669      -20.841       37.701       63.879       38.677     1421.387     4080.488     1495.900        1.002        0.350      112.295       39.377        0.123      335.883        6.812      861.704
03/17/2014  20:01:00       56.600       83.662       15.117       58.345       47.854       36.420     3404.133     2290.026     1326.385        0.872        0.351      101.009       21.418        0.045      335.834        6.732      861.715
03/17/2014  20:02:00       79.531      101.771      -15.291       48.859       51.391       24.786     2387.194     2641.066      614.337        1.128        0.282      129.161       20.594        0.025      335.818        6.705      861.729
03/17/2014  20:03:00       79.540       80.913        2.492       50.961       37.872       33.025     2596.998     1434.297     1090.651        0.900        0.256      113.462       24.915        0.048      335.831        6.728      861.746
03/17/2014  20:04:00       87.822       91.032        4.501       70.274       36.422       33.467     4938.368     1326.540     1120.026        1.170        0.369      126.490       10.979        0.008      335.799        6.673      861.744
03/17/2014  20:05:00       62.159       45.285       12.998       39.523       27.838       29.214     1562.075      774.968      853.429        0.464        0.160       76.906       21.570        0.079      335.785        6.650      861.770
03/17/2014  20:06:00       59.781       87.447       -8.850       40.568       44.399       31.215     1645.780     1971.296      974.363        0.794        0.230      105.928       29.445        0.077      335.746        6.586      861.787
03/17/2014  20:07:00       47.169      160.205      -18.093       38.371       62.584       44.192     1472.346     3916.710     1952.966        1.778        0.367      167.005       41.565        0.062      335.778        6.637      861.794
03/17/2014  20:08:00       49.321      133.668      -13.815       36.295       46.236       37.449     1317.350     2137.794     1402.426        1.267        0.243      142.477       30.631        0.046      335.745        6.583      861.809
03/17/2014  20:09:00       41.107       48.822        6.356       41.219       34.184       28.959     1698.973     1168.546      838.642        0.391        0.185       63.823       25.282        0.157      335.745        6.585      861.807
03/17/2014  20:10:00       44.119       69.158      -11.468       32.530       32.703       29.762     1058.170     1069.469      885.784        0.494        0.151       82.033       23.124        0.079      335.749        6.589      861.827
03/17/2014  20:11:00       28.461       40.242        3.662       22.321       34.416       24.757      498.229     1184.479      612.900        0.237        0.115       49.290       17.541        0.127      335.724        6.549      861.853
03/17/2014  20:12:00        7.390       75.096       -9.841       28.638       30.888       19.238      820.133      954.040      370.104        0.397        0.107       75.459       14.892        0.039      335.756        6.603      861.863
03/17/2014  20:13:00       19.714      134.210      -26.170       33.611       45.095       16.652     1129.720     2033.535      277.285        1.126        0.172      135.650       17.798        0.017      335.755        6.601      861.870
03/17/2014  20:14:00        2.890      153.664      -26.037       19.422       33.984       14.466      377.224     1154.919      209.255        1.302        0.087      153.691       14.467        0.009      335.815        6.699      861.877
03/17/2014  20:15:00      -10.884      101.089      -18.523       19.539       21.985       12.306      381.759      483.340      151.444        0.585        0.051      101.674        9.178        0.008      335.808        6.690      861.884
03/17/2014  20:16:00       -7.071       95.760      -13.171       21.970       21.835       12.590      482.667      476.759      158.512        0.526        0.056       96.021       10.154        0.011      335.850        6.757      861.890
03/17/2014  20:17:00       -2.426       91.822      -14.558       16.033       19.816        9.957      257.064      392.669       99.148        0.470        0.037       91.854        8.121        0.008      335.831        6.727      861.895
03/17/2014  20:18:00        3.967       73.055      -11.111       19.453       22.165       11.157      378.413      491.273      124.478        0.323        0.050       73.162        6.603        0.008      335.803        6.680      861.882
03/17/2014  20:19:00       -0.622       44.882       -4.082       22.225       24.789       15.245      493.940      614.510      232.400        0.169        0.067       44.887       15.887        0.125      335.809        6.690      861.848
03/17/2014  20:20:00      -38.471       17.097       -2.026       18.522       14.682       13.716      343.056      215.575      188.141        0.126        0.037       42.099        9.677        0.053      335.881        6.810      861.841
03/17/2014  20:21:00        4.513        3.657       12.899       15.707       13.056        8.346      246.715      170.465       69.660        0.034        0.024        5.809       10.326        3.160      335.829        6.723      861.856
03/17/2014  20:22:00       10.388       19.559       -0.328       13.284       10.351       12.808      176.463      107.146      164.047        0.047        0.022       22.146        8.690        0.154      335.824        6.714      861.860
03/17/2014  20:23:00       21.695       11.565        3.400       11.170        9.094       13.341      124.776       82.697      177.991        0.050        0.019       24.585        8.695        0.125      335.793        6.664      861.846
03/17/2014  20:24:00       19.576       52.476       -7.737       15.512       25.037       14.883      240.615      626.846      221.494        0.214        0.054       56.008       16.091        0.083      335.765        6.616      861.835
03/17/2014  20:25:00       10.438       59.507      -11.974       16.348       22.164       13.463      267.244      491.243      181.257        0.237        0.047       60.415       12.204        0.041      335.751        6.594      861.811
03/17/2014  20:26:00      -14.271       38.060       -3.974       18.268       25.993       11.531      333.702      675.657      132.971        0.140        0.057       40.648        9.063        0.050      335.775        6.636      861.789
03/17/2014  20:27:00      -53.996      -12.632       -2.057       21.885       30.147       13.488      478.949      908.837      181.931        0.232        0.078       55.454        6.808        0.015      335.878        6.804      861.792
03/17/2014  20:28:00      -67.378        0.105       -5.921       45.983       28.978       15.024     2114.472      839.743      225.717        0.388        0.159       67.379       16.422        0.059      335.642        6.412      861.821
03/17/2014  20:29:00      -99.627      -22.564       -5.077       29.741       32.532       19.362      884.508     1058.315      374.901        0.639        0.116      102.151       16.930        0.027      335.541        6.242      861.855
03/17/2014  20:30:00      -99.994       -4.318      -16.782       27.940       25.046       19.930      780.638      627.302      397.185        0.605        0.090      100.088       17.997        0.032      335.479        6.140      861.883
03/17/2014  20:31:00      -92.206      -13.913       -3.026       31.673       26.493       18.527     1003.162      701.858      343.241        0.538        0.102       93.250       11.182        0.014      335.535        6.233      861.909
03/17/2014  20:32:00      -83.881        5.398       -9.639       26.073       21.865       16.736      679.825      478.068      280.088        0.430        0.072       84.055        9.440        0.013      335.491        6.160      861.934
03/17/2014  20:33:00      -92.901      -10.325      -14.878       28.482       28.961       16.111      811.225      838.755      259.549        0.543        0.095       93.473       16.134        0.030      335.488        6.155      861.953
03/17/2014  20:34:00     -116.830      -17.902       -5.764       32.614       42.046       23.482     1063.679     1767.903      551.396        0.869        0.169      118.194       18.448        0.024      335.536        6.236      861.976
03/17/2014  20:35:00     -127.567      -27.447      -10.071       33.541       29.091       21.378     1125.013      846.278      457.039        0.978        0.121      130.486       16.350        0.016      335.443        6.080      862.008
03/17/2014  20:36:00     -145.130       -6.232      -13.935       49.160       31.234       23.408     2416.665      975.593      547.925        1.262        0.197      145.263       27.865        0.037      335.308        5.854      862.027
03/17/2014  20:37:00     -109.741       -2.739       -9.913       41.484       25.226       24.079     1720.931      636.365      579.812        0.754        0.147      109.775       27.264        0.062      335.292        5.829      862.018
03/17/2014  20:38:00     -100.909       -4.730      -13.824       29.731       31.860       14.922      883.950     1015.071      222.661        0.626        0.106      101.019       13.557        0.018      335.327        5.887      862.007
03/17/2014  20:39:00      -94.033       10.069      -10.989       14.638       22.457       12.441      214.276      504.297      154.778        0.497        0.044       94.571        8.000        0.007      335.444        6.081      862.005
03/17/2014  20:40:00      -71.094        3.538      -12.223       18.254       30.504       15.682      333.198      930.523      245.926        0.336        0.075       71.182       14.374        0.041      335.361        5.941      862.010
03/17/2014  20:41:00      -75.371        1.525      -10.875       25.055       20.123       12.060      627.735      404.936      145.446        0.349        0.059       75.386        8.016        0.011      335.423        6.048      862.027
03/17/2014  20:42:00      -66.059       27.941      -15.277       27.112       39.935       16.396      735.038     1594.796      268.843        0.399        0.130       71.725       19.471        0.074      335.409        6.023      862.028
03/17/2014  20:43:00      -60.070       40.374      -14.409       20.966       35.633       14.916      439.581     1269.687      222.480        0.369        0.097       72.377        9.048        0.016      335.528        6.222      862.021
03/17/2014  20:44:00      -53.035       14.019       -8.003       14.303       20.834        9.952      204.577      434.073       99.048        0.191        0.037       54.856        5.057        0.008      335.578        6.304      862.009
03/17/2014  20:45:00      -76.007       -1.228       -8.416       22.228       24.972       12.670      494.066      623.581      160.532        0.356        0.064       76.017        9.792        0.017      335.469        6.125      861.993
03/17/2014  20:46:00      -83.872       19.005      -12.284       24.762       19.525       15.822      613.136      381.225      250.348        0.440        0.062       85.998       10.333        0.014      335.518        6.207      861.979
03/17/2014  20:47:00      -48.790        2.688       -3.158       21.573       21.658       12.736      465.384      469.066      162.207        0.175        0.055       48.864        8.164        0.028      335.532        6.228      861.958
03/17/2014  20:48:00      -57.649        7.967      -11.702       26.531       20.765       14.465      703.898      431.196      209.250        0.243        0.067       58.197       12.798        0.048      335.399        6.007      861.954
03/17/2014  20:49:00      -64.715       -1.486       -5.540       25.875       29.231       13.901      669.534      854.457      193.238        0.297        0.086       64.732       10.474        0.026      335.339        5.907      861.957
03/17/2014  20:50:00      -77.959       -4.019       -9.209       16.281       17.396       11.976      265.084      302.619      143.418        0.344        0.036       78.063        8.578        0.012      335.355        5.932      861.967
03/17/2014  20:51:00      -78.867      -11.528      -11.706       12.928       12.298       10.097      167.144      151.244      101.943        0.346        0.021       79.705        7.477        0.009      335.261        5.777      861.968
03/17/2014  20:52:00      -54.108      -18.960       -9.252       15.660       13.547       11.536      245.247      183.527      133.091        0.197        0.028       57.333       11.135        0.038      335.348        5.921      861.974
03/17/2014  20:53:00      -41.028      -18.521       -9.338       15.863       10.990        9.719      251.642      120.773       94.465        0.129        0.023       45.015        4.511        0.010      335.430        6.060      861.975
03/17/2014  20:54:00      -67.198      -24.634       -9.008       14.988       12.359       11.144      224.645      152.754      124.194        0.285        0.025       71.571        4.329        0.004      335.408        6.022      861.967
03/17/2014  20:55:00      -36.550       -5.893       -9.608       19.178        9.703        7.867      367.802       94.145       61.894        0.099        0.026       37.022        3.856        0.011      335.362        5.944      861.965
03/17/2014  20:56:00        2.397       -7.251        0.336        8.051        7.098        8.921       64.814       50.385       79.583        0.013        0.010        7.637        4.979        0.425      335.440        6.073      861.964
03/17/2014  20:57:00        1.040        8.854        9.326        5.438        8.973        6.865       29.572       80.517       47.127        0.016        0.008        8.915        1.643        0.034      335.419        6.039      861.976
03/17/2014  20:58:00       26.953       20.682        4.714        8.920        8.349       12.745       79.560       69.713      162.437        0.074        0.016       33.974        3.409        0.010      335.461        6.107      861.986
03/17/2014  20:59:00       18.424       32.247        2.795        7.994        8.690        6.887       63.908       75.524       47.426        0.079        0.009       37.139        4.452        0.014      335.444        6.082      862.010
03/17/2014  21:00:00       14.684       13.875       -3.294        9.366       14.746       11.102       87.728      217.437      123.250        0.042        0.021       20.203        9.345        0.214      335.457        6.102      862.025
03/17/2014  21:01:00        1.315       23.125        5.190        7.856        9.971        9.660       61.714       99.413       93.319        0.041        0.013       23.162        7.983        0.119      335.422        6.043      862.028
03/17/2014  21:02:00       11.894       63.282       -9.076       12.892       29.699        8.174      166.202      882.022       66.820        0.267        0.056       64.390       10.191        0.025      335.450        6.091      862.022
03/17/2014  21:03:00        4.627       82.671      -12.692       12.285       15.093        7.435      150.909      227.813       55.272        0.373        0.022       82.800        5.829        0.005      335.434        6.066      862.010
03/17/2014  21:04:00       -5.116       49.701       -1.552       15.239       17.390       16.852      232.224      302.406      283.996        0.166        0.041       49.964       13.740        0.076      335.399        6.007      862.009
03/17/2014  21:05:00      -29.736       19.328       -4.371       18.984       17.027       11.196      360.385      289.931      125.340        0.103        0.039       35.465       11.314        0.102      335.269        5.790      862.008
03/17/2014  21:06:00      -51.984       30.335      -13.376       15.580       24.270        9.481      242.721      589.011       89.896        0.236        0.046       60.188        8.994        0.022      335.381        5.976      862.007
03/17/2014  21:07:00      -60.648       14.787       -9.309       17.080       15.453       12.191      291.742      238.801      148.610        0.233        0.034       62.424        9.206        0.022      335.207        5.687      862.011
03/17/2014  21:08:00      -58.397       10.600       -8.443       16.048       26.433       11.566      257.534      698.681      133.783        0.234        0.054       59.352        8.935        0.023      335.254        5.764      862.014
03/17/2014  21:09:00      -42.251       12.331      -15.687       19.825       17.361        9.325      393.024      301.396       86.955        0.148        0.039       44.013        5.829        0.018      335.087        5.489      862.025
03/17/2014  21:10:00      -56.747       -6.992      -14.666       16.111       24.206       13.238      259.562      585.954      175.253        0.225        0.051       57.176        6.619        0.013      335.019        5.376      862.049
03/17/2014  21:11:00      -62.039        3.991      -15.808       25.166       26.693       10.453      633.329      712.538      109.269        0.278        0.073       62.167       10.730        0.030      335.014        5.367      862.063
03/17/2014  21:12:00      -63.038        6.481      -28.953       16.284       17.601       17.098      265.176      309.785      292.354        0.286        0.043       63.370       10.975        0.030      334.938        5.241      862.067
03/17/2014  21:13:00      -66.392       18.401      -17.094       22.903       23.825       15.688      524.534      567.622      246.123        0.319        0.067       68.894       14.703        0.046      335.006        5.353      862.086
03/17/2014  21:14:00      -64.506        3.662      -15.736       21.570       32.409       19.026      465.273     1050.374      361.984        0.315        0.094       64.610       17.472        0.073      335.000        5.343      862.103
03/17/2014  21:15:00     -102.962       25.123      -20.158       18.462       28.151       17.458      340.856      792.452      304.764        0.654        0.072      105.982       12.237        0.013      335.039        5.409      862.107
03/17/2014  21:16:00      -83.752       18.776      -10.180       24.565       34.806       25.234      603.442     1211.468      636.767        0.496        0.123       85.830       21.591        0.063      334.989        5.326      862.107
03/17/2014  21:17:00      -86.994        8.487      -14.366       27.672       38.466       16.907      765.742     1479.671      285.863        0.519        0.127       87.407       15.305        0.031      334.950        5.261      862.106
03/17/2014  21:18:00      -72.400       -3.410      -19.486       31.926       27.578       13.647     1019.297      760.570      186.252        0.380        0.098       72.480        7.932        0.012      334.837        5.073      862.114
03/17/2014  21:19:00      -96.472      -10.963      -15.452       43.474       28.980       20.126     1889.984      839.866      405.070        0.640        0.157       97.093       16.550        0.029      334.652        4.766      862.128
03/17/2014  21:20:00      -97.395       -9.176       -9.849       42.851       28.723       17.890     1836.217      824.998      320.034        0.632        0.149       97.826       16.798        0.029      334.571        4.631      862.136
03/17/2014  21:21:00     -113.784       -6.790      -16.658       35.523       24.992       17.469     1261.890      624.608      305.172        0.773        0.110      113.987       13.236        0.013      334.644        4.754      862.128
03/17/2014  21:22:00     -145.185       -4.631      -20.506       32.776       24.684       16.145     1074.265      609.278      260.648        1.173        0.097      145.259        9.354        0.004      334.569        4.626      862.117
03/17/2014  21:23:00     -120.938        2.887      -14.767       37.746       26.742       22.174     1424.786      715.137      491.676        0.874        0.132      120.973       20.606        0.029      334.557        4.608      862.115
03/17/2014  21:24:00      -85.600       -2.724      -20.445       32.270       26.611       17.987     1041.349      708.161      323.533        0.491        0.104       85.644       11.465        0.018      334.836        5.071      862.113
03/17/2014  21:25:00      -64.273        3.469      -20.473       24.134       22.409       16.292      582.434      502.150      265.428        0.296        0.068       64.366       12.716        0.039      334.806        5.022      862.125
03/17/2014  21:26:00      -65.011       -6.077       -9.889       36.356       24.726       17.004     1321.795      611.393      289.146        0.329        0.111       65.295       11.557        0.031      334.631        4.732      862.148
03/17/2014  21:27:00      -71.023       -3.352      -11.107       29.114       20.024       14.709      847.646      400.957      216.364        0.332        0.073       71.102       12.686        0.032      334.648        4.759      862.153
03/17/2014  21:28:00      -79.570       -5.890      -16.913       28.511       23.586       22.044      812.883      556.315      485.949        0.425        0.093       79.787       16.536        0.043      334.552        4.599      862.149
03/17/2014  21:29:00      -62.936       -8.684       -7.388       21.498       28.053       20.052      462.177      786.992      402.092        0.287        0.083       63.532       14.551        0.052      334.614        4.702      862.147
03/17/2014  21:30:00      -84.388       -7.447      -12.848       31.181       27.045       18.216      972.261      731.429      331.826        0.469        0.102       84.716       17.283        0.042      334.525        4.556      862.160
03/17/2014  21:31:00     -117.662        3.854      -21.273       40.683       22.472       19.771     1655.075      504.969      390.878        0.843        0.128      117.725       13.103        0.012      334.585        4.653      862.167
03/17/2014  21:32:00     -105.077        7.334      -14.300       54.782       30.565       24.451     3001.076      934.201      597.871        0.792        0.227      105.332       26.099        0.061      334.571        4.630      862.171
03/17/2014  21:33:00     -161.110       15.809      -17.516       38.934       32.370       24.053     1515.882     1047.798      578.541        1.483        0.157      161.883       16.697        0.011      334.505        4.521      862.188
03/17/2014  21:34:00     -171.025       19.489      -24.547       32.186       26.743       18.580     1035.970      715.180      345.227        1.616        0.105      172.131       13.053        0.006      334.524        4.554      862.185
03/17/2014  21:35:00     -121.871      -17.440      -15.634       33.971       30.545       21.523     1154.020      933.012      463.245        0.898        0.128      123.112       18.566        0.023      334.503        4.518      862.180
03/17/2014  21:36:00     -119.104       -9.053      -10.532       35.081       30.210       18.098     1230.687      912.634      327.534        0.842        0.124      119.447       15.903        0.018      334.553        4.600      862.197
03/17/2014  21:37:00      -97.778      -18.254      -10.554       36.375       41.338       21.130     1323.137     1708.859      446.476        0.674        0.174       99.467       16.775        0.028      334.518        4.544      862.204
03/17/2014  21:38:00     -100.918      -36.240       -6.483       24.794       33.482       17.333      614.742     1121.012      300.416        0.679        0.102      107.228       11.201        0.011      334.491        4.499      862.217
03/17/2014  21:39:00     -118.803       42.413      -21.068       35.434       33.145       23.160     1255.539     1098.613      536.388        0.962        0.145      126.147       12.408        0.010      334.869        5.126      862.250
03/17/2014  21:40:00     -108.036      -13.227      -17.359       23.204       30.256       16.605      538.404      915.420      275.718        0.694        0.086      108.843        5.220        0.002      334.829        5.059      862.267
03/17/2014  21:41:00     -107.410       25.153      -20.810       35.675       28.819       29.479     1272.693      830.527      868.985        0.779        0.149      110.316       25.756        0.055      334.866        5.123      862.280
03/17/2014  21:42:00      -91.177        8.752      -13.276       24.814       41.902       22.978      615.746     1755.764      527.966        0.573        0.145       91.596       20.238        0.049      334.806        5.022      862.309
03/17/2014  21:43:00      -93.208       27.444      -18.426       28.123       54.344       16.991      790.924     2953.251      288.686        0.691        0.202       97.165       20.204        0.043      334.861        5.113      862.309
03/17/2014  21:44:00      -67.980      -11.530       -5.331       30.397       32.524       21.804      923.999     1057.820      475.435        0.362        0.123       68.951       17.801        0.067      334.758        4.941      862.313
03/17/2014  21:45:00      -68.994       15.562       -6.342       24.968       26.120       17.406      623.399      682.260      302.960        0.333        0.080       70.727       15.666        0.049      334.760        4.946      862.302
03/17/2014  21:46:00      -62.519       12.794      -11.025       24.331       27.902       15.190      592.005      778.520      230.734        0.290        0.080       63.815       10.788        0.029      334.818        5.041      862.262
03/17/2014  21:47:00      -77.607      -20.156       -8.972       19.645       23.647       18.423      385.929      559.173      339.391        0.390        0.064       80.182       13.920        0.030      334.710        4.862      862.229
03/17/2014  21:48:00      -73.383      -24.868      -16.010       15.603       21.840       13.455      243.442      476.973      181.027        0.358        0.045       77.482        5.024        0.004      334.692        4.833      862.209
03/17/2014  21:49:00      -92.311      -31.170       -7.805       14.095       18.886       14.035      198.656      356.680      196.973        0.515        0.038       97.432        6.091        0.004      334.524        4.552      862.200
03/17/2014  21:50:00      -46.064       -4.695       -7.297       15.848       12.966       11.303      251.158      168.111      127.763        0.137        0.027       46.303       10.163        0.048      334.609        4.695      862.211
03/17/2014  21:51:00      -46.514      -11.269      -10.137       14.540       16.647       10.222      211.408      277.111      104.493        0.149        0.030       47.860        8.058        0.028      334.624        4.719      862.208
03/17/2014  21:52:00      -47.671        5.804      -15.439       18.319       27.613       11.760      335.575      762.501      138.309        0.189        0.062       48.023       10.917        0.052      334.720        4.878      862.201
03/17/2014  21:53:00      -27.877        7.824       -6.567       20.246       14.552       15.378      409.917      211.754      236.479        0.087        0.043       28.954       11.302        0.152      334.661        4.780      862.210
03/17/2014  21:54:00      -66.190       34.571      -14.334       19.007       27.282       15.002      361.254      744.290      225.052        0.356        0.067       74.674       10.308        0.019      334.795        5.003      862.219
03/17/2014  21:55:00      -42.123       14.414       -4.976       18.916       17.261       14.749      357.802      297.945      217.535        0.144        0.044       44.521       10.253        0.053      334.753        4.934      862.218
03/17/2014  21:56:00      -57.424        7.523       -1.760       12.068       14.829       16.086      145.632      219.884      258.753        0.199        0.031       57.914        8.501        0.022      334.736        4.905      862.212
03/17/2014  21:57:00      -50.641        1.263      -12.056       13.085       15.202        9.157      171.205      231.114       83.858        0.160        0.024       50.657        9.044        0.032      334.731        4.897      862.206
03/17/2014  21:58:00      -43.317       11.425       -2.854       15.783       17.994        8.403      249.116      323.793       70.611        0.133        0.032       44.799        5.994        0.018      334.749        4.928      862.188
03/17/2014  21:59:00      -52.942       38.107       -9.538       21.426       20.755       13.266      459.064      430.754      175.993        0.271        0.053       65.231       11.338        0.030      334.785        4.987      862.160
03/17/2014  22:00:00      -44.518        1.116       -9.417       11.603       22.276       10.676      134.621      496.223      113.985        0.141        0.037       44.532       10.407        0.055      334.762        4.948      862.138
03/17/2014  22:01:00      -53.151        5.734       -8.526       13.401       15.598       11.642      179.587      243.291      135.538        0.174        0.028       53.460        7.597        0.020      334.659        4.777      862.132
03/17/2014  22:02:00      -44.603        2.451       -4.946       20.238       17.990       11.045      409.584      323.638      121.990        0.144        0.043       44.670        8.770        0.039      334.723        4.884      862.134
03/17/2014  22:03:00      -45.089        6.716      -10.288       28.736       19.506       13.936      825.786      380.486      194.225        0.179        0.070       45.587       10.589        0.054      334.719        4.878      862.129
03/17/2014  22:04:00      -62.149        3.256      -10.634       19.732       15.668       13.706      389.357      245.481      187.868        0.240        0.041       62.234       11.934        0.037      334.632        4.732      862.122
03/17/2014  22:05:00     -100.919        1.146      -17.026       30.111       18.791       14.863      906.670      353.088      220.918        0.598        0.074      100.926       15.359        0.023      334.295        4.173      862.118
03/17/2014  22:06:00     -105.555       -8.973      -15.973       37.678       21.632       14.836     1419.651      467.945      220.102        0.679        0.105      105.935       15.821        0.022      334.382        4.318      862.105
03/17/2014  22:07:00      -99.874       -7.274      -15.961       31.351       23.368       17.600      982.908      546.067      309.776        0.606        0.092      100.138       10.722        0.011      334.372        4.303      862.102
03/17/2014  22:08:00      -69.044       -4.271      -18.599       24.595       21.069       17.305      604.900      443.883      299.460        0.324        0.067       69.176       14.583        0.044      334.330        4.232      862.102
03/17/2014  22:09:00      -59.671      -17.494       -8.274       35.852       24.658       21.658     1285.340      608.005      469.087        0.315        0.118       62.183       17.971        0.084      334.308        4.196      862.116
03/17/2014  22:10:00      -31.617        1.452       -5.335       34.507       33.219       17.728     1190.722     1103.515      314.293        0.182        0.130       31.650       12.526        0.157      334.288        4.162      862.128
03/17/2014  22:11:00      -37.855       -4.132       -9.945       40.168       27.329       17.315     1613.497      746.856      299.808        0.210        0.133       38.080       18.017        0.224      334.285        4.157      862.145
03/17/2014  22:12:00      -82.362       -8.833      -10.723       39.737       23.456       17.249     1578.996      550.182      297.524        0.470        0.121       82.834       18.898        0.052      334.240        4.083      862.146
03/17/2014  22:13:00      -68.341       -3.941       -6.196       48.381       19.793       20.048     2340.748      391.782      401.905        0.393        0.157       68.454       24.757        0.131      334.186        3.993      862.132
03/17/2014  22:14:00      -95.528       -2.534       -7.889       37.511       28.547       19.737     1407.090      814.905      389.560        0.590        0.131       95.561       14.695        0.024      334.097        3.845      862.111
03/17/2014  22:15:00      -79.967        1.255       -3.998       33.496       29.118       20.415     1122.014      847.886      416.777        0.440        0.119       79.976       13.906        0.030      334.127        3.895      862.092
03/17/2014  22:16:00     -105.860       -9.384      -10.185       35.282       23.175       17.348     1244.821      537.070      300.938        0.674        0.104      106.275       16.379        0.024      334.119        3.881      862.089
03/17/2014  22:17:00      -75.533       -8.780       -6.032       36.472       21.022       19.301     1330.217      441.931      372.515        0.398        0.107       76.042       19.241        0.064      334.054        3.774      862.094
03/17/2014  22:18:00      -83.310       -0.846       -6.823       40.183       26.503       20.469     1614.670      702.385      418.987        0.486        0.137       83.314       22.341        0.072      334.024        3.723      862.104
03/17/2014  22:19:00      -30.424      -14.111       -2.142       24.220       27.239       16.421      586.586      741.970      269.636        0.136        0.080       33.537       11.143        0.110      334.117        3.877      862.106
03/17/2014  22:20:00      -53.445       25.248       -9.557       22.667       33.145       15.892      513.798     1098.608      252.558        0.272        0.093       59.109       19.063        0.104      334.247        4.094      862.110
03/17/2014  22:21:00      -35.883       32.384       -0.321       18.133       47.797       16.551      328.823     2284.527      273.936        0.261        0.144       48.335       20.564        0.181      334.404        4.355      862.104
03/17/2014  22:22:00      -19.494       50.246        1.219       29.435       28.724       16.065      866.401      825.073      258.091        0.243        0.097       53.895       13.494        0.063      334.548        4.594      862.109
03/17/2014  22:23:00      -11.584       18.459        8.414       18.691       18.516       13.634      349.368      342.853      185.886        0.071        0.044       21.793        9.341        0.184      334.563        4.619      862.118
03/17/2014  22:24:00       11.440       25.426        6.937        9.950       20.787       13.775       98.999      432.096      189.747        0.077        0.036       27.881       13.097        0.221      334.644        4.752      862.112
03/17/2014  22:25:00        1.189        1.231        5.479       14.124        9.482        8.657      199.477       89.909       74.939        0.020        0.018        1.712        7.100       17.205      334.501        4.516      862.108
03/17/2014  22:26:00      -42.837      -19.437       -3.911       15.541       13.265        7.268      241.512      175.972       52.823        0.135        0.024       47.040        4.126        0.008      334.269        4.130      862.114
03/17/2014  22:27:00      -33.059      -11.729       -2.508       17.532       13.345        9.111      307.368      178.097       83.011        0.090        0.028       35.078        4.599        0.017      334.288        4.161      862.134
03/17/2014  22:28:00      -47.029      -19.161       -4.583       13.580        9.620        7.151      184.423       92.548       51.142        0.146        0.016       50.783        4.472        0.008      334.269        4.131      862.147
03/17/2014  22:29:00      -46.642      -19.211        1.318       18.074       12.765        8.983      326.676      162.941       80.693        0.156        0.029       50.444        4.483        0.008      334.284        4.156      862.153
03/17/2014  22:30:00      -33.980      -20.928       -4.273       22.937       12.341        9.329      526.102      152.304       87.034        0.119        0.038       39.907        6.169        0.024      334.210        4.034      862.151
03/17/2014  22:31:00      -64.120      -25.163       -1.052       21.025       15.428       10.916      442.065      238.031      119.156        0.277        0.040       68.881       10.540        0.023      334.117        3.879      862.148
03/17/2014  22:32:00      -77.234      -27.146      -12.574        9.179        9.567        8.441       84.257       91.534       71.245        0.355        0.012       81.866        6.233        0.006      334.166        3.960      862.146
03/17/2014  22:33:00      -56.383      -12.614      -15.769       13.340        8.191        7.581      177.954       67.091       57.474        0.194        0.015       57.777        7.038        0.015      334.183        3.990      862.136
03/17/2014  22:34:00      -48.478        2.566      -10.038       11.082        8.476        7.467      122.811       71.837       55.760        0.135        0.013       48.546        4.826        0.010      334.246        4.091      862.129
03/17/2014  22:35:00      -36.564        7.651       -7.405        7.609        7.020        6.071       57.903       49.286       36.862        0.080        0.007       37.356        3.035        0.007      334.365        4.290      862.119
03/17/2014  22:36:00      -13.749       -3.706        4.256       18.121       10.804       17.209      328.386      116.729      296.148        0.048        0.037       14.239       12.389        0.757      334.406        4.357      862.117
03/17/2014  22:37:00       -8.380       18.801        0.571       11.717       10.886        9.907      137.285      118.512       98.153        0.039        0.018       20.584        9.260        0.202      334.449        4.432      862.124
03/17/2014  22:38:00       18.511       46.583       -4.861       13.928       15.051       14.460      193.996      226.536      209.078        0.158        0.031       50.126        9.915        0.039      334.581        4.648      862.128
03/17/2014  22:39:00        8.136       52.912       -5.918       15.977       12.618       10.159      255.269      159.208      103.202        0.171        0.026       53.534        4.987        0.009      334.663        4.782      862.117
03/17/2014  22:40:00       17.121       71.475      -10.498       13.018       18.599       10.018      169.478      345.925      100.358        0.306        0.031       73.497        6.572        0.008      334.641        4.746      862.099
03/17/2014  22:41:00       18.799       76.778       -6.048       15.705       14.800        9.856      246.641      219.030       97.145        0.342        0.028       79.046        5.533        0.005      334.597        4.676      862.083
03/17/2014  22:42:00       41.070       48.615        2.875       22.575       23.832       18.185      509.625      567.945      330.683        0.273        0.070       63.640       16.300        0.066      334.416        4.375      862.083
03/17/2014  22:43:00       82.408       43.507       14.720       28.194       18.395       14.447      794.905      338.381      208.730        0.512        0.067       93.187       11.949        0.016      334.320        4.216      862.081
03/17/2014  22:44:00      104.870       42.628       12.927       27.342       27.602       24.469      747.589      761.856      598.728        0.754        0.105      113.203       16.651        0.022      334.315        4.207      862.081
03/17/2014  22:45:00      116.877       65.433       27.646       32.526       25.449       27.359     1057.912      647.641      748.494        1.058        0.123      133.946       18.415        0.019      334.166        3.959      862.094
03/17/2014  22:46:00       51.893       88.455       81.590       53.689       39.495       40.704     2882.496     1559.828     1656.802        1.164        0.305      102.553       40.699        0.157      334.084        3.822      862.125
03/17/2014  22:47:00       32.735      116.666      123.796       43.173       56.637       28.925     1863.913     3207.754      836.674        1.796        0.295      121.171       34.000        0.079      334.097        3.843      862.161
03/17/2014  22:48:00       22.569       96.964      113.320       51.275       60.637       52.799     2629.146     3676.815     2787.746        1.592        0.455       99.556       52.372        0.277      334.121        3.884      862.178
03/17/2014  22:49:00       57.798      -57.971       24.162       68.611      117.851       74.470     4707.534    13888.939     5545.821        1.571        1.207       81.861       91.427        1.247      334.251        4.099      862.173
03/17/2014  22:50:00      110.707     -112.716       -9.214       53.324       64.976       38.302     2843.413     4221.942     1467.040        1.679        0.427      157.990       40.714        0.066      334.302        4.184      862.167
03/17/2014  22:51:00       54.718       35.821       64.868       53.245       44.866       36.289     2834.987     2012.956     1316.868        0.732        0.308       65.401       38.296        0.343      334.341        4.250      862.158
03/17/2014  22:52:00       26.880       29.883       31.157       30.239       32.609       24.695      914.416     1063.342      609.819        0.259        0.129       40.194       12.151        0.091      334.358        4.278      862.150
03/17/2014  22:53:00        6.425       16.521       39.343       23.090       28.432       19.421      533.134      808.386      377.162        0.179        0.086       17.726       18.795        1.124      334.217        4.045      862.150
03/17/2014  22:54:00       28.525      -11.115       22.076       34.528       39.474       27.105     1192.157     1558.224      734.702        0.245        0.174       30.614       26.500        0.749      334.286        4.159      862.163
03/17/2014  22:55:00       57.423      -61.156        9.816       36.817       50.637       24.072     1355.461     2564.103      579.464        0.582        0.225       83.890       24.291        0.084      334.404        4.355      862.170
03/17/2014  22:56:00       47.335       25.682       45.193       28.143       48.437       22.520      792.032     2346.159      507.153        0.429        0.182       53.853       21.656        0.162      334.277        4.144      862.165
03/17/2014  22:57:00       75.209       49.477       37.112       18.398       22.138       21.964      338.475      490.106      482.430        0.540        0.066       90.024       14.294        0.025      334.474        4.470      862.134
03/17/2014  22:58:00       67.316       54.922        9.790       16.489       16.985       15.627      271.898      288.478      244.199        0.422        0.040       86.878        9.712        0.012      334.541        4.582      862.115
03/17/2014  22:59:00       49.337       69.230       -2.826       34.892       30.039       23.913     1217.483      902.370      571.822        0.496        0.135       85.011       19.930        0.055      334.337        4.244      862.127
03/17/2014  23:00:00       25.285       39.125        3.449       35.419       33.057       22.845     1254.531     1092.750      521.887        0.253        0.143       46.584       20.016        0.185      334.158        3.946      862.125
03/17/2014  23:01:00       47.303       43.292        8.152       26.561       27.169       21.063      705.478      738.141      443.637        0.303        0.094       64.123       16.370        0.065      334.229        4.064      862.124
03/17/2014  23:02:00       29.852       40.984       -1.863       23.815       31.914       16.976      567.159     1018.508      288.200        0.222        0.094       50.703       17.818        0.123      334.181        3.985      862.114
03/17/2014  23:03:00       20.753       53.494       -4.626       24.950       33.119       17.210      622.493     1096.891      296.170        0.266        0.101       57.378       14.716        0.066      334.143        3.922      862.098
03/17/2014  23:04:00       32.718       41.436        3.102       30.291       26.553       25.684      917.539      705.088      659.667        0.254        0.114       52.796       19.576        0.137      334.129        3.898      862.097
03/17/2014  23:05:00       59.951       40.999        5.860       24.743       21.885       24.034      612.241      478.947      577.635        0.349        0.083       72.629       14.272        0.039      334.174        3.973      862.093
03/17/2014  23:06:00       36.055       32.548        1.595       25.962       13.716       11.891      674.008      188.140      141.385        0.168        0.050       48.573        9.161        0.036      334.165        3.957      862.071
03/17/2014  23:07:00       21.881       56.038       -6.454       13.472       27.835        7.008      181.484      774.794       49.118        0.233        0.050       60.158        6.902        0.013      334.276        4.142      862.042
03/17/2014  23:08:00       20.590       67.888       -3.829       14.782       33.006       15.144      218.494     1089.401      229.339        0.329        0.077       70.942       16.221        0.052      334.266        4.126      862.043
03/17/2014  23:09:00       28.418       62.800       -0.112       22.809       40.464       19.866      520.241     1637.306      394.669        0.365        0.128       68.931       18.365        0.071      334.150        3.933      862.052
03/17/2014  23:10:00       30.170       85.344       -9.516       23.591       31.154       19.329      556.529      970.545      373.629        0.509        0.095       90.520       14.373        0.025      334.159        3.948      862.052
03/17/2014  23:11:00       26.493       79.483      -10.014       17.999       26.176       12.520      323.980      685.204      156.753        0.414        0.058       83.782       11.722        0.020      334.178        3.979      862.050
03/17/2014  23:12:00       27.138       87.280      -12.185       18.297       22.851       14.183      334.793      522.152      201.157        0.478        0.053       91.402       14.853        0.026      334.196        4.010      862.036
03/17/2014  23:13:00       31.920       99.243      -15.256       14.492       19.632       13.586      210.014      385.397      184.593        0.594        0.039      104.250       11.199        0.012      334.211        4.035      862.033
03/17/2014  23:14:00       28.220      130.015      -22.435       16.845       19.345       11.121      283.751      374.231      123.676        0.949        0.039      133.043        7.211        0.003      334.212        4.035      862.032
03/17/2014  23:15:00       36.419      126.706      -23.706       20.099       26.484       16.754      403.978      701.415      280.697        0.966        0.069      131.836       12.013        0.008      334.166        3.959      862.030
03/17/2014  23:16:00       37.076      126.796      -19.305       21.990       25.279       18.448      483.543      639.029      340.335        0.964        0.073      132.105       14.037        0.011      334.151        3.935      862.030
03/17/2014  23:17:00       -7.934      142.175      -21.477       21.712       17.176        9.545      471.392      294.999       91.103        1.080        0.043      142.396        4.924        0.001      334.162        3.951      862.042
03/17/2014  23:18:00      -32.188      134.222      -16.583       23.744       27.840       17.087      563.775      775.074      291.973        1.048        0.082      138.027       13.001        0.009      334.253        4.104      862.039
03/17/2014  23:19:00      -24.918       91.782      -12.942       21.882       57.460       17.696      478.838     3301.670      313.159        0.665        0.205       95.104       22.005        0.054      334.282        4.152      862.033
03/17/2014  23:20:00      -13.488       71.440       -2.491       27.130       31.454       15.392      736.039      989.362      236.920        0.363        0.098       72.702       11.886        0.027      334.235        4.074      862.037
03/17/2014  23:21:00      -19.443       66.615       -3.071       26.940       43.522       19.239      725.762     1894.131      370.130        0.391        0.150       69.394       13.317        0.037      334.267        4.128      862.035
03/17/2014  23:22:00      -57.751       -1.116       -8.158       25.209       20.772       14.910      635.495      431.490      222.319        0.235        0.064       57.762       10.552        0.033      333.971        3.637      862.048
03/17/2014  23:23:00      -78.061      -16.478      -11.586       27.077       17.094       13.221      733.138      292.209      174.806        0.385        0.060       79.781       12.071        0.023      333.771        3.304      862.082
03/17/2014  23:24:00      -86.523      -13.768      -10.720       22.232       24.339       16.432      494.266      592.377      270.013        0.457        0.068       87.612       10.146        0.013      333.715        3.211      862.131
03/17/2014  23:25:00     -100.268        2.476      -16.965       17.119       19.685       11.981      293.074      387.504      143.552        0.559        0.041      100.298        5.453        0.003      333.700        3.186      862.183
03/17/2014  23:26:00      -47.210       -1.481       -3.665       35.057       20.106       16.361     1229.027      404.265      267.679        0.207        0.095       47.233       17.251        0.133      333.605        3.029      862.218
03/17/2014  23:27:00      -50.098       -8.371       -8.334       24.854       21.453       17.802      617.709      460.225      316.916        0.202        0.070       50.793       13.601        0.072      333.538        2.918      862.242
03/17/2014  23:28:00      -37.457       -1.791       -4.042       18.215       21.043       14.685      331.792      442.787      215.660        0.121        0.050       37.499       11.968        0.102      333.520        2.889      862.263
03/17/2014  23:29:00      -62.537      -21.213       -5.828       32.728       25.321       18.763     1071.118      641.144      352.064        0.323        0.103       66.037       16.751        0.064      333.533        2.910      862.275
03/17/2014  23:30:00      -51.027      -12.936       -5.252       29.497       24.492       20.181      870.060      599.870      407.259        0.234        0.094       52.641       17.015        0.104      333.452        2.776      862.290
03/17/2014  23:31:00      -53.651      -11.613      -14.352       16.574       21.648       13.904      274.682      468.655      193.318        0.208        0.047       54.894        7.857        0.020      333.540        2.923      862.302
03/17/2014  23:32:00      -58.846      -19.955      -20.866       16.673       19.473       13.016      277.998      379.206      169.412        0.256        0.041       62.137        6.317        0.010      333.532        2.908      862.305
03/17/2014  23:33:00      -82.335      -32.259      -11.626       19.952       33.009       19.141      398.094     1089.586      366.393        0.490        0.093       88.429       15.558        0.031      333.439        2.754      862.316
03/17/2014  23:34:00      -52.444      -22.138      -10.006       30.233       35.368       18.052      914.029     1250.924      325.881        0.292        0.125       56.925       10.522        0.034      333.487        2.833      862.329
03/17/2014  23:35:00      -41.049        0.661       -9.037       20.582       14.967       13.193      423.624      223.997      174.043        0.129        0.041       41.055        6.582        0.026      333.393        2.680      862.334
03/17/2014  23:36:00      -61.923       -8.093      -11.231       23.864       20.435       10.352      569.512      417.576      107.173        0.256        0.055       62.449        6.444        0.011      333.522        2.893      862.334
03/17/2014  23:37:00      -46.975      -22.512       -6.810       14.146       14.809       11.012      200.105      219.304      121.262        0.165        0.027       52.090        9.486        0.033      333.593        3.008      862.325
03/17/2014  23:38:00      -45.556      -11.003      -10.660       17.586       24.519       13.873      309.262      601.182      192.465        0.171        0.055       46.866       15.284        0.106      333.777        3.314      862.322
03/17/2014  23:39:00      -46.598        5.724      -11.575       17.072       22.472       13.210      291.468      504.992      174.515        0.165        0.049       46.948       12.978        0.076      333.692        3.173      862.309
03/17/2014  23:40:00      -29.132       43.684       -6.757       24.751       40.690       12.446      612.601     1655.671      154.908        0.261        0.121       52.507        6.902        0.017      334.014        3.706      862.305
03/17/2014  23:41:00      -13.691      108.864      -12.459       21.072       29.102       14.150      444.020      846.954      200.217        0.684        0.075      109.722       14.111        0.017      334.320        4.215      862.304
03/17/2014  23:42:00      -16.008      140.425      -12.786       17.463       20.487       11.210      304.962      419.729      125.672        1.049        0.043      141.334        8.458        0.004      334.244        4.090      862.302
03/17/2014  23:43:00      -15.772      123.075      -19.558       26.909       23.226       13.045      724.099      539.458      170.161        0.861        0.072      124.081        6.984        0.003      334.416        4.374      862.275
03/17/2014  23:44:00      -14.608       72.945      -10.226       23.209       37.560       19.806      538.655     1410.776      392.297        0.399        0.117       74.393       20.681        0.077      334.342        4.251      862.246
03/17/2014  23:45:00      -11.813      100.505       -7.452       19.649       29.985       17.977      386.075      899.113      323.155        0.595        0.080      101.196       16.340        0.026      334.356        4.275      862.231
03/17/2014  23:46:00       -3.772      134.072      -14.486       26.098       38.738       16.708      681.128     1500.595      279.174        1.033        0.123      134.125       19.168        0.020      334.281        4.149      862.218
03/17/2014  23:47:00       -0.339      181.808      -25.003       21.198       28.231       11.910      449.373      796.972      141.846        1.753        0.069      181.809        4.452        0.001      334.242        4.084      862.204
03/17/2014  23:48:00       22.317      169.106      -23.747       29.639       27.684       14.080      878.460      766.390      198.253        1.575        0.092      170.572       13.678        0.006      334.211        4.035      862.211
03/17/2014  23:49:00       40.567      127.301      -15.196       38.043       52.224       30.935     1447.303     2727.330      956.966        1.161        0.257      133.608       31.712        0.056      334.159        3.947      862.202
03/17/2014  23:50:00       37.308       85.088       -5.698       33.219       57.519       31.556     1103.475     3308.409      995.793        0.703        0.270       92.908       34.216        0.136      334.152        3.937      862.198
03/17/2014  23:51:00       38.760       82.870       -2.181       31.465       49.616       32.479      990.042     2461.779     1054.884        0.644        0.225       91.486       32.281        0.125      334.145        3.924      862.194
03/17/2014  23:52:00       41.975      120.573      -13.019       31.134       38.769       24.573      969.336     1503.040      603.827        0.977        0.154      127.670       20.357        0.025      334.207        4.026      862.198
03/17/2014  23:53:00       33.882      154.838      -25.585       24.701       26.589       15.801      610.146      706.976      249.666        1.367        0.078      158.501       14.721        0.009      334.334        4.239      862.213
03/17/2014  23:54:00       39.028      168.117      -28.336       21.953       24.088       17.187      481.939      580.250      295.393        1.597        0.068      172.588       14.423        0.007      334.303        4.186      862.231
03/17/2014  23:55:00       36.080      159.938      -24.249       24.533       21.796       15.559      601.862      475.053      242.092        1.439        0.066      163.957        7.814        0.002      334.281        4.151      862.238
03/17/2014  23:56:00       25.493      154.861      -19.482       26.660       29.496       19.895      710.763      870.010      395.813        1.349        0.099      156.945       16.432        0.011      334.305        4.190      862.228
03/17/2014  23:57:00       31.837      139.023      -18.110       22.588       25.181       16.704      510.234      634.099      279.039        1.105        0.071      142.622        9.475        0.004      334.286        4.158      862.216
03/17/2014  23:58:00       46.060      103.855       -9.612       37.624       50.879       28.299     1415.566     2588.684      800.820        0.890        0.240      113.610       31.248        0.076      334.219        4.046      862.191
03/17/2014  23:59:00       16.849      118.889      -11.125       30.734       44.236       27.740      944.595     1956.835      769.500        0.911        0.184      120.077       27.382        0.052      334.196        4.008      862.178
